[[{"header":{"parameterUnit":"m.s-1","parameterCategory":1,"la1":31.0,"la2":29.5877,"lo1":-88.7671,"lo2":-86.6584,"dy":0.0162,"dx":0.0185,"nx":115,"ny":88,"refTime":"2024-05-05T12:00:00:Z","depth":0,"parameterNumber":2,"parameterNumberName":"U-component_of_WINDS"},"data":[0.0,0.0,0.0,0.0,0.0,0.0,0.0,0.0,0.0,0.0,0.0,0.0,0.0,0.0,0.0,0.0,0.0,0.0,0.0,0.0,0.0,0.0,0.0,0.0,0.0,0.0,0.0,0.0,0.0,0.0,0.0,0.0,0.0,0.0,0.0,0.0,0.0,0.0,0.0,0.0,0.0,0.0,0.0,0.0,0.0,0.0,0.0,0.0,0.0,0.0,0.0,0.0,0.0,0.0,0.0,0.0,0.0,0.0,0.0,0.0,0.0,0.0,0.0,0.0,0.0,0.0,0.0,0.0,0.0,0.0,0.0,0.0,0.0,0.0,0.0,0.0,0.0,0.0,0.0,0.0,0.0,0.0,0.0,0.0,0.0,0.0,0.0,0.0,0.0,0.0,0.0,0.0,0.0,0.0,0.0,0.0,0.0,0.0,0.0,0.0,0.0,0.0,0.0,0.0,0.0,0.0,0.0,0.0,0.0,0.0,0.0,0.0,0.0,0.0,0.0,0.0,0.0,0.0,0.0,0.0,0.0,0.0,0.0,0.0,0.0,0.0,0.0,0.0,0.0,0.0,0.0,0.0,0.0,0.0,0.0,0.0,0.0,0.0,0.0,0.0,0.0,0.0,0.0,0.0,0.0,0.0,0.0,0.0,0.0,0.0,0.0,0.0,0.0,0.0,0.0,0.0,0.0,0.0,0.0,0.0,0.0,0.0,0.0,0.0,0.0,0.0,0.0,0.0,0.0,0.0,0.0,0.0,0.0,0.0,0.0,0.0,0.0,0.0,0.0,0.0,0.0,0.0,0.0,0.0,0.0,0.0,0.0,0.0,0.0,0.0,0.0,0.0,0.0,0.0,0.0,0.0,0.0,0.0,0.0,0.0,0.0,0.0,0.0,0.0,0.0,0.0,0.0,0.0,0.0,0.0,0.0,0.0,0.0,0.0,0.0,0.0,0.0,0.0,0.0,0.0,0.0,0.0,0.0,0.0,0.0,0.0,0.0,0.0,0.0,0.0,0.0,0.0,0.0,0.0,0.0,0.0,0.0,0.0,0.0,0.0,0.0,0.0,0.0,0.0,0.0,0.0,0.0,0.0,0.0,0.0,0.0,0.0,0.0,0.0,0.0,0.0,0.0,0.0,0.0,0.0,0.0,0.0,0.0,0.0,0.0,0.0,0.0,0.0,0.0,0.0,0.0,0.0,0.0,0.0,0.0,0.0,0.0,0.0,0.0,0.0,0.0,0.0,0.0,0.0,0.0,0.0,0.0,0.0,0.0,0.0,0.0,0.0,0.0,0.0,0.0,0.0,0.0,0.0,0.0,0.0,0.0,0.0,0.0,0.0,0.0,0.0,0.0,0.0,0.0,0.0,0.0,0.0,0.0,0.0,0.0,0.0,0.0,0.0,0.0,0.0,0.0,0.0,0.0,0.0,0.0,0.0,0.0,0.0,0.0,0.0,0.0,0.0,0.0,0.0,0.0,0.0,0.0,0.0,0.0,0.0,0.0,0.0,0.0,0.0,0.0,0.0,0.0,0.0,0.0,0.0,0.0,0.0,0.0,0.0,0.0,0.0,0.0,0.0,0.0,0.0,0.0,0.0,0.0,0.0,0.0,0.0,0.0,0.0,0.0,0.0,0.0,0.0,0.0,0.0,0.0,0.0,0.0,0.0,0.0,0.0,0.0,0.0,0.0,0.0,0.0,0.0,0.0,0.0,0.0,0.0,0.0,0.0,0.0,0.0,0.0,0.0,0.0,0.0,0.0,0.0,0.0,0.0,0.0,0.0,0.0,0.0,0.0,0.0,0.0,0.0,0.0,0.0,0.0,0.0,0.0,0.0,0.0,0.0,0.0,0.0,0.0,0.0,0.0,0.0,0.0,0.0,0.0,0.0,0.0,0.0,0.0,0.0,0.0,0.0,0.0,0.0,0.0,0.0,0.0,0.0,0.0,0.0,0.0,0.0,0.0,0.0,0.0,0.0,0.0,0.0,0.0,0.0,0.0,0.0,0.0,0.0,0.0,0.0,0.0,0.0,0.0,0.0,0.0,0.0,0.0,0.0,0.0,0.0,0.0,0.0,0.0,0.0,0.0,0.0,0.0,0.0,0.0,0.0,0.0,0.0,0.0,0.0,0.0,0.0,0.0,0.0,0.0,0.0,0.0,0.0,0.0,0.0,0.0,0.0,0.0,0.0,0.0,0.0,0.0,0.0,0.0,0.0,0.0,0.0,0.0,0.0,0.0,0.0,0.0,0.0,0.0,0.0,0.0,0.0,0.0,0.0,0.0,0.0,0.0,0.0,0.0,0.0,0.0,0.0,0.0,0.0,0.0,0.0,0.0,0.0,0.0,0.0,0.0,0.0,0.0,0.0,0.0,0.0,0.0,0.0,0.0,0.0,0.0,0.0,0.0,0.0,0.0,0.0,0.0,0.0,0.0,0.0,0.0,0.0,0.0,0.0,0.0,0.0,0.0,0.0,0.0,0.0,0.0,0.0,0.0,0.0,0.0,0.0,0.0,0.0,0.0,0.0,0.0,0.0,0.0,0.0,0.0,0.0,0.0,0.0,0.0,0.0,0.0,0.0,0.0,0.0,0.0,0.0,0.0,0.0,0.0,0.0,0.0,0.0,0.0,0.0,0.0,0.0,0.0,0.0,0.0,0.0,0.0,0.0,0.0,0.0,0.0,0.0,0.0,0.0,0.0,0.0,0.0,0.0,0.0,0.0,0.0,0.0,0.0,0.0,0.0,0.0,0.0,0.0,0.0,0.0,0.0,0.0,0.0,0.0,0.0,0.0,0.0,0.0,0.0,0.0,0.0,0.0,0.0,0.0,0.0,0.0,0.0,0.0,0.0,0.0,0.0,0.0,0.0,0.0,0.0,0.0,0.0,0.0,0.0,0.0,0.0,0.0,0.0,0.0,0.0,0.0,0.0,0.0,0.0,0.0,0.0,0.0,0.0,0.0,0.0,0.0,0.0,0.0,0.0,0.0,0.0,0.0,0.0,0.0,0.0,0.0,0.0,0.0,0.0,0.0,0.0,0.0,0.0,0.0,0.0,0.0,0.0,0.0,0.0,0.0,0.0,0.0,0.0,0.0,0.0,0.0,0.0,0.0,0.0,0.0,0.0,0.0,0.0,0.0,0.0,0.0,0.0,0.0,0.0,0.0,0.0,0.0,0.0,0.0,0.0,0.0,0.0,0.0,0.0,0.0,0.0,0.0,0.0,0.0,0.0,0.0,0.0,0.0,0.0,0.0,0.0,0.0,0.0,0.0,0.0,0.0,0.0,0.0,0.0,0.0,0.0,0.0,0.0,0.0,0.0,0.0,0.0,0.0,0.0,0.0,0.0,0.0,0.0,0.0,0.0,0.0,0.0,0.0,0.0,0.0,0.0,0.0,0.0,0.0,0.0,0.0,0.0,0.0,0.0,0.0,0.0,0.0,0.0,0.0,0.0,0.0,0.0,0.0,0.0,0.0,0.0,0.0,0.0,0.0,0.0,0.0,0.0,0.0,0.0,0.0,0.0,0.0,0.0,0.0,0.0,0.0,0.0,0.0,0.0,0.0,0.0,0.0,0.0,0.0,0.0,0.0,0.0,0.0,0.0,0.0,0.0,0.0,0.0,0.0,0.0,0.0,0.0,0.0,0.0,0.0,0.0,0.0,0.0,0.0,0.0,0.0,0.0,0.0,0.0,0.0,0.0,0.0,0.0,0.0,0.0,0.0,0.0,0.0,0.0,0.0,0.0,0.0,0.0,0.0,0.0,0.0,0.0,0.0,0.0,0.0,0.0,0.0,0.0,0.0,0.0,0.0,0.0,0.0,0.0,0.0,0.0,0.0,0.0,0.0,0.0,0.0,0.0,0.0,0.0,0.0,0.0,0.0,0.0,0.0,0.0,0.0,0.0,0.0,0.0,0.0,0.0,0.0,0.0,0.0,0.0,0.0,0.0,0.0,0.0,0.0,0.0,0.0,0.0,0.0,0.0,0.0,0.0,0.0,0.0,0.0,0.0,0.0,0.0,0.0,0.0,0.0,0.0,0.0,0.0,0.0,0.0,0.0,0.0,0.0,0.0,0.0,0.0,0.0,0.0,0.0,0.0,0.0,0.0,0.0,0.0,0.0,0.0,0.0,0.0,0.0,0.0,0.0,0.0,0.0,0.0,0.0,0.0,0.0,0.0,0.0,0.0,0.0,0.0,0.0,0.0,0.0,0.0,0.0,0.0,0.0,0.0,0.0,0.0,0.0,0.0,0.0,0.0,0.0,0.0,0.0,-1.9276,0.0,0.0,0.0,0.0,0.0,0.0,0.0,0.0,0.0,0.0,0.0,0.0,0.0,0.0,0.0,0.0,0.0,0.0,0.0,0.0,0.0,0.0,0.0,0.0,0.0,0.0,0.0,0.0,0.0,0.0,0.0,0.0,0.0,0.0,0.0,0.0,0.0,0.0,0.0,0.0,0.0,0.0,0.0,0.0,0.0,0.0,0.0,0.0,0.0,0.0,0.0,0.0,0.0,0.0,0.0,0.0,0.0,0.0,0.0,0.0,0.0,0.0,0.0,0.0,0.0,0.0,0.0,0.0,0.0,0.0,0.0,0.0,0.0,0.0,0.0,0.0,0.0,0.0,0.0,0.0,0.0,0.0,0.0,0.0,0.0,0.0,0.0,0.0,0.0,0.0,0.0,0.0,0.0,0.0,0.0,0.0,0.0,0.0,0.0,0.0,0.0,0.0,0.0,0.0,0.0,0.0,0.0,0.0,0.0,0.0,-1.8373,-1.9884,-1.7351,-1.7075,-1.9476,0.0,0.0,0.0,0.0,0.0,0.0,0.0,0.0,0.0,0.0,0.0,0.0,0.0,0.0,0.0,0.0,0.0,0.0,0.0,0.0,0.0,0.0,0.0,0.0,0.0,0.0,0.0,0.0,0.0,0.0,0.0,0.0,0.0,0.0,0.0,0.0,0.0,0.0,0.0,0.0,0.0,0.0,0.0,0.0,0.0,0.0,0.0,0.0,0.0,0.0,0.0,0.0,0.0,0.0,0.0,0.0,0.0,0.0,0.0,0.0,0.0,0.0,0.0,0.0,0.0,0.0,0.0,0.0,0.0,0.0,0.0,0.0,0.0,0.0,0.0,0.0,0.0,0.0,0.0,0.0,0.0,0.0,0.0,0.0,0.0,0.0,0.0,0.0,0.0,0.0,0.0,0.0,0.0,0.0,0.0,0.0,0.0,0.0,0.0,0.0,0.0,0.0,0.0,0.0,0.0,0.0,0.0,0.0,0.0,0.0,0.0,0.0,-1.8205,-1.7968,-2.0496,0.0,0.0,0.0,0.0,0.0,0.0,0.0,0.0,0.0,0.0,0.0,0.0,0.0,0.0,0.0,0.0,0.0,0.0,0.0,0.0,0.0,0.0,0.0,0.0,0.0,0.0,0.0,0.0,0.0,0.0,0.0,0.0,0.0,0.0,0.0,0.0,0.0,0.0,0.0,0.0,0.0,0.0,0.0,0.0,0.0,0.0,0.0,0.0,0.0,0.0,0.0,0.0,0.0,0.0,0.0,0.0,0.0,0.0,0.0,0.0,0.0,0.0,0.0,0.0,0.0,0.0,0.0,0.0,0.0,0.0,0.0,0.0,0.0,0.0,0.0,0.0,0.0,0.0,0.0,0.0,0.0,0.0,0.0,0.0,0.0,0.0,0.0,0.0,0.0,0.0,0.0,0.0,0.0,0.0,0.0,0.0,0.0,0.0,0.0,0.0,0.0,0.0,0.0,0.0,0.0,0.0,0.0,0.0,0.0,0.0,-2.1077,-2.3367,-2.2853,0.0,-2.3905,0.0,0.0,0.0,0.0,0.0,0.0,0.0,0.0,0.0,0.0,0.0,0.0,0.0,0.0,0.0,0.0,0.0,0.0,0.0,0.0,0.0,0.0,0.0,0.0,0.0,0.0,0.0,0.0,0.0,0.0,0.0,0.0,0.0,0.0,0.0,0.0,0.0,0.0,0.0,0.0,0.0,0.0,0.0,0.0,0.0,0.0,0.0,0.0,0.0,0.0,0.0,0.0,0.0,0.0,0.0,0.0,0.0,0.0,0.0,0.0,0.0,0.0,0.0,0.0,0.0,0.0,0.0,0.0,0.0,0.0,0.0,0.0,0.0,0.0,0.0,0.0,0.0,0.0,0.0,0.0,0.0,0.0,0.0,0.0,0.0,0.0,0.0,0.0,0.0,0.0,0.0,0.0,0.0,0.0,0.0,0.0,0.0,0.0,0.0,0.0,0.0,0.0,0.0,0.0,0.0,0.0,0.0,0.0,0.0,0.0,-2.153,-2.2957,-2.2637,-2.2396,0.0,0.0,0.0,0.0,0.0,0.0,0.0,0.0,0.0,0.0,0.0,0.0,0.0,0.0,0.0,0.0,0.0,0.0,0.0,0.0,0.0,0.0,0.0,0.0,0.0,0.0,0.0,0.0,0.0,0.0,0.0,0.0,0.0,0.0,0.0,0.0,0.0,0.0,0.0,0.0,0.0,0.0,0.0,0.0,0.0,0.0,0.0,0.0,0.0,0.0,0.0,0.0,0.0,0.0,0.0,0.0,0.0,0.0,0.0,0.0,0.0,0.0,0.0,0.0,0.0,0.0,0.0,0.0,0.0,0.0,0.0,0.0,0.0,0.0,0.0,0.0,0.0,0.0,0.0,0.0,0.0,0.0,0.0,0.0,0.0,0.0,0.0,0.0,0.0,0.0,0.0,0.0,0.0,0.0,0.0,0.0,0.0,0.0,0.0,0.0,0.0,0.0,0.0,0.0,0.0,0.0,0.0,0.0,0.0,0.0,-2.1874,-2.2263,-2.3303,-2.2436,-2.1768,-2.1476,0.0,0.0,0.0,0.0,0.0,0.0,0.0,0.0,0.0,0.0,0.0,0.0,0.0,0.0,0.0,0.0,0.0,0.0,0.0,0.0,0.0,0.0,0.0,0.0,0.0,0.0,0.0,0.0,0.0,0.0,0.0,0.0,0.0,0.0,0.0,0.0,0.0,0.0,0.0,0.0,0.0,0.0,0.0,0.0,0.0,0.0,0.0,0.0,0.0,0.0,0.0,0.0,0.0,0.0,0.0,0.0,0.0,0.0,0.0,0.0,0.0,0.0,0.0,0.0,0.0,0.0,0.0,0.0,0.0,0.0,0.0,0.0,0.0,0.0,0.0,0.0,0.0,0.0,0.0,0.0,0.0,0.0,0.0,0.0,0.0,0.0,0.0,0.0,0.0,0.0,0.0,0.0,0.0,0.0,0.0,0.0,0.0,0.0,0.0,0.0,0.0,0.0,0.0,0.0,0.0,0.0,0.0,0.0,-2.6019,-2.3944,-2.3738,-2.5707,-2.3484,-2.2469,0.0,0.0,0.0,0.0,0.0,0.0,0.0,0.0,0.0,0.0,0.0,0.0,0.0,0.0,0.0,0.0,0.0,0.0,0.0,0.0,0.0,0.0,0.0,0.0,0.0,0.0,0.0,0.0,0.0,0.0,0.0,0.0,0.0,0.0,0.0,0.0,0.0,0.0,0.0,0.0,0.0,0.0,0.0,0.0,0.0,0.0,0.0,0.0,0.0,0.0,0.0,0.0,0.0,0.0,0.0,0.0,0.0,0.0,0.0,0.0,0.0,0.0,0.0,0.0,0.0,0.0,0.0,0.0,0.0,0.0,0.0,0.0,0.0,0.0,0.0,0.0,0.0,0.0,0.0,0.0,0.0,0.0,0.0,0.0,0.0,0.0,0.0,0.0,0.0,0.0,0.0,0.0,0.0,0.0,0.0,0.0,0.0,0.0,0.0,0.0,0.0,0.0,0.0,0.0,0.0,0.0,0.0,0.0,0.0,-2.2485,-2.2617,-2.3239,-2.4401,-2.3008,-2.2309,0.0,0.0,0.0,0.0,0.0,0.0,0.0,0.0,0.0,0.0,0.0,0.0,0.0,0.0,0.0,0.0,0.0,0.0,0.0,0.0,0.0,0.0,0.0,0.0,0.0,0.0,0.0,0.0,0.0,0.0,0.0,0.0,0.0,0.0,0.0,0.0,0.0,0.0,0.0,0.0,0.0,0.0,0.0,0.0,0.0,0.0,0.0,0.0,0.0,0.0,0.0,0.0,0.0,0.0,0.0,0.0,0.0,0.0,0.0,0.0,0.0,0.0,0.0,0.0,0.0,0.0,0.0,0.0,0.0,0.0,0.0,0.0,0.0,0.0,0.0,0.0,0.0,0.0,0.0,0.0,0.0,0.0,0.0,0.0,0.0,0.0,0.0,0.0,0.0,0.0,0.0,0.0,0.0,0.0,0.0,0.0,0.0,0.0,0.0,0.0,0.0,0.0,0.0,0.0,0.0,0.0,0.0,0.0,0.0,-2.1564,0.0,-2.361,-2.3705,-2.2847,-2.2067,0.0,0.0,0.0,0.0,0.0,0.0,0.0,0.0,0.0,0.0,0.0,0.0,0.0,0.0,0.0,0.0,0.0,0.0,0.0,0.0,0.0,0.0,0.0,0.0,0.0,0.0,0.0,0.0,0.0,0.0,0.0,0.0,0.0,0.0,0.0,0.0,0.0,0.0,0.0,0.0,0.0,0.0,0.0,0.0,0.0,0.0,0.0,0.0,0.0,0.0,0.0,0.0,0.0,0.0,0.0,0.0,0.0,0.0,0.0,0.0,0.0,0.0,0.0,0.0,0.0,0.0,0.0,0.0,0.0,0.0,0.0,0.0,0.0,0.0,0.0,0.0,0.0,0.0,0.0,0.0,0.0,0.0,0.0,0.0,0.0,0.0,0.0,0.0,0.0,0.0,0.0,0.0,0.0,0.0,0.0,0.0,0.0,0.0,0.0,0.0,0.0,0.0,0.0,0.0,0.0,0.0,0.0,0.0,-2.1297,-2.3993,-2.4853,-2.4895,-2.415,-2.3182,-2.1828,0.0,0.0,0.0,0.0,0.0,0.0,0.0,0.0,0.0,0.0,0.0,0.0,0.0,0.0,0.0,0.0,0.0,0.0,0.0,0.0,0.0,0.0,0.0,0.0,0.0,0.0,0.0,0.0,0.0,0.0,0.0,0.0,0.0,0.0,0.0,0.0,0.0,0.0,0.0,0.0,0.0,0.0,0.0,0.0,0.0,0.0,0.0,0.0,0.0,0.0,0.0,0.0,0.0,0.0,0.0,0.0,0.0,0.0,0.0,0.0,0.0,0.0,0.0,0.0,0.0,0.0,0.0,0.0,0.0,0.0,0.0,0.0,0.0,0.0,0.0,0.0,0.0,0.0,0.0,0.0,0.0,0.0,0.0,0.0,0.0,0.0,0.0,0.0,0.0,0.0,0.0,0.0,0.0,0.0,0.0,0.0,0.0,0.0,0.0,0.0,0.0,0.0,0.0,0.0,0.0,0.0,0.0,0.0,0.0,-2.2404,-2.3775,-2.4949,-2.5758,-2.3219,-2.2379,0.0,0.0,0.0,0.0,0.0,0.0,0.0,0.0,0.0,0.0,0.0,0.0,0.0,0.0,0.0,0.0,0.0,0.0,0.0,0.0,0.0,0.0,0.0,0.0,0.0,0.0,0.0,0.0,0.0,0.0,0.0,0.0,0.0,0.0,0.0,0.0,0.0,0.0,0.0,0.0,0.0,0.0,0.0,0.0,0.0,0.0,0.0,0.0,0.0,0.0,0.0,0.0,0.0,0.0,0.0,0.0,0.0,0.0,0.0,0.0,0.0,0.0,0.0,0.0,0.0,0.0,0.0,0.0,0.0,0.0,0.0,0.0,0.0,0.0,0.0,0.0,0.0,0.0,0.0,0.0,0.0,0.0,0.0,0.0,0.0,0.0,0.0,0.0,0.0,0.0,0.0,0.0,0.0,0.0,0.0,0.0,0.0,0.0,0.0,0.0,0.0,0.0,0.0,0.0,0.0,0.0,0.0,0.0,0.0,-2.3157,-2.4429,-2.5505,-2.627,-2.4095,-2.3045,-2.3313,0.0,0.0,0.0,0.0,0.0,0.0,0.0,0.0,0.0,0.0,0.0,0.0,0.0,0.0,0.0,0.0,0.0,0.0,0.0,0.0,0.0,0.0,0.0,0.0,0.0,0.0,0.0,0.0,0.0,0.0,0.0,0.0,0.0,0.0,0.0,0.0,0.0,0.0,0.0,0.0,0.0,0.0,0.0,0.0,0.0,0.0,0.0,0.0,0.0,0.0,0.0,0.0,0.0,0.0,0.0,0.0,0.0,0.0,0.0,0.0,0.0,0.0,0.0,0.0,0.0,0.0,0.0,0.0,0.0,0.0,0.0,0.0,0.0,0.0,0.0,0.0,0.0,0.0,0.0,0.0,0.0,0.0,0.0,0.0,0.0,0.0,0.0,0.0,0.0,0.0,0.0,0.0,0.0,0.0,0.0,0.0,0.0,0.0,0.0,0.0,0.0,0.0,0.0,0.0,0.0,0.0,0.0,0.0,-2.5889,-2.6751,-2.6814,-2.5977,-2.5632,-2.3934,0.0,0.0,0.0,0.0,0.0,0.0,0.0,0.0,0.0,0.0,0.0,0.0,0.0,0.0,0.0,0.0,0.0,0.0,0.0,0.0,0.0,0.0,0.0,0.0,0.0,0.0,0.0,0.0,0.0,0.0,0.0,0.0,0.0,0.0,0.0,0.0,0.0,0.0,0.0,0.0,0.0,0.0,0.0,0.0,0.0,0.0,0.0,0.0,0.0,0.0,0.0,0.0,0.0,0.0,0.0,0.0,0.0,0.0,0.0,0.0,0.0,0.0,0.0,0.0,0.0,0.0,0.0,0.0,0.0,0.0,0.0,0.0,0.0,0.0,0.0,0.0,0.0,0.0,0.0,0.0,0.0,0.0,0.0,0.0,0.0,0.0,0.0,0.0,0.0,0.0,0.0,0.0,0.0,0.0,0.0,0.0,0.0,0.0,0.0,0.0,0.0,0.0,0.0,0.0,0.0,0.0,0.0,0.0,0.0,-2.9326,-3.0281,-3.0303,-2.9338,-2.6857,-2.5066,0.0,0.0,0.0,0.0,0.0,0.0,0.0,0.0,0.0,0.0,0.0,0.0,0.0,0.0,0.0,0.0,0.0,0.0,0.0,0.0,0.0,0.0,0.0,0.0,0.0,0.0,0.0,0.0,0.0,0.0,0.0,0.0,0.0,0.0,0.0,0.0,0.0,0.0,0.0,0.0,0.0,0.0,0.0,0.0,0.0,0.0,0.0,0.0,0.0,0.0,0.0,0.0,0.0,0.0,0.0,0.0,0.0,0.0,0.0,0.0,0.0,0.0,0.0,0.0,0.0,0.0,0.0,0.0,0.0,0.0,0.0,0.0,0.0,0.0,0.0,0.0,0.0,0.0,0.0,0.0,0.0,0.0,0.0,0.0,0.0,0.0,0.0,0.0,0.0,0.0,0.0,0.0,0.0,0.0,0.0,0.0,0.0,0.0,0.0,0.0,0.0,0.0,0.0,0.0,0.0,0.0,0.0,0.0,-2.8186,-3.0237,-3.2904,-3.3323,-3.1295,-2.9285,-2.7137,0.0,0.0,0.0,0.0,0.0,0.0,0.0,0.0,0.0,0.0,0.0,0.0,0.0,0.0,0.0,0.0,0.0,0.0,0.0,0.0,0.0,0.0,0.0,0.0,0.0,0.0,0.0,0.0,0.0,0.0,0.0,0.0,0.0,0.0,0.0,0.0,0.0,0.0,0.0,0.0,0.0,0.0,0.0,0.0,0.0,0.0,0.0,0.0,0.0,0.0,0.0,0.0,0.0,0.0,0.0,0.0,0.0,0.0,0.0,0.0,0.0,0.0,0.0,0.0,0.0,0.0,0.0,0.0,0.0,0.0,0.0,0.0,0.0,0.0,0.0,0.0,0.0,0.0,0.0,0.0,0.0,0.0,0.0,0.0,0.0,0.0,0.0,0.0,0.0,0.0,0.0,0.0,0.0,0.0,0.0,0.0,0.0,0.0,0.0,0.0,0.0,0.0,0.0,0.0,0.0,0.0,0.0,0.0,-2.953,-2.9819,-3.462,-3.565,-3.2554,-3.2003,-2.9361,0.0,0.0,0.0,0.0,0.0,0.0,0.0,0.0,0.0,0.0,0.0,0.0,0.0,0.0,0.0,0.0,0.0,0.0,0.0,0.0,0.0,0.0,0.0,0.0,0.0,0.0,0.0,0.0,0.0,0.0,0.0,0.0,0.0,0.0,0.0,0.0,0.0,0.0,0.0,0.0,0.0,0.0,0.0,0.0,0.0,0.0,0.0,0.0,0.0,0.0,0.0,0.0,0.0,0.0,0.0,0.0,0.0,0.0,0.0,0.0,0.0,0.0,0.0,0.0,0.0,0.0,0.0,0.0,0.0,0.0,0.0,0.0,0.0,0.0,0.0,0.0,0.0,0.0,0.0,0.0,0.0,0.0,0.0,0.0,0.0,0.0,0.0,0.0,0.0,0.0,0.0,0.0,0.0,0.0,0.0,0.0,0.0,0.0,0.0,0.0,0.0,0.0,0.0,0.0,0.0,0.0,0.0,0.0,-3.0107,-3.1563,-3.4626,-3.5901,-3.5086,-3.2394,-2.8809,0.0,0.0,0.0,0.0,0.0,0.0,0.0,0.0,0.0,0.0,0.0,0.0,0.0,0.0,0.0,0.0,0.0,0.0,0.0,0.0,0.0,0.0,0.0,0.0,0.0,0.0,0.0,0.0,0.0,0.0,0.0,0.0,0.0,0.0,0.0,0.0,0.0,0.0,0.0,0.0,0.0,0.0,0.0,0.0,0.0,0.0,0.0,0.0,-1.1884,0.0,0.0,0.0,0.0,0.0,0.0,0.0,0.0,0.0,0.0,0.0,0.0,0.0,0.0,0.0,0.0,0.0,0.0,0.0,0.0,0.0,0.0,0.0,0.0,0.0,0.0,0.0,0.0,0.0,0.0,0.0,0.0,0.0,0.0,0.0,0.0,0.0,0.0,0.0,0.0,0.0,0.0,0.0,0.0,0.0,0.0,0.0,0.0,0.0,0.0,0.0,0.0,0.0,0.0,0.0,0.0,0.0,0.0,0.0,-3.0665,-3.2077,-3.5033,-3.5615,-3.3567,-3.2038,-2.959,0.0,0.0,0.0,0.0,0.0,0.0,0.0,0.0,0.0,0.0,0.0,0.0,0.0,0.0,0.0,0.0,0.0,0.0,0.0,0.0,0.0,0.0,0.0,0.0,0.0,0.0,0.0,0.0,0.0,0.0,0.0,0.0,0.0,0.0,0.0,0.0,0.0,0.0,0.0,0.0,0.0,0.0,0.0,0.0,0.0,0.0,0.0,0.0,0.0,0.0,0.0,0.0,0.0,0.0,0.0,0.0,0.0,0.0,0.0,0.0,0.0,0.0,0.0,0.0,0.0,0.0,0.0,0.0,0.0,0.0,0.0,0.0,0.0,0.0,0.0,0.0,0.0,0.0,0.0,0.0,0.0,0.0,0.0,0.0,0.0,0.0,0.0,0.0,0.0,0.0,0.0,0.0,0.0,0.0,0.0,0.0,0.0,0.0,0.0,0.0,0.0,0.0,0.0,0.0,0.0,0.0,0.0,-2.9159,-3.0986,-3.2075,-3.5085,-3.494,-3.1327,-3.1266,-3.0201,-2.7832,0.0,0.0,0.0,0.0,0.0,0.0,0.0,0.0,0.0,0.0,0.0,0.0,0.0,0.0,0.0,0.0,0.0,0.0,0.0,0.0,0.0,0.0,0.0,0.0,0.0,0.0,0.0,0.0,0.0,0.0,0.0,0.0,0.0,0.0,0.0,0.0,0.0,0.0,-1.3189,-1.3259,0.0,0.0,0.0,0.0,0.0,0.0,0.0,0.0,-1.3082,0.0,0.0,0.0,0.0,0.0,0.0,0.0,0.0,0.0,0.0,0.0,0.0,0.0,0.0,0.0,0.0,0.0,0.0,0.0,0.0,0.0,0.0,0.0,0.0,0.0,0.0,0.0,0.0,0.0,0.0,0.0,0.0,0.0,0.0,0.0,0.0,0.0,0.0,0.0,0.0,0.0,0.0,0.0,0.0,0.0,0.0,0.0,0.0,0.0,0.0,0.0,0.0,0.0,0.0,0.0,0.0,-2.5699,-2.829,-3.0412,-3.2064,-3.3356,-3.3689,-3.2926,-3.021,-2.8171,-2.7029,0.0,0.0,0.0,0.0,0.0,0.0,0.0,0.0,0.0,0.0,0.0,0.0,0.0,0.0,0.0,0.0,0.0,0.0,0.0,0.0,0.0,0.0,0.0,0.0,0.0,0.0,0.0,0.0,0.0,0.0,0.0,0.0,0.0,0.0,0.0,0.0,0.0,0.0,0.0,-1.2035,-1.2436,0.0,0.0,0.0,0.0,0.0,0.0,0.0,0.0,-1.2735,0.0,0.0,0.0,0.0,0.0,0.0,0.0,0.0,0.0,0.0,0.0,0.0,0.0,0.0,0.0,0.0,0.0,0.0,0.0,0.0,0.0,0.0,0.0,0.0,0.0,0.0,0.0,0.0,0.0,0.0,0.0,0.0,0.0,0.0,0.0,0.0,0.0,0.0,0.0,0.0,0.0,0.0,0.0,0.0,0.0,0.0,0.0,0.0,0.0,0.0,0.0,0.0,0.0,0.0,0.0,-2.7349,-2.7867,-2.9365,-3.1948,-3.2043,-3.162,-3.0742,-2.8188,-2.659,0.0,0.0,0.0,0.0,0.0,0.0,0.0,0.0,0.0,0.0,0.0,0.0,0.0,0.0,0.0,0.0,0.0,0.0,0.0,0.0,0.0,0.0,0.0,0.0,0.0,0.0,0.0,0.0,0.0,0.0,0.0,0.0,0.0,0.0,0.0,0.0,0.0,0.0,0.0,0.0,-1.3021,-1.2777,-1.2358,0.0,0.0,0.0,0.0,0.0,0.0,-1.3541,-1.361,0.0,0.0,0.0,0.0,0.0,0.0,0.0,0.0,0.0,0.0,0.0,0.0,0.0,0.0,0.0,0.0,0.0,0.0,0.0,0.0,0.0,0.0,0.0,0.0,0.0,0.0,0.0,0.0,0.0,0.0,0.0,0.0,0.0,0.0,0.0,0.0,0.0,0.0,0.0,0.0,0.0,0.0,0.0,0.0,0.0,0.0,0.0,0.0,0.0,0.0,0.0,0.0,0.0,0.0,0.0,-2.8352,-2.7362,-2.8201,-3.1047,-3.0593,-2.9614,-2.8267,-2.6517,-2.5529,0.0,0.0,0.0,0.0,0.0,0.0,0.0,0.0,0.0,0.0,0.0,0.0,0.0,0.0,0.0,0.0,0.0,0.0,0.0,0.0,0.0,0.0,0.0,0.0,0.0,0.0,0.0,0.0,0.0,0.0,0.0,0.0,0.0,0.0,0.0,0.0,0.0,0.0,0.0,0.0,0.0,-1.3603,-1.2919,-1.2662,0.0,0.0,0.0,0.0,-1.4489,-1.4492,0.0,0.0,0.0,0.0,0.0,0.0,0.0,0.0,0.0,0.0,0.0,0.0,0.0,0.0,0.0,0.0,0.0,0.0,0.0,0.0,0.0,0.0,0.0,0.0,0.0,0.0,0.0,0.0,0.0,0.0,0.0,0.0,0.0,0.0,0.0,0.0,0.0,0.0,0.0,0.0,0.0,0.0,0.0,0.0,0.0,0.0,0.0,0.0,0.0,0.0,0.0,0.0,0.0,0.0,0.0,0.0,-2.5851,-2.6424,-2.7309,-2.8462,-2.8471,-2.8318,-2.8104,-2.6369,-2.5425,0.0,0.0,0.0,0.0,0.0,0.0,0.0,0.0,0.0,0.0,0.0,0.0,0.0,0.0,0.0,0.0,0.0,0.0,0.0,0.0,0.0,0.0,0.0,0.0,0.0,0.0,0.0,0.0,0.0,0.0,0.0,0.0,0.0,0.0,0.0,0.0,0.0,0.0,0.0,0.0,0.0,-1.4724,-1.4611,-1.3872,-1.3658,0.0,0.0,-1.3759,-1.4484,-1.4474,0.0,0.0,0.0,0.0,0.0,0.0,0.0,0.0,0.0,0.0,0.0,0.0,0.0,0.0,0.0,0.0,0.0,0.0,0.0,0.0,0.0,0.0,0.0,0.0,0.0,0.0,0.0,0.0,0.0,0.0,0.0,0.0,0.0,0.0,0.0,0.0,0.0,0.0,0.0,0.0,0.0,0.0,0.0,0.0,0.0,0.0,0.0,0.0,0.0,0.0,0.0,0.0,0.0,0.0,0.0,-2.5274,-2.6742,-2.6736,-2.7365,-2.8652,-2.8323,-2.7861,-2.7362,-2.4238,-2.3456,0.0,0.0,0.0,0.0,0.0,0.0,0.0,0.0,0.0,0.0,0.0,0.0,0.0,0.0,0.0,0.0,0.0,0.0,0.0,0.0,0.0,0.0,0.0,0.0,0.0,0.0,0.0,0.0,0.0,0.0,0.0,0.0,0.0,0.0,0.0,0.0,0.0,0.0,0.0,0.0,0.0,0.0,-1.4952,-1.4509,0.0,0.0,0.0,-1.441,-1.506,0.0,0.0,0.0,0.0,0.0,0.0,0.0,0.0,0.0,0.0,0.0,0.0,0.0,0.0,0.0,0.0,0.0,0.0,0.0,0.0,0.0,0.0,0.0,0.0,0.0,0.0,0.0,0.0,0.0,0.0,0.0,0.0,0.0,0.0,0.0,0.0,0.0,0.0,0.0,0.0,0.0,0.0,0.0,0.0,0.0,0.0,0.0,0.0,0.0,0.0,0.0,0.0,0.0,0.0,0.0,0.0,0.0,-2.7184,-2.6886,-2.7192,-2.8168,-2.79,-2.7202,-2.6087,-2.2804,0.0,0.0,0.0,0.0,0.0,0.0,0.0,0.0,0.0,0.0,0.0,0.0,0.0,0.0,0.0,0.0,0.0,0.0,0.0,0.0,0.0,0.0,0.0,0.0,0.0,0.0,0.0,-1.6404,0.0,0.0,0.0,0.0,0.0,0.0,0.0,0.0,0.0,0.0,0.0,0.0,0.0,0.0,-1.5821,-1.5654,-1.5292,-1.4749,0.0,0.0,-1.4844,-1.5264,-1.4934,-1.5068,0.0,0.0,0.0,0.0,0.0,0.0,0.0,0.0,0.0,0.0,0.0,0.0,0.0,0.0,0.0,0.0,0.0,0.0,0.0,0.0,0.0,0.0,0.0,0.0,0.0,0.0,0.0,0.0,0.0,0.0,0.0,0.0,0.0,0.0,0.0,0.0,0.0,0.0,0.0,0.0,0.0,0.0,0.0,0.0,0.0,0.0,0.0,0.0,0.0,0.0,0.0,0.0,0.0,0.0,0.0,-2.55,-2.6222,-2.6284,-2.5649,-2.6309,-2.5914,-2.4321,-2.3219,-2.3099,0.0,0.0,0.0,0.0,0.0,0.0,0.0,0.0,0.0,0.0,0.0,0.0,0.0,0.0,0.0,0.0,0.0,0.0,0.0,0.0,0.0,0.0,0.0,0.0,0.0,0.0,0.0,0.0,0.0,0.0,0.0,0.0,0.0,0.0,0.0,0.0,0.0,0.0,0.0,0.0,0.0,-1.8306,-1.7449,-1.6583,-1.5691,0.0,0.0,-1.4664,-1.4597,-1.5135,-1.5724,-1.6394,0.0,0.0,0.0,0.0,0.0,0.0,0.0,0.0,0.0,0.0,0.0,0.0,0.0,0.0,0.0,0.0,0.0,0.0,0.0,0.0,0.0,0.0,0.0,0.0,0.0,0.0,0.0,0.0,0.0,0.0,0.0,0.0,0.0,0.0,0.0,0.0,0.0,0.0,0.0,0.0,0.0,0.0,0.0,0.0,0.0,0.0,0.0,0.0,0.0,0.0,0.0,0.0,0.0,-2.5846,-2.689,-2.6692,-2.6692,-2.6871,-2.6717,-2.5793,-2.4144,-2.2759,-2.2408,0.0,0.0,0.0,0.0,0.0,0.0,0.0,0.0,0.0,0.0,0.0,0.0,0.0,0.0,0.0,0.0,0.0,0.0,0.0,0.0,0.0,0.0,0.0,0.0,0.0,0.0,0.0,0.0,-1.9128,-1.9176,-2.0024,0.0,0.0,0.0,0.0,0.0,0.0,0.0,0.0,0.0,0.0,-1.8133,-1.8211,-1.7482,0.0,0.0,-1.6285,-1.6263,-1.6198,-1.6398,-1.6601,-1.661,-1.6899,0.0,0.0,0.0,0.0,0.0,0.0,0.0,0.0,0.0,0.0,0.0,0.0,0.0,0.0,0.0,0.0,0.0,0.0,0.0,0.0,0.0,0.0,0.0,0.0,0.0,0.0,0.0,0.0,0.0,0.0,0.0,0.0,0.0,0.0,0.0,0.0,0.0,0.0,0.0,0.0,0.0,0.0,0.0,0.0,0.0,0.0,0.0,0.0,0.0,0.0,0.0,0.0,-2.6038,-2.7486,-2.689,-2.689,-2.7511,-2.6909,-2.5678,-2.3783,-2.2528,-2.2066,0.0,0.0,0.0,0.0,0.0,0.0,0.0,0.0,0.0,0.0,0.0,0.0,0.0,0.0,0.0,0.0,0.0,0.0,0.0,0.0,0.0,0.0,0.0,0.0,0.0,0.0,0.0,0.0,-2.0275,-2.051,-2.2267,0.0,0.0,0.0,0.0,0.0,0.0,0.0,0.0,0.0,0.0,-1.8485,-1.8692,-1.8417,-1.8019,-1.7616,-1.7822,-1.7973,-1.7832,-1.764,-1.751,-1.7387,0.0,0.0,0.0,0.0,0.0,0.0,0.0,0.0,0.0,0.0,0.0,0.0,0.0,0.0,0.0,0.0,0.0,0.0,0.0,0.0,0.0,0.0,0.0,0.0,0.0,0.0,0.0,-3.1622,0.0,0.0,-2.9836,0.0,0.0,0.0,0.0,0.0,0.0,0.0,0.0,0.0,0.0,0.0,0.0,0.0,0.0,0.0,0.0,0.0,0.0,0.0,0.0,0.0,0.0,-2.575,-2.6621,-2.6621,-2.6601,-2.664,-2.6601,-2.539,-2.299,-2.2778,-2.2393,-2.1581,0.0,0.0,0.0,0.0,0.0,0.0,0.0,0.0,0.0,0.0,0.0,0.0,0.0,0.0,0.0,0.0,0.0,0.0,0.0,0.0,0.0,0.0,0.0,0.0,0.0,0.0,-2.1539,-2.1949,-2.2406,0.0,0.0,0.0,0.0,0.0,0.0,0.0,0.0,0.0,0.0,-2.0257,-1.9881,-1.8941,-1.9431,-1.9478,-1.8521,-1.907,-1.9501,-1.9162,-1.8665,-1.8421,0.0,0.0,0.0,0.0,0.0,0.0,0.0,0.0,0.0,0.0,0.0,0.0,0.0,0.0,0.0,0.0,0.0,0.0,0.0,0.0,0.0,0.0,0.0,0.0,0.0,0.0,0.0,-3.4352,-3.4103,0.0,0.0,0.0,0.0,0.0,0.0,0.0,0.0,0.0,0.0,0.0,-3.1218,-3.1226,0.0,0.0,0.0,0.0,0.0,0.0,0.0,0.0,0.0,0.0,0.0,0.0,-2.6582,-2.7371,-2.6327,-2.6019,-2.6582,-2.6043,-2.5082,-2.3706,-2.3105,-2.2389,-2.1538,0.0,0.0,0.0,0.0,0.0,0.0,0.0,0.0,0.0,0.0,0.0,0.0,0.0,0.0,0.0,0.0,0.0,0.0,0.0,0.0,0.0,0.0,0.0,0.0,0.0,-1.9982,0.0,0.0,0.0,0.0,0.0,0.0,0.0,0.0,0.0,0.0,0.0,-2.1263,-2.0411,-2.0207,-2.0002,-1.9582,-1.9246,-1.9103,0.0,0.0,0.0,0.0,0.0,0.0,0.0,0.0,0.0,0.0,0.0,0.0,0.0,0.0,-1.8914,-1.8253,-1.775,-1.7407,-1.7399,0.0,0.0,0.0,0.0,0.0,0.0,0.0,0.0,0.0,0.0,0.0,0.0,0.0,0.0,-3.6519,0.0,-3.6139,0.0,0.0,0.0,0.0,0.0,0.0,0.0,0.0,-3.255,-3.3312,-3.3353,-3.3365,-3.364,0.0,-3.218,-3.0257,0.0,0.0,0.0,0.0,0.0,0.0,0.0,0.0,-2.689,-2.7351,-2.6038,-2.5731,-2.65,-2.575,-2.4918,-2.4072,-2.2953,-2.1957,-2.1115,-2.135,-2.1823,0.0,0.0,0.0,0.0,0.0,0.0,0.0,0.0,0.0,0.0,0.0,0.0,0.0,0.0,0.0,0.0,0.0,0.0,0.0,0.0,0.0,0.0,0.0,-2.1329,0.0,0.0,0.0,0.0,0.0,0.0,0.0,0.0,0.0,-2.3006,-2.2119,-2.1286,-2.04,-2.0169,-2.0046,-1.9952,0.0,0.0,0.0,0.0,0.0,0.0,0.0,-2.0654,-1.9469,-1.963,-1.9684,-1.8959,-1.886,-1.8887,-1.8983,0.0,0.0,-1.8185,-1.7511,-1.6972,-1.6982,-1.6556,-1.6197,-1.6248,-1.6055,-1.593,0.0,0.0,0.0,0.0,0.0,0.0,0.0,0.0,-3.8482,-3.901,0.0,-3.7899,0.0,0.0,0.0,0.0,0.0,-3.4227,0.0,0.0,-3.5189,-3.5888,-3.4449,-3.4423,-3.4391,-3.4449,-3.5042,-3.4023,-3.152,-2.7561,0.0,0.0,0.0,0.0,0.0,0.0,-2.6621,-2.6601,-2.5788,-2.575,-2.6486,-2.5731,-2.4894,-2.402,-2.2464,-2.1248,-2.0442,-2.1158,-2.1696,-2.2038,-2.3355,0.0,0.0,0.0,0.0,0.0,0.0,0.0,0.0,0.0,0.0,0.0,0.0,0.0,0.0,0.0,0.0,0.0,0.0,0.0,0.0,-2.3245,0.0,0.0,0.0,0.0,0.0,0.0,0.0,0.0,0.0,0.0,-2.3077,-2.2153,-2.1344,-2.0515,0.0,0.0,0.0,0.0,-2.1023,-2.0896,-2.2245,-2.2845,-2.1743,-2.17,-2.1387,-2.0172,0.0,0.0,-1.8932,-1.8851,-1.8797,-1.8797,-1.8217,-1.7955,-1.8886,-1.8316,-1.7736,-1.7604,-1.6463,-1.5512,-1.5385,-1.5118,-1.4715,-4.2432,0.0,0.0,0.0,0.0,-4.068,-4.1924,-4.3522,-4.2632,-4.2193,-4.202,-4.0711,0.0,0.0,0.0,0.0,0.0,0.0,-3.5262,-3.5254,-3.6725,-3.7518,-3.769,-3.7685,-3.8019,-3.8542,-3.6378,-3.4652,-3.3304,-3.0919,-2.925,-2.8324,0.0,0.0,0.0,0.0,-2.7217,-2.6621,-2.6351,-2.6038,-2.5673,-2.5423,-2.487,-2.402,-2.354,-2.2618,-2.121,-2.1977,-2.2466,-2.2605,-2.3552,0.0,0.0,0.0,0.0,0.0,0.0,0.0,0.0,0.0,0.0,0.0,0.0,0.0,0.0,0.0,0.0,0.0,0.0,0.0,-2.4648,-2.268,-2.2097,0.0,0.0,0.0,0.0,0.0,0.0,0.0,0.0,0.0,-2.3792,-2.2977,-2.2361,0.0,0.0,-2.0169,-2.0769,-2.0885,-2.0865,-2.0834,-2.1175,0.0,-2.1471,-2.1025,-2.049,-1.9937,-1.9334,-1.8896,-1.8833,-1.8806,-1.8797,-1.8797,-1.861,-1.8556,-1.8726,-1.7757,-1.6942,-1.6783,-1.6468,-1.6,-1.5533,-1.5663,-1.5642,-4.6523,-4.2859,-4.2449,-4.2393,-4.2623,-4.3273,-4.442,-4.5797,-4.4887,-4.48,-4.5163,-4.331,-4.1285,-3.9181,-3.7868,0.0,0.0,0.0,-3.7587,-3.8137,-3.8901,-3.9552,-4.0091,-4.0132,-4.0227,-4.0273,-3.7964,-3.6393,-3.5523,-3.3844,-3.2144,-3.0489,0.0,0.0,-2.834,-2.836,-2.7799,-2.6654,-2.6621,-2.6173,-2.5331,-2.5273,-2.4873,-2.4038,-2.399,-2.3338,-2.2043,-2.2484,-2.2771,-2.2816,-2.3615,-2.4423,0.0,0.0,0.0,0.0,0.0,0.0,0.0,0.0,0.0,0.0,0.0,-2.3947,-2.4025,0.0,0.0,0.0,-2.4817,-2.5093,-2.3724,-2.2873,0.0,0.0,0.0,0.0,0.0,0.0,0.0,-2.5399,-2.4919,-2.4562,-2.4567,-2.385,-2.3199,-2.2829,-2.1692,-2.096,-2.1164,0.0,-2.0808,-2.0808,-2.1007,-2.122,-2.1443,-2.1361,-2.0941,-2.0016,-1.9276,-1.8815,-1.8797,-1.8797,-1.8797,-1.8797,-1.8797,-1.8797,-1.8797,-1.7977,-1.7236,-1.6983,-1.6679,-1.632,-1.5895,-1.6283,-1.6349,-4.9987,-4.7947,-4.6291,-4.5091,-4.4433,-4.6012,-4.671,-4.6653,-4.5938,-4.6844,-4.8621,-4.5507,-4.4437,-4.4791,-4.1791,0.0,-3.9352,-4.0126,-4.0546,-4.0696,-4.1388,-4.178,-4.1883,-4.1749,-4.1308,-4.0571,-3.9574,-3.8657,-3.7704,-3.6147,-3.4504,-3.2821,-3.1333,-3.01,-2.9146,-2.9079,-2.8269,-2.661,-2.6668,-2.6254,-2.5325,-2.5239,-2.484,-2.4109,-2.403,-2.3623,-2.2834,-2.2877,-2.2887,-2.2923,-2.3669,-2.4427,-2.514,0.0,0.0,0.0,0.0,0.0,0.0,0.0,0.0,0.0,0.0,0.0,0.0,0.0,0.0,0.0,-2.4537,0.0,-2.1179,-2.357,0.0,0.0,0.0,-2.5425,-2.5489,-2.5363,-2.5322,-2.539,0.0,0.0,-2.5308,-2.4663,-2.3903,-2.3093,-2.2672,-2.2166,-2.1491,-2.1227,-2.0994,-2.1105,-2.1609,-2.1994,-2.1945,-2.2208,-2.1849,-2.0247,-1.9341,-1.8815,-1.8797,-1.8797,-1.8797,-1.8797,-1.8797,-1.8797,-1.8797,-1.8726,-1.8565,-1.7816,-1.7155,-1.6645,-1.6606,-1.6815,-1.6932,-5.1639,-5.1934,-4.9395,-4.7637,-4.6631,-4.793,-4.8487,-4.846,-4.8288,-4.7799,-4.7035,-4.5621,-4.4036,-4.2354,-4.1571,-4.1457,-4.1906,-4.2126,-4.2546,-4.31,-4.2699,-4.2852,-4.3378,-4.2145,-4.1781,-4.2078,-4.0032,-3.8597,-3.7781,-3.6736,-3.5358,-3.3754,-3.3365,-3.1788,-2.9136,-2.9027,-2.8201,-2.6551,-2.7184,-2.6762,-2.528,-2.5209,-2.5116,-2.4936,-2.4908,-2.4481,-2.3656,-2.4297,-2.4374,-2.377,-2.4533,-2.5065,-2.5192,-2.5756,0.0,0.0,0.0,0.0,0.0,0.0,0.0,0.0,0.0,-2.5489,-2.5604,0.0,-2.543,0.0,-2.3761,-2.3389,-2.4368,-2.3995,0.0,0.0,-2.5521,-2.5444,-2.5425,-2.5363,-2.5298,-2.5322,-2.5303,-2.5308,-2.5308,-2.5135,-2.4947,-2.4697,-2.3362,-2.2577,-2.2993,-2.2846,-2.2627,-2.2574,-2.2578,-2.2804,-2.3185,-2.2289,-2.1191,-2.0164,-1.9341,-1.8815,-1.8797,-1.8797,-1.8797,-1.8797,-1.8797,-1.8797,-1.8797,-1.8797,-1.8761,-1.8547,-1.836,-1.8039,-1.7485,-1.7866,-1.8033,-5.2215,-5.2235,-5.0781,-4.9329,-4.8047,-4.9003,-4.9409,-4.9422,-4.9568,-4.8888,-4.7589,-4.6385,-4.4838,-4.3224,-4.3176,-4.3473,-4.3902,-4.3921,-4.415,-4.4551,-4.4112,-4.3959,-4.3949,-4.2698,-4.2154,-4.2193,-4.0434,-3.9163,-3.8355,-3.7477,-3.6187,-3.4534,-3.3838,-3.2357,-3.0219,-3.0145,-2.9321,-2.7654,-2.6958,-2.6173,-2.5253,-2.5212,-2.5392,-2.5767,-2.5401,-2.5165,-2.5067,-2.5173,-2.5255,-2.5291,-2.5674,-2.592,-2.599,-2.5907,-2.4296,0.0,0.0,0.0,0.0,0.0,0.0,0.0,0.0,0.0,0.0,0.0,-2.5641,-2.5586,-2.3733,-2.3415,-2.549,-2.4778,-2.4549,-2.5454,-2.5498,-2.5425,-2.5361,-2.5322,-2.5308,-2.5308,-2.5308,-2.5308,-2.5308,-2.5308,-2.5308,-2.5288,-2.4278,-2.3537,-2.3613,-2.342,-2.3194,-2.3188,-2.3067,-2.3198,-2.3868,-2.261,-2.1313,-2.0588,-1.9841,-1.9225,-1.8886,-1.8797,-1.8797,-1.8797,-1.8797,-1.8797,-1.8797,-1.8797,-1.8797,-1.8797,-1.8797,-1.8619,-1.8235,-1.8503,-1.8538,-5.2254,-5.1012,-5.1064,-5.0267,-4.8998,-4.9461,-4.9716,-4.983,-5.012,-4.9744,-4.8842,-4.7092,-4.5965,-4.5297,-4.5277,-4.5277,-4.5277,-4.5277,-4.5277,-4.5277,-4.5277,-4.4819,-4.3968,-4.3176,-4.2374,-4.1552,-4.0596,-3.9717,-3.891,-3.8014,-3.6746,-3.519,-3.3757,-3.2688,-3.2,-3.1828,-3.0829,-2.9002,-2.6782,-2.566,-2.5679,-2.5585,-2.5891,-2.6572,-2.5704,-2.5551,-2.6272,-2.5611,-2.5655,-2.6596,-2.6507,-2.6529,-2.6743,-2.5943,-2.539,0.0,-2.5414,0.0,0.0,0.0,0.0,0.0,0.0,0.0,0.0,-2.5675,-2.5687,-2.5687,-2.428,-2.4,-2.5544,-2.5587,-2.551,-2.5501,-2.5436,-2.5378,-2.5317,-2.5298,-2.5308,-2.5308,-2.5308,-2.5308,-2.5308,-2.5308,-2.5303,-2.5253,-2.4985,-2.4542,-2.3971,-2.3615,-2.3419,-2.3339,-2.3296,-2.3409,-2.3581,-2.2744,-2.1682,-2.112,-2.0277,-1.9617,-1.8931,-1.8797,-1.8797,-1.8797,-1.8797,-1.8797,-1.8797,-1.8797,-1.8797,-1.8797,-1.8797,-1.8797,-1.8744,-1.8761,-1.8833,-5.2218,-5.2028,-5.0542,-4.9898,-4.9816,-4.923,-4.9302,-4.9803,-4.987,-4.9213,-4.7922,-4.6271,-4.543,-4.5297,-4.5277,-4.5277,-4.5277,-4.5277,-4.5277,-4.5277,-4.5277,-4.4838,-4.3987,-4.3176,-4.2345,-4.1466,-3.9986,-3.881,-3.7959,-3.7143,-3.6206,-3.5209,-3.4936,-3.4706,-3.4445,0.0,0.0,0.0,-2.8447,-2.8211,-2.8179,-2.7568,-2.7307,-2.744,-2.5998,0.0,-2.5426,-2.5302,-2.5283,-2.549,-2.548,0.0,0.0,0.0,0.0,0.0,0.0,0.0,0.0,0.0,0.0,0.0,-2.666,-2.6287,-2.5726,-2.5702,-2.5687,-2.5687,-2.5371,-2.5303,-2.5575,-2.5611,-2.5561,-2.5504,-2.5425,-2.5386,-2.5382,-2.534,-2.5308,-2.5308,-2.5308,-2.5308,-2.5308,-2.5308,-2.5259,-2.5154,-2.5013,-2.4797,-2.4467,-2.4251,-2.4162,-2.4081,-2.3774,-2.3544,-2.3422,-2.2236,-2.1355,-2.0866,-1.9872,-1.9073,-1.8851,-1.8797,-1.8797,-1.8797,-1.8797,-1.8797,-1.8797,-1.8797,-1.8797,-1.8797,-1.8797,-1.8797,-1.8797,-1.8797,-1.8815,-5.223,0.0,-5.0608,-4.9819,0.0,-4.8735,-4.859,-4.8747,-4.9074,-4.8428,-4.7081,-4.5831,-4.5277,-4.5277,-4.5277,-4.5277,-4.5277,-4.5277,-4.5277,-4.5277,-4.5277,-4.5078,-4.4628,-4.3768,-4.2957,-4.2107,-4.0845,-3.9603,-3.8406,-3.7938,-3.7298,-3.6432,-3.5646,-3.5226,-3.5125,-3.3119,-3.1018,-2.8936,-2.8504,-2.8313,-2.8287,-2.7905,-2.7708,-2.7669,-2.6502,0.0,0.0,0.0,0.0,0.0,0.0,0.0,0.0,-2.7284,0.0,-2.6525,-2.7259,-2.775,-2.7781,-2.7813,-2.7874,-2.7926,-2.7221,-2.647,-2.5768,-2.5697,-2.5699,-2.5699,-2.5669,-2.5634,-2.5609,-2.5564,-2.5526,-2.5443,-2.5406,-2.5342,-2.5359,-2.5308,-2.5293,-2.5303,-2.5308,-2.5308,-2.5308,-2.5308,-2.5243,-2.5121,-2.4975,-2.4806,-2.4615,-2.4471,-2.4376,-2.4238,-2.385,-2.3522,-2.3403,-2.2728,-2.1706,-2.1096,-2.0403,-1.9679,-1.8922,-1.8797,-1.8797,-1.8797,-1.8797,-1.8797,-1.8797,-1.8797,-1.8797,-1.8797,-1.8797,-1.8797,-1.8797,-1.8797,-1.8797,-5.227,-5.082,-5.082,-4.9829,-4.8324,-4.8324,-4.7942,-4.7434,0.0,0.0,0.0,-4.563,-4.5277,-4.5277,-4.5277,-4.5277,-4.5277,-4.5277,-4.5277,-4.5277,-4.5277,-4.5211,-4.5029,-4.4331,-4.3597,-4.2776,-4.1925,-4.074,-3.9341,-3.9106,-3.8553,-3.7655,-3.6317,-3.5488,-3.5095,-3.2967,-3.1018,-2.9433,-2.8714,-2.837,-2.837,-2.8217,-2.8135,-2.8128,-2.7057,-2.6483,-2.6483,-2.5644,-2.5592,-2.6444,-2.7157,-2.7635,-2.7782,-2.8409,-2.8447,-2.7771,-2.7854,-2.8179,-2.8721,-2.8437,-2.8481,-2.9093,-2.7842,-2.6714,-2.5978,-2.5786,-2.5689,-2.5689,-2.5642,-2.5595,-2.5595,-2.5508,-2.5421,-2.5361,-2.5311,-2.5283,-2.5284,-2.5302,-2.5297,-2.5288,-2.5279,-2.5308,-2.5303,-2.5303,-2.5238,-2.5078,-2.4949,-2.4752,-2.4505,-2.4374,-2.4312,-2.4201,-2.3777,-2.3437,-2.3459,-2.3041,-2.2388,-2.1159,-2.0869,-2.0364,-1.9243,-1.8797,-1.8797,-1.8797,-1.8797,-1.8797,-1.8797,-1.8797,-1.8797,-1.8797,-1.8797,-1.8797,-1.8797,-1.8797,-1.8797,-5.227,-5.082,-5.082,-4.9829,-4.8324,-4.8324,-4.7629,-4.6583,-4.6482,-4.6335,-4.6118,-4.5546,-4.5277,-4.5277,-4.5277,-4.5277,-4.5277,-4.5277,-4.5277,-4.5277,-4.5277,-4.4895,-4.4197,-4.4064,-4.3577,-4.2766,-4.1915,-4.1036,-4.0119,-3.9374,-3.8553,-3.7808,-3.7445,-3.6623,-3.5229,-3.414,-3.2802,-3.1171,-3.1006,-3.0968,-3.0949,-3.0223,-2.9841,-2.9752,-2.7619,-2.6408,-2.6389,-2.5656,-2.5579,-2.6357,-2.6529,-2.6931,-2.7657,-2.7867,-2.7822,-2.7746,-2.8403,-2.8549,-2.7994,-2.9168,-2.975,-2.9278,-2.8434,-2.7601,-2.6872,-2.6137,-2.5689,-2.5707,-2.5712,-2.5593,-2.5515,-2.5449,-2.5394,-2.5259,-2.5236,-2.5206,-2.5222,-2.5276,-2.5282,-2.5228,-2.5283,-2.5298,-2.5283,-2.5293,-2.5192,-2.4981,-2.4849,-2.4659,-2.4346,-2.4219,-2.4218,-2.4151,-2.3764,-2.3448,-2.3333,-2.2535,-2.1791,-2.0966,-2.046,-1.999,-1.9161,-1.893,-1.8904,-1.8833,-1.8833,-1.8797,-1.8797,-1.8797,-1.8797,-1.8797,-1.8797,-1.8797,-1.8797,-1.8797,-1.8797,-5.2527,-5.1444,-5.1004,-5.0105,-4.8912,-4.7572,-4.6673,-4.6057,-4.5294,-4.5117,-4.535,-4.514,-4.5121,-4.5277,-4.5277,-4.5277,-4.5277,-4.5277,-4.5277,-4.5277,-4.5277,-4.5086,-4.4743,-4.4704,-4.4265,-4.3463,-4.3061,-4.2431,-4.1667,-4.1246,-4.0616,-3.9727,-3.84,-3.7101,-3.5916,-3.4655,-3.3375,-3.2183,-3.1687,-3.1236,-3.0796,-3.0414,-2.9994,-2.9516,-2.8306,-2.7549,-2.7128,-2.6746,-2.6727,-2.709,-2.7523,-2.7943,-2.8325,-2.879,-2.9058,-2.9077,-2.9422,-2.9486,-2.9097,-2.9805,-3.0139,-2.9852,-2.9081,-2.8526,-2.822,-2.7493,-2.7028,-2.7002,-2.6953,-2.6655,-2.6135,-2.6381,-2.6244,-2.5272,-2.5564,-2.566,-2.5297,-2.5231,-2.525,-2.5212,-2.5233,-2.5243,-2.5252,-2.5238,-2.5149,-2.4915,-2.4716,-2.4459,-2.422,-2.42,-2.4151,-2.3986,-2.3649,-2.3387,-2.3254,-2.2767,-2.2073,-2.1412,-2.118,-2.0753,-2.0116,-1.9729,-1.9475,-1.9413,-1.9136,-1.8833,-1.8797,-1.8797,-1.8797,-1.8797,-1.8797,-1.8797,-1.8797,-1.8797,-1.8797,-5.2729,-5.1942,-5.1132,-5.0215,-4.9114,-4.7058,-4.6159,-4.603,-4.4761,-4.4442,-4.4849,-4.4833,-4.4946,-4.5184,-4.5275,-4.5277,-4.5277,-4.5277,-4.5277,-4.5277,-4.5277,-4.5277,-4.5277,-4.5277,-4.4953,-4.4312,-4.4083,-4.3682,-4.3109,-4.2889,-4.2469,-4.159,-3.9431,-3.798,-3.734,-3.5496,-3.414,-3.3272,-3.242,-3.1484,-3.051,-3.0472,-3.0185,-2.9529,-2.9082,-2.8612,-2.802,-2.7797,-2.7797,-2.7981,-2.8567,-2.8968,-2.9223,-2.9822,-3.0204,-3.0204,-3.0204,-3.0204,-3.0204,-3.0204,-3.0227,-3.0296,-2.9733,-2.9399,-2.9424,-2.9022,-2.8504,-2.8138,-2.7923,-2.7571,-2.6996,-2.7296,-2.7178,-2.596,-2.6096,-2.6115,-2.56,-2.5313,-2.5217,-2.5215,-2.5201,-2.5212,-2.5201,-2.5165,-2.5037,-2.4797,-2.4495,-2.4275,-2.421,-2.419,-2.4084,-2.3774,-2.3533,-2.3347,-2.3139,-2.294,-2.2498,-2.1821,-2.1826,-2.1513,-2.0972,-2.0375,-1.9978,-1.9809,-1.9406,-1.8971,-1.8794,-1.8909,-1.8928,-1.8867,-1.8797,-1.8797,-1.8797,-1.8797,-1.8797,-5.2729,-5.1922,-5.1169,-4.9866,-4.8434,-4.7388,-4.6966,-4.6783,-4.5332,-4.4821,-4.5131,-4.4912,-4.4819,-4.4898,-4.5173,-4.5267,-4.5277,-4.5277,-4.5277,-4.5277,-4.5277,-4.5277,-4.5277,-4.5277,-4.5269,-4.5048,-4.4407,-4.4006,-4.3854,-4.3166,-4.2775,-4.2488,-4.0922,-3.9938,-3.9632,-3.7455,-3.5812,-3.4972,-3.4159,-3.2955,-3.1408,-3.135,-3.135,-3.1274,-2.972,-2.8872,-2.8784,-2.8077,-2.8039,-2.8701,-2.886,-2.928,-2.9975,-3.0173,-3.0223,-3.0261,-3.0249,-3.0204,-3.0223,-3.0204,-3.0266,-3.029,-3.0219,-3.0213,-3.0361,-3.0297,-2.9586,-2.8448,-2.7928,-2.7881,-2.7682,-2.7751,-2.7708,-2.7307,-2.6848,-2.637,-2.6262,-2.5635,-2.5201,-2.5203,-2.5299,-2.5201,-2.5212,-2.5099,-2.4902,-2.4599,-2.4383,-2.4219,-2.42,-2.4199,-2.4006,-2.3599,-2.3403,-2.3306,-2.3114,-2.2881,-2.2492,-2.1878,-2.1753,-2.1645,-2.122,-2.0545,-1.9813,-2.01,-1.9672,-1.9352,-1.9022,-1.8997,-1.9364,-1.9025,-1.8886,-1.8797,-1.8797,-1.8797,-1.8797,-5.3023,-5.2656,-5.1848,-5.0563,-4.9003,-4.7663,-4.7094,-4.6966,-4.5902,-4.5496,-4.5558,-4.5195,-4.4949,-4.4807,-4.4927,-4.5129,-4.5277,-4.5277,-4.5277,-4.5277,-4.5277,-4.5277,-4.5277,-4.5277,-4.5277,-4.5277,-4.4914,-4.4762,-4.4628,-4.3921,-4.352,-4.3271,-4.1371,-4.032,-4.011,-3.778,-3.608,-3.522,-3.4866,-3.412,-3.3032,-3.2458,-3.1992,-3.1484,-3.0796,-3.0185,-2.9707,-2.9344,-2.9344,-2.965,-2.9688,-3.007,-3.093,-3.0968,-3.1197,-3.161,-3.1668,-3.1446,-3.0942,-3.0904,-3.0913,-3.0949,-3.0496,-3.0471,-3.0996,-3.0624,-3.0176,-3.0048,-2.9567,-2.9081,-2.8587,-2.8874,-2.879,-2.7969,-2.7752,-2.7695,-2.7205,-2.6873,-2.651,-2.6032,-2.591,-2.5711,-2.5281,-2.4968,-2.4727,-2.4485,-2.4293,-2.421,-2.4199,-2.4199,-2.3958,-2.3544,-2.341,-2.3236,-2.2947,-2.279,-2.2565,-2.2397,-2.2369,-2.229,-2.2053,-2.1447,-2.0905,-2.0767,-2.0333,-1.9986,-1.9753,-1.9856,-2.0093,-1.957,-1.8983,-1.8797,-1.8797,-1.8797,-1.8797,-5.3185,-5.302,-5.2105,-5.0857,-4.95,-4.8049,-4.7424,-4.7314,-4.6581,-4.6232,-4.6177,-4.5632,-4.5348,-4.5211,-4.4941,-4.506,-4.5448,-4.5371,-4.5564,-4.587,-4.5545,-4.5411,-4.5583,-4.5383,-4.5277,-4.5277,-4.5277,-4.5277,-4.522,-4.4704,-4.436,-4.4025,-4.2306,-4.1199,-4.0778,-3.8658,-3.7111,-3.6337,-3.605,-3.5496,-3.4713,-3.4055,-3.3253,-3.2286,-3.1943,-3.1522,-3.0911,-3.0663,-3.0663,-3.0873,-3.0682,-3.0949,-3.1763,-3.1847,-3.2088,-3.2604,-3.268,-3.2432,-3.1782,-3.1534,-3.14,-3.1362,-3.0663,-3.0548,-3.1178,-3.0911,-3.0987,-3.1594,-3.1097,-3.0222,-2.9518,-2.9841,-2.9619,-2.8561,-2.8765,-2.8624,-2.8096,-2.7892,-2.7415,-2.6861,-2.6771,-2.6409,-2.5571,-2.4974,-2.454,-2.4364,-2.4275,-2.4191,-2.4199,-2.418,-2.4006,-2.3511,-2.3421,-2.32,-2.2812,-2.2712,-2.2712,-2.2712,-2.2738,-2.2768,-2.2824,-2.2176,-2.1616,-2.11,-2.0793,-2.0458,-2.0122,-2.0321,-2.0758,-2.0209,-1.9639,-1.9189,-1.9234,-1.9163,-1.9154,-5.3185,-5.2965,-5.1518,-5.0472,-4.9537,-4.8655,-4.8251,-4.8196,-4.7388,-4.7058,-4.6947,-4.6214,-4.6041,-4.6225,-4.5315,-4.5274,-4.5935,-4.5581,-4.6135,-4.728,-4.605,-4.5736,-4.6366,-4.566,-4.5335,-4.5466,-4.5411,-4.5354,-4.5297,-4.5231,-4.5231,-4.5105,-4.4112,-4.3357,-4.2488,-4.0778,-3.9652,-3.8667,-3.7846,-3.7139,-3.6443,-3.629,-3.5411,-3.3987,-3.3081,-3.2604,-3.2432,-3.1828,-3.1771,-3.2527,-3.1828,-3.1801,-3.2565,-3.2661,-3.2737,-3.2737,-3.2756,-3.2737,-3.2565,-3.1973,-3.1572,-3.1446,-3.0835,-3.0605,-3.1541,-3.1446,-3.1752,-3.2546,-3.1938,-3.1078,-3.0383,-3.0204,-3.0166,-2.9917,-2.9299,-2.8968,-2.8879,-2.8306,-2.7797,-2.7638,-2.7548,-2.6972,-2.5955,-2.5007,-2.4512,-2.4294,-2.4209,-2.4199,-2.4199,-2.4199,-2.3947,-2.3595,-2.3387,-2.3236,-2.2825,-2.2712,-2.2712,-2.2712,-2.2738,-2.2764,-2.2577,-2.232,-2.187,-2.1494,-2.1249,-2.0916,-2.0454,-2.0548,-2.1016,-2.0824,-2.0337,-2.0008,-1.993,-1.993,-1.993,-5.3185,-5.3093,-5.2032,-5.1389,-5.1006,-4.9701,-4.9133,-4.904,-4.8251,-4.7884,-4.7718,-4.7003,-4.6728,-4.6799,-4.6142,-4.6205,-4.6765,-4.6143,-4.6426,-4.7333,-4.6858,-4.6638,-4.6654,-4.6581,-4.6573,-4.654,-4.6213,-4.5793,-4.5316,-4.5277,-4.5277,-4.5163,-4.4407,-4.3834,-4.3242,-4.139,-4.0129,-3.9709,-3.8457,-3.7559,-3.7234,-3.6776,-3.6175,-3.5572,-3.4254,-3.328,-3.2699,-3.2413,-3.2413,-3.268,-3.2413,-3.2642,-3.3452,-3.4017,-3.4055,-3.3643,-3.4017,-3.4055,-3.3586,-3.3242,-3.3089,-3.2993,-3.1809,-3.1637,-3.2554,-3.2191,-3.2057,-3.3032,-3.2756,-3.2107,-3.1706,-3.0873,-3.0223,-3.0166,-2.9937,-2.9746,-2.9688,-2.9459,-2.9096,-2.8541,-2.7939,-2.7036,-2.6085,-2.5372,-2.4921,-2.4329,-2.4199,-2.4199,-2.4199,-2.4199,-2.4006,-2.3573,-2.338,-2.3218,-2.2773,-2.2712,-2.2712,-2.2712,-2.2712,-2.2725,-2.2604,-2.2365,-2.1949,-2.1817,-2.1625,-2.1432,-2.1011,-2.093,-2.1379,-2.1552,-2.1039,-2.0743,-2.0705,-2.0665,-2.0675,-5.3124,-5.2959,-5.2029,-5.161,-5.1408,-4.9848,-4.9187,-4.9095,-4.8545,-4.8324,-4.8196,-4.7718,-4.748,-4.7389,-4.6908,-4.7057,-4.7617,-4.6801,-4.6911,-4.7823,-4.7389,-4.7151,-4.721,-4.7165,-4.713,-4.7025,-4.6493,-4.5919,-4.5437,-4.522,-4.5132,-4.5094,-4.4624,-4.4255,-4.3758,-4.2287,-4.1294,-4.0597,-3.9527,-3.861,-3.7846,-3.7464,-3.6871,-3.6099,-3.5229,-3.4407,-3.3559,-3.328,-3.3253,-3.3425,-3.3272,-3.3509,-3.4331,-3.4904,-3.498,-3.4541,-3.4885,-3.498,-3.4445,-3.414,-3.3995,-3.3956,-3.2764,-3.2535,-3.3727,-3.2963,-3.3127,-3.3853,-3.3624,-3.3119,-3.2852,-3.184,-3.093,-3.072,-3.0815,-3.0739,-3.0326,-3.0452,-3.0166,-2.9393,-2.8404,-2.7353,-2.6317,-2.5801,-2.5134,-2.4319,-2.4199,-2.4199,-2.4199,-2.418,-2.4024,-2.3522,-2.3421,-2.3189,-2.2846,-2.2712,-2.2712,-2.2712,-2.2712,-2.2712,-2.2659,-2.2395,-2.2226,-2.213,-2.1988,-2.1827,-2.1668,-2.1511,-2.1674,-2.1967,-2.1779,-2.1409,-2.1373,-2.1345,-2.1334,-5.2999,-5.2819,-5.1458,-5.1002,-5.08,-4.9313,-4.8415,-4.8508,-4.8342,-4.8287,-4.8288,-4.8232,-4.8158,-4.8104,-4.7463,-4.7702,-4.8257,-4.7398,-4.7665,-4.8836,-4.7658,-4.7384,-4.7941,-4.7275,-4.6903,-4.6838,-4.6054,-4.566,-4.5547,-4.5073,-4.4819,-4.4879,-4.5044,-4.4749,-4.4064,-4.3758,-4.3023,-4.1858,-4.1304,-4.0138,-3.8171,-3.8495,-3.7771,-3.5872,-3.6033,-3.59,-3.5155,-3.4399,-3.4312,-3.4857,-3.4388,-3.4407,-3.498,-3.5171,-3.5163,-3.5114,-3.5182,-3.5182,-3.5076,-3.4483,-3.4147,-3.4006,-3.3242,-3.3127,-3.391,-3.3937,-3.412,-3.4751,-3.4445,-3.3987,-3.3872,-3.3223,-3.2317,-3.163,-3.1916,-3.1771,-3.0758,-3.093,-3.114,-3.0135,-2.9074,-2.8129,-2.7226,-2.6386,-2.5469,-2.465,-2.4365,-2.4291,-2.4236,-2.4199,-2.3976,-2.3588,-2.3403,-2.3224,-2.2943,-2.2712,-2.2712,-2.2712,-2.2712,-2.2699,-2.2685,-2.2521,-2.2412,-2.2287,-2.2003,-2.1827,-2.1643,-2.1537,-2.1851,-2.2078,-2.1953,-2.1954,-2.196,-2.1926,-2.1949,-5.2868,-5.2813,-5.24,-5.1916,-5.1373,-5.0232,-4.9541,-4.9114,-4.8541,-4.8247,-4.8305,-4.8324,-4.8324,-4.825,-4.8012,-4.8124,-4.8403,-4.8015,-4.8248,-4.8749,-4.8392,-4.8146,-4.8083,-4.7605,-4.7158,-4.6888,-4.6636,-4.6171,-4.5556,-4.4879,-4.4612,-4.4795,-4.4891,-4.4954,-4.4828,-4.4322,-4.3643,-4.3185,-4.2068,-4.1036,-4.0234,-3.9431,-3.8489,-3.7614,-3.6907,-3.6257,-3.5837,-3.5172,-3.4972,-3.5201,-3.498,-3.4961,-3.5144,-3.5182,-3.5182,-3.5182,-3.5182,-3.5182,-3.5163,-3.498,-3.4789,-3.4674,-3.4063,-3.4063,-3.4598,-3.4331,-3.4407,-3.5076,-3.4961,-3.4827,-3.477,-3.4598,-3.3566,-3.1694,-3.2183,-3.2126,-3.072,-3.051,-3.0383,-3.006,-2.9523,-2.8838,-2.8016,-2.7212,-2.6413,-2.5191,-2.497,-2.4842,-2.4383,-2.4291,-2.4084,-2.3735,-2.3562,-2.3359,-2.3047,-2.2803,-2.2712,-2.2712,-2.2712,-2.2712,-2.2685,-2.2649,-2.2555,-2.2374,-2.2075,-2.1855,-2.1657,-2.1667,-2.193,-2.2122,-2.2089,-2.2199,-2.24,-2.2399,-2.229,-5.2721,-5.2702,-5.2474,-5.1977,-5.1258,-5.0368,-4.9606,-4.9035,-4.8464,-4.8208,-4.8267,-4.8287,-4.8324,-4.8324,-4.8324,-4.8324,-4.8324,-4.8324,-4.8402,-4.8586,-4.8623,-4.8495,-4.8234,-4.7683,-4.7284,-4.6855,-4.636,-4.5972,-4.5677,-4.4771,-4.4351,-4.4498,-4.4688,-4.4891,-4.5082,-4.472,-4.438,-4.3892,-4.2956,-4.1991,-4.1113,-4.031,-3.9357,-3.8238,-3.7566,-3.7024,-3.6436,-3.5553,-3.525,-3.5586,-3.5679,-3.5545,-3.5259,-3.5182,-3.5182,-3.5182,-3.5182,-3.5182,-3.5182,-3.5163,-3.5182,-3.5087,-3.4732,-3.4636,-3.5018,-3.4655,-3.4751,-3.5076,-3.5163,-3.5182,-3.5182,-3.5163,-3.4312,-3.2688,-3.3223,-3.2833,-3.1503,-3.0835,-3.0462,-3.0144,-2.9731,-2.9167,-2.8474,-2.7925,-2.7158,-2.5815,-2.5384,-2.5319,-2.4787,-2.4667,-2.4474,-2.429,-2.4105,-2.3756,-2.3179,-2.2932,-2.2725,-2.2712,-2.2712,-2.2712,-2.2699,-2.2646,-2.2565,-2.2388,-2.2118,-2.1972,-2.179,-2.169,-2.182,-2.1984,-2.2153,-2.2235,-2.2325,-2.2377,-2.2321,-5.2681,-5.2576,-5.1956,-5.1371,-5.0707,-4.9852,-4.9218,-4.8497,-4.8314,-4.8314,-4.8315,-4.8284,-4.8305,-4.8305,-4.8305,-4.8324,-4.8324,-4.8324,-4.8306,-4.8344,-4.8326,-4.8215,-4.7829,-4.7352,-4.7004,-4.6544,-4.5551,-4.5331,-4.5788,-4.4716,-4.4063,-4.4277,-4.456,-4.4751,-4.4812,-4.506,-4.4796,-4.4164,-4.3852,-4.2612,-4.0788,-4.0941,-4.0176,-3.7776,-3.8118,-3.7973,-3.6964,-3.6004,-3.5657,-3.6334,-3.6408,-3.616,-3.5507,-3.5278,-3.5354,-3.5239,-3.5182,-3.5182,-3.5182,-3.5182,-3.5182,-3.5182,-3.5144,-3.5182,-3.5144,-3.5114,-3.5076,-3.519,-3.5182,-3.5182,-3.5182,-3.5182,-3.4743,-3.4276,-3.4168,-3.3786,-3.2886,-3.1917,-3.1104,-3.0396,-2.9876,-2.9364,-2.8624,-2.819,-2.7264,-2.6219,-2.577,-2.5742,-2.5466,-2.5362,-2.528,-2.5067,-2.4784,-2.423,-2.3694,-2.3306,-2.307,-2.2712,-2.2712,-2.2712,-2.2712,-2.2659,-2.2511,-2.2346,-2.2234,-2.2073,-2.1897,-2.1751,-2.1706,-2.1853,-2.1994,-2.2119,-2.2178,-2.2181,-2.2278,-5.3489,-5.3324,-5.259,-5.1859,-5.1202,-5.0838,-5.0377,-4.9781,-4.9099,-4.8883,-4.8835,-4.8443,-4.8263,-4.8228,-4.8286,-4.8324,-4.8305,-4.8287,-4.8324,-4.8324,-4.8324,-4.7572,-4.6874,-4.6929,-4.6489,-4.559,-4.5553,-4.57,-4.581,-4.4997,-4.467,-4.4859,-4.4434,-4.4355,-4.4525,-4.4782,-4.4827,-4.4444,-4.3552,-4.2927,-4.2144,-4.1065,-4.0105,-3.9123,-3.8731,-3.8278,-3.7667,-3.7615,-3.7039,-3.6283,-3.6796,-3.6815,-3.6322,-3.6175,-3.587,-3.545,-3.522,-3.5201,-3.5201,-3.5212,-3.5201,-3.5182,-3.5234,-3.5182,-3.5182,-3.5182,-3.5182,-3.5182,-3.5182,-3.5212,-3.5193,-3.5193,-3.499,-3.4611,-3.3995,-3.3416,-3.3181,-3.2458,-3.1553,-3.08,-3.0431,-2.9854,-2.9289,-2.8759,-2.8202,-2.7339,-2.6972,-2.6851,-2.6374,-2.5925,-2.5771,-2.5717,-2.5432,-2.4813,-2.4258,-2.3829,-2.3377,-2.2832,-2.2712,-2.2712,-2.2712,-2.2685,-2.2453,-2.2186,-2.2231,-2.213,-2.1868,-2.1661,-2.172,-2.1823,-2.1866,-2.1982,-2.1897,-2.1884,-2.2039,-5.3764,-5.3621,-5.2824,-5.2078,-5.1437,-5.133,-5.0925,-5.0329,-4.9795,-4.958,-4.9461,-4.8908,-4.864,-4.8603,-4.8334,-4.8208,-4.8247,-4.8247,-4.8286,-4.8287,-4.8267,-4.7589,-4.6801,-4.6929,-4.6599,-4.5828,-4.5828,-4.6085,-4.6232,-4.5608,-4.5181,-4.4929,-4.4598,-4.4349,-4.4158,-4.4378,-4.454,-4.4429,-4.3711,-4.3253,-4.2826,-4.1628,-4.0611,-3.9889,-3.9201,-3.8478,-3.777,-3.8218,-3.7933,-3.6993,-3.739,-3.7966,-3.7908,-3.6943,-3.6417,-3.6169,-3.5651,-3.5316,-3.5643,-3.5658,-3.545,-3.5295,-3.5319,-3.5457,-3.5456,-3.5248,-3.5002,-3.5855,-3.56,-3.5439,-3.5353,-3.5228,-3.5038,-3.4775,-3.3932,-3.3345,-3.3506,-3.2935,-3.2187,-3.148,-3.0833,-3.0368,-2.9821,-2.9355,-2.8665,-2.8018,-2.7651,-2.7438,-2.7145,-2.6678,-2.6337,-2.6348,-2.5907,-2.5189,-2.4335,-2.3772,-2.3373,-2.2867,-2.2712,-2.2712,-2.2712,-2.2699,-2.2494,-2.2301,-2.2274,-2.2175,-2.1899,-2.1751,-2.1857,-2.193,-2.1884,-2.184,-2.1812,-2.1768,-2.1911,-5.382,-5.3766,-5.2878,-5.2109,-5.1578,-5.1457,-5.1189,-5.0548,-5.0388,-5.0294,-5.0137,-4.9516,-4.9102,-4.912,-4.8379,-4.809,-4.8187,-4.8149,-4.8208,-4.8209,-4.8153,-4.7749,-4.7239,-4.7019,-4.6854,-4.6561,-4.6177,-4.647,-4.6672,-4.6269,-4.5608,-4.5092,-4.4935,-4.4447,-4.3936,-4.3955,-4.4121,-4.4161,-4.3882,-4.3465,-4.2938,-4.2047,-4.1108,-4.0156,-3.9338,-3.8544,-3.7956,-3.8177,-3.8224,-3.7144,-3.8275,-3.8978,-3.9388,-3.7585,-3.7042,-3.7231,-3.64,-3.5959,-3.6427,-3.6378,-3.6074,-3.5771,-3.5815,-3.5942,-3.6042,-3.5582,-3.5461,-3.6273,-3.6039,-3.563,-3.5372,-3.5083,-3.484,-3.4695,-3.4486,-3.4081,-3.3559,-3.3353,-3.3005,-3.2168,-3.1184,-3.0698,-3.0243,-2.9632,-2.8748,-2.8429,-2.8191,-2.8117,-2.786,-2.7486,-2.7236,-2.7167,-2.6461,-2.5499,-2.4559,-2.3613,-2.3237,-2.2819,-2.2746,-2.2712,-2.2712,-2.2672,-2.2552,-2.2412,-2.2301,-2.2161,-2.1974,-2.1947,-2.1991,-2.1991,-2.193,-2.1899,-2.1869,-2.184,-2.1928,-5.4713,-5.4526,-5.3114,-5.2412,-5.2268,-5.2245,-5.2141,-5.191,-5.1312,-5.1058,-5.0772,-4.9737,-4.9198,-4.9089,-4.8389,-4.8012,-4.805,-4.805,-4.8052,-4.8034,-4.8052,-4.7997,-4.765,-4.7212,-4.6573,-4.6299,-4.65,-4.6758,-4.6907,-4.6853,-4.6359,-4.5627,-4.4967,-4.427,-4.3574,-4.3646,-4.3804,-4.3759,-4.3412,-4.3166,-4.2897,-4.2122,-4.1155,-4.01,-3.9209,-3.8658,-3.8508,-3.8762,-3.8699,-3.8434,-3.8567,-3.8902,-3.8754,-3.8258,-3.7862,-3.7642,-3.7366,-3.7099,-3.7328,-3.7163,-3.7038,-3.6862,-3.6646,-3.6756,-3.7038,-3.6539,-3.606,-3.6023,-3.5684,-3.5453,-3.5094,-3.4747,-3.4602,-3.451,-3.437,-3.4147,-3.3796,-3.3671,-3.3278,-3.257,-3.1722,-3.0974,-3.0348,-2.957,-2.8987,-2.8767,-2.8712,-2.873,-2.8473,-2.8172,-2.7952,-2.7739,-2.7001,-2.607,-2.5319,-2.4243,-2.3349,-2.2905,-2.2746,-2.2712,-2.2712,-2.2672,-2.2565,-2.2412,-2.2274,-2.2118,-2.1959,-2.1928,-2.1943,-2.1959,-2.1974,-2.1913,-2.1899,-2.1884,-2.1842,-5.5269,-5.478,-5.3566,-5.2842,-5.2516,-5.2498,-5.2498,-5.2408,-5.2063,-5.1846,-5.1525,-5.025,-4.9582,-4.9437,-4.8408,-4.7868,-4.7968,-4.799,-4.799,-4.7949,-4.7947,-4.7927,-4.7832,-4.7486,-4.6997,-4.6785,-4.7135,-4.7393,-4.7451,-4.7378,-4.7067,-4.6264,-4.544,-4.4655,-4.3706,-4.3505,-4.3356,-4.3371,-4.3105,-4.2929,-4.2883,-4.2186,-4.107,-4.0042,-3.9294,-3.8933,-3.8624,-3.868,-3.8664,-3.859,-3.8603,-3.8641,-3.8534,-3.8328,-3.8204,-3.8301,-3.7486,-3.7486,-3.7577,-3.7591,-3.7355,-3.7225,-3.7136,-3.7328,-3.7271,-3.6922,-3.6767,-3.6611,-3.6305,-3.5688,-3.5471,-3.464,-3.4509,-3.4685,-3.4401,-3.4105,-3.3887,-3.3807,-3.3678,-3.3018,-3.2125,-3.1397,-3.0632,-2.9757,-2.9133,-2.8877,-2.8895,-2.8913,-2.8877,-2.8576,-2.8301,-2.7979,-2.7355,-2.667,-2.6055,-2.4998,-2.3655,-2.3112,-2.2729,-2.2712,-2.2712,-2.2659,-2.2592,-2.2412,-2.2245,-2.2087,-2.1926,-2.1926,-2.1897,-2.1955,-2.1955,-2.1928,-2.1899,-2.1869,-2.1797,-5.5558,-5.4834,-5.4037,-5.3241,-5.2552,-5.2498,-5.2498,-5.2498,-5.2498,-5.2389,-5.2226,-5.0886,-5.0202,-4.9785,-4.8586,-4.798,-4.7861,-4.7907,-4.7888,-4.7863,-4.7861,-4.7967,-4.794,-4.7959,-4.8076,-4.8261,-4.7949,-4.7877,-4.7899,-4.7917,-4.7425,-4.6767,-4.6107,-4.5268,-4.4448,-4.3592,-4.3285,-4.3378,-4.3105,-4.296,-4.3032,-4.2395,-4.143,-4.0443,-3.9878,-3.9566,-3.9193,-3.9045,-3.8887,-3.8704,-3.8664,-3.8759,-3.8701,-3.8395,-3.83,-3.8982,-3.7928,-3.7742,-3.8059,-3.7989,-3.7678,-3.7112,-3.7391,-3.7662,-3.7584,-3.7235,-3.7153,-3.7128,-3.6848,-3.6111,-3.6361,-3.548,-3.4951,-3.5006,-3.4661,-3.4195,-3.3873,-3.3807,-3.3752,-3.3532,-3.2394,-3.1366,-3.087,-3.021,-2.9555,-2.9049,-2.9097,-2.9097,-2.906,-2.8932,-2.8638,-2.8453,-2.793,-2.7108,-2.6433,-2.599,-2.4614,-2.3578,-2.3057,-2.3005,-2.2988,-2.2982,-2.2918,-2.2436,-2.2217,-2.2044,-2.1855,-2.1721,-2.1751,-2.188,-2.1926,-2.184,-2.1825,-2.1855,-2.1753,-5.5577,-5.4834,-5.4037,-5.3241,-5.2552,-5.2498,-5.2498,-5.2498,-5.2498,-5.2498,-5.2353,-5.1502,-5.0673,-4.9981,-4.9202,-4.8387,-4.7904,-4.7783,-4.7798,-4.7814,-4.7811,-4.7953,-4.8514,-4.8529,-4.8916,-4.9191,-4.8654,-4.8042,-4.7975,-4.7868,-4.7522,-4.685,-4.6521,-4.5954,-4.5078,-4.435,-4.3753,-4.3554,-4.3191,-4.2975,-4.2902,-4.274,-4.225,-4.1287,-4.076,-4.0429,-4.0353,-4.0315,-4.0189,-3.9756,-4.0086,-3.9961,-3.9574,-3.8941,-3.8807,-3.8897,-3.8725,-3.8526,-3.8609,-3.8561,-3.8497,-3.8379,-3.8233,-3.8193,-3.8143,-3.7968,-3.7628,-3.7071,-3.6651,-3.6067,-3.6153,-3.5779,-3.5453,-3.522,-3.4881,-3.4468,-3.399,-3.3793,-3.3793,-3.3678,-3.2485,-3.1458,-3.1201,-3.0797,-3.0143,-2.9721,-2.9647,-2.9464,-2.928,-2.9133,-2.8895,-2.8759,-2.8615,-2.7663,-2.6745,-2.6433,-2.5663,-2.4424,-2.3833,-2.3695,-2.3643,-2.3543,-2.3309,-2.288,-2.2336,-2.1986,-2.1781,-2.1587,-2.1572,-2.1691,-2.1723,-2.1754,-2.1723,-2.1706,-2.1723,-5.6174,-5.5414,-5.4653,-5.3856,-5.3132,-5.2661,-5.2498,-5.2498,-5.2498,-5.2498,-5.2263,-5.1647,-5.0854,-5.0035,-4.9257,-4.8456,-4.788,-4.7699,-4.7935,-4.817,-4.795,-4.8134,-4.8837,-4.8909,-4.9094,-4.9311,-4.9021,-4.8662,-4.8378,-4.7961,-4.762,-4.7236,-4.6837,-4.6146,-4.5329,-4.4476,-4.3951,-4.3552,-4.3136,-4.2919,-4.2919,-4.2919,-4.2521,-4.1887,-4.1452,-4.1088,-4.0741,-4.0651,-4.0688,-4.0669,-4.0634,-4.0581,-4.0364,-3.9996,-3.9469,-3.9331,-3.9234,-3.8982,-3.8716,-3.8523,-3.8473,-3.8457,-3.8415,-3.8368,-3.8322,-3.8198,-3.7927,-3.7239,-3.6876,-3.6573,-3.6711,-3.6322,-3.5878,-3.5539,-3.5173,-3.4603,-3.4005,-3.3803,-3.3794,-3.378,-3.2858,-3.2161,-3.1971,-3.1476,-3.0797,-3.0448,-3.0246,-2.9934,-2.9574,-2.9225,-2.9005,-2.8917,-2.8743,-2.8,-2.7173,-2.6859,-2.6331,-2.5204,-2.4678,-2.454,-2.4247,-2.4129,-2.3791,-2.3364,-2.2804,-2.2241,-2.1721,-2.1541,-2.151,-2.1496,-2.1587,-2.1648,-2.1587,-2.1572,-2.1669,-5.6627,-5.5721,-5.5142,-5.4345,-5.344,-5.277,-5.2498,-5.2498,-5.2498,-5.2371,-5.2154,-5.1538,-5.0741,-4.9836,-4.9021,-4.8275,-4.7735,-4.7844,-4.8242,-4.833,-4.8239,-4.8402,-4.8967,-4.918,-4.9452,-5.0216,-4.9745,-4.9691,-4.8858,-4.8333,-4.7935,-4.7554,-4.6975,-4.6486,-4.5852,-4.5001,-4.4023,-4.3516,-4.2973,-4.2919,-4.2919,-4.2883,-4.2629,-4.2031,-4.194,-4.1705,-4.1379,-4.1252,-4.1415,-4.1524,-4.1434,-4.1216,-4.147,-4.1234,-4.0655,-3.9967,-3.9586,-3.8971,-3.8478,-3.8274,-3.8305,-3.8305,-3.8336,-3.8322,-3.8289,-3.8219,-3.802,-3.7473,-3.7328,-3.7344,-3.7351,-3.6862,-3.6477,-3.6176,-3.5684,-3.5031,-3.4524,-3.4227,-3.4077,-3.379,-3.3153,-3.2593,-3.2148,-3.21,-3.1421,-3.0687,-3.0467,-3.0356,-2.9971,-2.9262,-2.8994,-2.8959,-2.8706,-2.8173,-2.7603,-2.7274,-2.6619,-2.5614,-2.5471,-2.5523,-2.5092,-2.4681,-2.4313,-2.3973,-2.3388,-2.2827,-2.2184,-2.1542,-2.1433,-2.1434,-2.1526,-2.1672,-2.1839,-2.1904,-2.1968,-5.6337,-5.5051,-5.4943,-5.4037,-5.2788,-5.257,-5.2498,-5.2498,-5.2444,-5.2063,-5.152,-5.1249,-5.0416,-4.9202,-4.8279,-4.7844,-4.7877,-4.8224,-4.8351,-4.8203,-4.8384,-4.8967,-4.98,-4.9945,-5.0452,-5.0959,-5.0488,-4.9691,-4.8985,-4.8692,-4.8315,-4.7772,-4.7591,-4.7409,-4.6812,-4.5743,-4.5164,-4.4747,-4.3607,-4.2955,-4.2919,-4.2919,-4.281,-4.2738,-4.2665,-4.2611,-4.2394,-4.2321,-4.2466,-4.2539,-4.2611,-4.2611,-4.2683,-4.2665,-4.2194,-4.1307,-4.0238,-3.9061,-3.848,-3.8352,-3.8262,-3.8278,-3.8241,-3.8207,-3.8224,-3.8225,-3.8153,-3.8171,-3.8026,-3.7987,-3.8,-3.7949,-3.76,-3.7158,-3.6628,-3.6133,-3.5599,-3.4473,-3.4357,-3.4053,-3.3492,-3.2595,-3.192,-3.2056,-3.2027,-3.1292,-3.0723,-3.0668,-3.0393,-2.9776,-2.9512,-2.9587,-2.9155,-2.8565,-2.8389,-2.8021,-2.7296,-2.6261,-2.621,-2.6385,-2.5919,-2.5409,-2.5026,-2.4633,-2.4031,-2.3373,-2.2684,-2.2073,-2.1548,-2.147,-2.1695,-2.1972,-2.2232,-2.2281,-2.2394,-5.5455,-5.545,-5.4581,-5.3838,-5.3168,-5.2697,-5.2498,-5.2389,-5.1991,-5.1611,-5.1212,-5.0782,-4.9963,-4.8837,-4.8061,-4.7717,-4.7769,-4.8113,-4.8348,-4.8221,-4.8442,-4.8949,-4.9858,-5.0112,-5.0673,-5.0995,-5.0832,-5.0071,-4.9257,-4.8438,-4.7968,-4.7808,-4.7663,-4.7355,-4.7228,-4.6377,-4.5761,-4.511,-4.4204,-4.3371,-4.3046,-4.2919,-4.2919,-4.2919,-4.2919,-4.2919,-4.2919,-4.2919,-4.2919,-4.2919,-4.2919,-4.2919,-4.2919,-4.281,-4.252,-4.1723,-4.1126,-4.0184,-3.9115,-3.8933,-3.8662,-3.8299,-3.8227,-3.8209,-3.8209,-3.8245,-3.8245,-3.8209,-3.8209,-3.8225,-3.8224,-3.8225,-3.7753,-3.7386,-3.7203,-3.6472,-3.5869,-3.5148,-3.4476,-3.4171,-3.3796,-3.2963,-3.2359,-3.2574,-3.2729,-3.236,-3.181,-3.1603,-3.1194,-3.0546,-3.043,-3.054,-2.9893,-2.9144,-2.9122,-2.8954,-2.8351,-2.7477,-2.6914,-2.6951,-2.6609,-2.6189,-2.5776,-2.5245,-2.4615,-2.3933,-2.3205,-2.2631,-2.2086,-2.1973,-2.194,-2.2394,-2.2848,-2.3061,-2.3144,-5.4166,-5.5097,-5.4116,-5.3585,-5.3367,-5.2752,-5.2498,-5.2408,-5.1919,-5.1502,-5.0991,-5.0123,-4.9197,-4.8558,-4.7843,-4.7533,-4.7714,-4.7895,-4.8188,-4.8333,-4.8586,-4.9094,-4.989,-5.0238,-5.0583,-5.0637,-5.076,-5.0271,-4.9311,-4.8351,-4.7772,-4.7699,-4.7699,-4.7428,-4.6957,-4.6486,-4.5979,-4.4856,-4.4331,-4.3643,-4.3082,-4.2919,-4.2919,-4.2919,-4.2919,-4.2919,-4.2919,-4.2919,-4.2919,-4.2919,-4.2919,-4.2919,-4.2919,-4.2883,-4.2683,-4.2194,-4.1904,-4.1361,-4.0383,-3.9804,-3.9296,-3.8807,-3.8462,-3.85,-3.8245,-3.8299,-3.8317,-3.8263,-3.8209,-3.8209,-3.8209,-3.8209,-3.7972,-3.7645,-3.7392,-3.652,-3.5825,-3.5574,-3.5196,-3.4845,-3.4385,-3.3568,-3.3174,-3.3298,-3.3318,-3.325,-3.2966,-3.2554,-3.192,-3.1188,-3.1109,-3.1127,-3.0574,-2.9799,-2.9493,-2.9396,-2.8947,-2.8622,-2.8053,-2.7623,-2.7332,-2.6905,-2.6433,-2.5848,-2.5267,-2.4539,-2.3846,-2.3243,-2.2686,-2.2686,-2.275,-2.3124,-2.3499,-2.3746,-2.4077,-5.2413,-5.3059,-5.3502,-5.3259,-5.2625,-5.2534,-5.2498,-5.248,-5.2389,-5.181,-5.0755,-4.931,-4.825,-4.7731,-4.7353,-4.7232,-4.7729,-4.8456,-4.8345,-4.8511,-4.913,-4.9727,-5.0329,-5.0873,-5.1362,-5.1593,-5.0977,-5.0257,-4.9601,-4.8224,-4.7808,-4.7699,-4.7699,-4.7642,-4.7337,-4.6776,-4.5816,-4.4802,-4.4222,-4.3716,-4.3155,-4.2919,-4.2919,-4.2919,-4.2919,-4.2919,-4.2919,-4.2919,-4.2919,-4.2919,-4.2919,-4.2919,-4.2919,-4.2919,-4.2737,-4.2665,-4.2611,-4.214,-4.1488,-4.0745,-4.0075,-3.9568,-3.926,-3.9061,-3.8699,-3.906,-3.8933,-3.8462,-3.8445,-3.8281,-3.8263,-3.8191,-3.8082,-3.7991,-3.7756,-3.7446,-3.69,-3.663,-3.6234,-3.5672,-3.4893,-3.3999,-3.3419,-3.3412,-3.3356,-3.3273,-3.3223,-3.2815,-3.2318,-3.1715,-3.1623,-3.1512,-3.1123,-3.05,-2.9789,-2.959,-2.968,-2.9387,-2.8881,-2.8464,-2.8127,-2.7663,-2.7132,-2.6662,-2.6111,-2.5311,-2.4613,-2.4265,-2.3932,-2.3582,-2.3578,-2.3855,-2.425,-2.4599,-2.5047,-5.1289,-5.1599,-5.2564,-5.2788,-5.2498,-5.2498,-5.2498,-5.2408,-5.1955,-5.08,-4.939,-4.8447,-4.7855,-4.7341,-4.6785,-4.6967,-4.7738,-4.7626,-4.7965,-4.8464,-4.913,-4.9908,-5.0524,-5.1054,-5.1217,-5.1067,-5.0365,-4.942,-4.8478,-4.8007,-4.7844,-4.7699,-4.7699,-4.7699,-4.7446,-4.6902,-4.5888,-4.5001,-4.4295,-4.3697,-4.31,-4.2919,-4.2919,-4.2919,-4.2919,-4.2919,-4.2919,-4.2919,-4.2919,-4.2919,-4.2919,-4.2919,-4.2919,-4.2919,-4.2919,-4.2919,-4.2919,-4.2701,-4.2375,-4.1632,-4.089,-4.0293,-4.0057,-3.9912,-3.9478,-3.9912,-3.9659,-3.9242,-3.8916,-3.8825,-3.8263,-3.8227,-3.8191,-3.8209,-3.8136,-3.7973,-3.772,-3.7357,-3.6687,-3.5856,-3.5059,-3.4223,-3.377,-3.339,-3.3317,-3.3239,-3.3209,-3.3108,-3.2653,-3.2381,-3.232,-3.2172,-3.1836,-3.1856,-3.1237,-3.0894,-3.0585,-3.0119,-2.9678,-2.929,-2.89,-2.8351,-2.7854,-2.7431,-2.6923,-2.6182,-2.5664,-2.5463,-2.5026,-2.4308,-2.4235,-2.4489,-2.492,-2.5339,-2.5676,-5.0562,-5.0832,-5.1793,-5.2322,-5.248,-5.2498,-5.2498,-5.2389,-5.1937,-5.0595,-4.8794,-4.8493,-4.8045,-4.7442,-4.6687,-4.691,-4.7625,-4.7709,-4.8106,-4.876,-4.9564,-5.0253,-5.1013,-5.1502,-5.1597,-5.0778,-5.013,-4.9438,-4.8768,-4.8043,-4.7753,-4.7699,-4.7699,-4.7699,-4.7518,-4.6902,-4.6106,-4.5309,-4.4494,-4.3715,-4.3028,-4.2919,-4.2919,-4.2919,-4.2919,-4.2919,-4.2919,-4.2919,-4.2919,-4.2919,-4.2919,-4.2919,-4.2919,-4.2919,-4.2919,-4.2919,-4.2919,-4.2919,-4.2701,-4.2158,-4.1451,-4.0945,-4.0854,-4.0727,-4.0619,-4.0673,-4.0528,-3.984,-3.9677,-3.9405,-3.868,-3.8645,-3.8426,-3.839,-3.8245,-3.8082,-3.7883,-3.7557,-3.6759,-3.5965,-3.5403,-3.5186,-3.4552,-3.4172,-3.3691,-3.356,-3.3372,-3.3415,-3.3341,-3.3143,-3.3138,-3.2952,-3.2693,-3.2839,-3.2949,-3.2238,-3.151,-3.0826,-3.041,-3.0035,-2.959,-2.9039,-2.8437,-2.7923,-2.7414,-2.694,-2.6453,-2.5967,-2.5396,-2.4791,-2.4968,-2.5295,-2.5352,-2.5722,-2.5878,-5.0237,-5.0751,-5.1381,-5.1975,-5.241,-5.2498,-5.2498,-5.2475,-5.2325,-5.1419,-4.9927,-4.9125,-4.8481,-4.7927,-4.6765,-4.6986,-4.774,-4.7909,-4.836,-4.9181,-5.0104,-5.0972,-5.1448,-5.1796,-5.1547,-5.1882,-5.0688,-4.9559,-4.9418,-4.815,-4.7666,-4.7657,-4.7636,-4.7699,-4.7627,-4.6884,-4.6087,-4.5309,-4.4476,-4.3588,-4.3063,-4.2919,-4.2919,-4.2919,-4.2919,-4.2919,-4.2919,-4.2919,-4.2919,-4.2919,-4.2919,-4.2919,-4.2919,-4.2919,-4.2919,-4.2919,-4.2919,-4.2919,-4.2865,-4.214,-4.1795,-4.1705,-4.165,-4.1488,-4.0981,-4.1107,-4.1343,-4.0637,-4.0492,-4.013,-3.9695,-3.926,-3.8844,-3.8571,-3.8444,-3.8172,-3.7973,-3.7883,-3.7158,-3.6469,-3.658,-3.658,-3.5783,-3.5059,-3.4365,-3.3986,-3.3672,-3.3615,-3.3684,-3.3652,-3.3551,-3.3464,-3.3209,-3.3195,-3.3214,-3.3,-3.2434,-3.1706,-3.1175,-3.0865,-3.0281,-2.9609,-2.9022,-2.8419,-2.7888,-2.7379,-2.6837,-2.6332,-2.5966,-2.5698,-2.5879,-2.6092,-2.6082,-2.6025,-2.6151,-4.9988,-5.0237,-5.12,-5.1719,-5.1951,-5.234,-5.2498,-5.241,-5.1994,-5.0929,-4.9528,-4.8882,-4.8157,-4.7306,-4.6685,-4.6694,-4.7631,-4.764,-4.8104,-4.99,-5.0506,-5.1208,-5.1629,-5.1402,-5.0945,-5.0214,-4.9236,-4.8406,-4.7252,-4.729,-4.7299,-4.7196,-4.7554,-4.7678,-4.7319,-4.6558,-4.549,-4.5073,-4.4095,-4.3136,-4.2955,-4.2955,-4.2937,-4.2937,-4.2919,-4.2919,-4.2919,-4.2919,-4.2919,-4.2919,-4.2919,-4.2919,-4.2919,-4.2919,-4.2919,-4.2919,-4.2919,-4.2919,-4.2883,-4.2574,-4.252,-4.2466,-4.2393,-4.2266,-4.2176,-4.2285,-4.2013,-4.1524,-4.1307,-4.0872,-4.0329,-3.9659,-3.9188,-3.9006,-3.8788,-3.8354,-3.8118,-3.8118,-3.7756,-3.7104,-3.6941,-3.6616,-3.6001,-3.5587,-3.4984,-3.4416,-3.4073,-3.3749,-3.3729,-3.3707,-3.3639,-3.3666,-3.3561,-3.3492,-3.34,-3.3274,-3.3118,-3.2563,-3.2113,-3.183,-3.1159,-3.0316,-2.947,-2.8813,-2.8315,-2.7801,-2.7223,-2.6782,-2.6805,-2.6758,-2.6792,-2.6519,-2.6225,-2.6188,-2.6259,-4.9732,-4.9959,-5.0696,-5.127,-5.1669,-5.2233,-5.241,-5.2096,-5.1533,-5.0461,-4.9377,-4.8993,-4.8485,-4.753,-4.6692,-4.6948,-4.8093,-4.7665,-4.8682,-5.0456,-5.0694,-5.1445,-5.17,-5.121,-5.0934,-4.9823,-4.895,-4.8102,-4.7371,-4.7264,-4.7285,-4.7374,-4.7511,-4.7657,-4.7319,-4.654,-4.5834,-4.5472,-4.4675,-4.3788,-4.3516,-4.3336,-4.3191,-4.301,-4.2919,-4.2919,-4.2919,-4.2919,-4.2919,-4.2919,-4.2919,-4.2919,-4.2919,-4.2919,-4.2919,-4.2919,-4.2919,-4.2919,-4.2883,-4.2883,-4.2792,-4.281,-4.2919,-4.2919,-4.2919,-4.281,-4.2592,-4.2266,-4.2103,-4.1632,-4.0981,-4.0256,-3.9912,-3.9731,-3.9097,-3.8681,-3.8281,-3.8263,-3.8136,-3.752,-3.7285,-3.6834,-3.6363,-3.5949,-3.5566,-3.5002,-3.4489,-3.4203,-3.3876,-3.3715,-3.3675,-3.3698,-3.3707,-3.3634,-3.3629,-3.3671,-3.3508,-3.3317,-3.2952,-3.2543,-3.1986,-3.1143,-3.0173,-2.9208,-2.8657,-2.8089,-2.7556,-2.7251,-2.7224,-2.733,-2.7486,-2.708,-2.6467,-2.6483,-2.6636,-4.9333,-4.9832,-4.989,-5.056,-5.15,-5.1976,-5.1952,-5.1482,-5.0876,-5.0289,-4.978,-4.9158,-4.8758,-4.8558,-4.7411,-4.7626,-4.8566,-4.7892,-4.9,-5.0348,-5.0713,-5.1532,-5.1628,-5.1269,-5.0363,-5.0328,-4.9527,-4.7743,-4.8013,-4.7386,-4.7249,-4.7551,-4.749,-4.7615,-4.7328,-4.7029,-4.6486,-4.6033,-4.5363,-4.4494,-4.3987,-4.3914,-4.3499,-4.3173,-4.2919,-4.2919,-4.2919,-4.2919,-4.2919,-4.2919,-4.2919,-4.2919,-4.2919,-4.2919,-4.2919,-4.2919,-4.2919,-4.2919,-4.2919,-4.2919,-4.2919,-4.2919,-4.2919,-4.2919,-4.2919,-4.2919,-4.2774,-4.2737,-4.2611,-4.2248,-4.1796,-4.1343,-4.089,-4.0293,-3.955,-3.9025,-3.8517,-3.8336,-3.8245,-3.8046,-3.8009,-3.7667,-3.714,-3.6671,-3.6309,-3.6091,-3.5618,-3.516,-3.4712,-3.3706,-3.3668,-3.3643,-3.3684,-3.3721,-3.3766,-3.3848,-3.3721,-3.3494,-3.3302,-3.2934,-3.2438,-3.1983,-3.1148,-3.018,-2.9117,-2.8328,-2.7589,-2.7453,-2.7576,-2.7751,-2.7944,-2.759,-2.6975,-2.7146,-2.7214,-4.9077,-4.9303,-4.9715,-5.0085,-5.0362,-5.0417,-5.0409,-5.0307,-4.9649,-4.9281,-4.926,-4.9077,-4.8781,-4.8159,-4.775,-4.7678,-4.7643,-4.7734,-4.8251,-4.9129,-4.9891,-5.0074,-4.9991,-4.9668,-4.8866,-4.8067,-4.7255,-4.6763,-4.6006,-4.5962,-4.6687,-4.6989,-4.7191,-4.7345,-4.7482,-4.7443,-4.6993,-4.654,-4.587,-4.5091,-4.444,-4.4204,-4.3643,-4.3173,-4.2919,-4.2919,-4.2919,-4.2919,-4.2919,-4.2919,-4.2919,-4.2919,-4.2919,-4.2919,-4.2919,-4.2919,-4.2919,-4.2919,-4.2919,-4.2919,-4.2919,-4.2919,-4.2919,-4.2919,-4.2919,-4.2919,-4.2919,-4.2919,-4.2919,-4.2556,-4.2303,-4.1959,-4.1542,-4.0963,-4.0238,-3.9604,-3.9097,-3.8807,-3.8663,-3.8408,-3.839,-3.8118,-3.7629,-3.743,-3.7087,-3.7051,-3.6761,-3.6177,-3.5468,-3.4446,-3.4036,-3.4032,-3.3844,-3.3954,-3.3886,-3.3931,-3.3808,-3.3666,-3.3585,-3.3441,-3.3028,-3.2576,-3.2014,-3.105,-2.9761,-2.856,-2.7469,-2.7591,-2.804,-2.8161,-2.8302,-2.7913,-2.7656,-2.7895,-2.7912,-4.8409,-4.8233,-4.8848,-4.9299,-4.9421,-4.9007,-4.8924,-4.9009,-4.889,-4.8734,-4.8592,-4.8883,-4.8765,-4.8426,-4.8054,-4.7844,-4.7757,-4.741,-4.7741,-4.852,-4.8567,-4.8851,-4.8661,-4.8483,-4.8094,-4.7007,-4.6436,-4.6408,-4.5275,-4.5157,-4.5825,-4.6543,-4.6712,-4.7044,-4.7216,-4.7157,-4.7156,-4.6884,-4.645,-4.5617,-4.4965,-4.4476,-4.3896,-4.3118,-4.2937,-4.2919,-4.2919,-4.2919,-4.2919,-4.2919,-4.2919,-4.2919,-4.2919,-4.2919,-4.2919,-4.2919,-4.2919,-4.2919,-4.2919,-4.2919,-4.2919,-4.2919,-4.2919,-4.2919,-4.2919,-4.2919,-4.2919,-4.2919,-4.2919,-4.2847,-4.2665,-4.2466,-4.2103,-4.1687,-4.0963,-4.0256,-3.9822,-3.9423,-3.9079,-3.8752,-3.8517,-3.8299,-3.8064,-3.7937,-3.7774,-3.7538,-3.7087,-3.6469,-3.5817,-3.4999,-3.4791,-3.4869,-3.4517,-3.426,-3.4192,-3.4174,-3.417,-3.4174,-3.4192,-3.3978,-3.3619,-3.3066,-3.2432,-3.1435,-3.0268,-2.9206,-2.8289,-2.8315,-2.861,-2.8799,-2.911,-2.9128,-2.8989,-2.8922,-2.8783,-4.7479,-4.7022,-4.7699,-4.8423,-4.8738,-4.7969,-4.7626,-4.7789,-4.818,-4.8328,-4.8081,-4.8582,-4.8798,-4.8494,-4.8122,-4.8022,-4.7629,-4.714,-4.7144,-4.8276,-4.7788,-4.7744,-4.791,-4.8323,-4.7422,-4.7447,-4.7068,-4.597,-4.5631,-4.5347,-4.5425,-4.6042,-4.6543,-4.6863,-4.699,-4.6786,-4.6918,-4.7373,-4.692,-4.6196,-4.5436,-4.5001,-4.4512,-4.3209,-4.2919,-4.2919,-4.2919,-4.2919,-4.2919,-4.2919,-4.2919,-4.2919,-4.2919,-4.2919,-4.2919,-4.2919,-4.2919,-4.2919,-4.2919,-4.2919,-4.2919,-4.2919,-4.2919,-4.2919,-4.2919,-4.2919,-4.2919,-4.2919,-4.2919,-4.2919,-4.2774,-4.2701,-4.2448,-4.2103,-4.1542,-4.0999,-4.0655,-4.0075,-3.9387,-3.8989,-3.8535,-3.8317,-3.8138,-3.7991,-3.7937,-3.781,-3.7575,-3.6941,-3.6433,-3.5745,-3.552,-3.5638,-3.5256,-3.4885,-3.4723,-3.4706,-3.4692,-3.4697,-3.4632,-3.4289,-3.3748,-3.3281,-3.2817,-3.1879,-3.0947,-3.0224,-2.9547,-2.9378,-2.94,-2.9903,-3.0213,-3.0489,-3.042,-3.0162,-2.9764,-4.731,-4.7686,-4.8443,-4.8562,-4.8071,-4.7305,-4.6707,-4.6244,-4.6355,-4.7046,-4.78,-4.8041,-4.8142,-4.8058,-4.7953,-4.773,-4.7085,-4.6651,-4.6475,-4.6778,-4.6734,-4.6466,-4.6368,-4.6916,-4.6464,-4.567,-4.5298,-4.5449,-4.5094,-4.4933,-4.5008,-4.5511,-4.6042,-4.6406,-4.6786,-4.655,-4.6783,-4.7443,-4.6432,-4.5888,-4.5309,-4.4566,-4.3879,-4.3173,-4.2919,-4.2919,-4.2919,-4.2919,-4.2919,-4.2919,-4.2919,-4.2919,-4.2919,-4.2919,-4.2919,-4.2919,-4.2919,-4.2919,-4.2919,-4.2919,-4.2919,-4.2919,-4.2919,-4.2919,-4.2919,-4.2919,-4.2919,-4.2919,-4.2919,-4.2919,-4.2882,-4.2864,-4.2773,-4.2392,-4.2084,-4.1741,-4.1397,-4.0655,-3.9822,-3.9278,-3.8752,-3.8444,-3.8282,-3.8119,-3.8082,-3.8064,-3.8064,-3.7774,-3.7502,-3.6941,-3.6315,-3.6253,-3.5967,-3.5641,-3.5458,-3.5457,-3.5555,-3.5,-3.4692,-3.4307,-3.3917,-3.3876,-3.3731,-3.2654,-3.1708,-3.1206,-3.0659,-2.9989,-3.0155,-3.0768,-3.0904,-3.1025,-3.141,-3.1307,-3.0889,-4.6363,-4.6583,-4.7581,-4.8003,-4.7753,-4.7107,-4.6549,-4.6126,-4.55,-4.6041,-4.7276,-4.7411,-4.7411,-4.7411,-4.7411,-4.7056,-4.638,-4.594,-4.5699,-4.5685,-4.572,-4.5426,-4.5436,-4.5737,-4.5476,-4.4812,-4.4649,-4.4682,-4.4598,-4.4626,-4.4841,-4.5045,-4.5528,-4.6007,-4.6442,-4.6364,-4.6519,-4.7045,-4.5635,-4.4983,-4.4856,-4.4277,-4.3698,-4.3155,-4.2919,-4.2919,-4.2919,-4.2919,-4.2919,-4.2919,-4.2919,-4.2919,-4.2919,-4.2919,-4.2919,-4.2919,-4.2919,-4.2919,-4.2919,-4.2919,-4.2919,-4.2919,-4.2919,-4.2919,-4.2919,-4.2919,-4.2919,-4.2919,-4.2919,-4.2919,-4.2787,-4.275,-4.2539,-4.2245,-4.2214,-4.2053,-4.1845,-4.147,-4.0963,-4.0619,-3.9967,-3.9224,-3.8952,-3.8427,-3.8427,-3.8662,-3.8607,-3.8209,-3.8009,-3.7881,-3.7348,-3.6958,-3.669,-3.6568,-3.6464,-3.6487,-3.6582,-3.5881,-3.4945,-3.4908,-3.4871,-3.4908,-3.4637,-3.3585,-3.2857,-3.2598,-3.1976,-3.128,-3.1053,-3.1551,-3.1515,-3.1389,-3.1828,-3.2179,-3.183,-4.5235,-4.4987,-4.6215,-4.7158,-4.7567,-4.6955,-4.6616,-4.635,-4.5184,-4.5252,-4.6224,-4.6342,-4.6519,-4.665,-4.6633,-4.6194,-4.5805,-4.55,-4.5134,-4.4987,-4.4806,-4.4777,-4.4936,-4.5168,-4.4919,-4.4795,-4.4615,-4.4598,-4.4598,-4.4598,-4.4626,-4.4692,-4.5089,-4.5588,-4.5888,-4.5962,-4.6129,-4.6362,-4.5653,-4.4675,-4.4331,-4.4079,-4.3499,-4.31,-4.2919,-4.2919,-4.2919,-4.2919,-4.2919,-4.2919,-4.2919,-4.2919,-4.2919,-4.2919,-4.2919,-4.2919,-4.2919,-4.2919,-4.2919,-4.2919,-4.2919,-4.2919,-4.2919,-4.2919,-4.2919,-4.2919,-4.2919,-4.2919,-4.2919,-4.2881,-4.2768,-4.2614,-4.2418,-4.2198,-4.2223,-4.2246,-4.2142,-4.2029,-4.1795,-4.1541,-4.0836,-4.0021,-3.9604,-3.9043,-3.8952,-3.9187,-3.9006,-3.8553,-3.8225,-3.8167,-3.7889,-3.7697,-3.7557,-3.7457,-3.7284,-3.7219,-3.7221,-3.6541,-3.5716,-3.5771,-3.5775,-3.5642,-3.5278,-3.4553,-3.3981,-3.3927,-3.3486,-3.2789,-3.2697,-3.2441,-3.1881,-3.163,-3.1791,-3.2126,-3.2406,-4.4946,-4.5568,-4.6267,-4.6735,-4.6887,-4.6244,-4.5819,-4.5534,-4.4759,-4.45,-4.4745,-4.4749,-4.5021,-4.5906,-4.5923,-4.5703,-4.5488,-4.5133,-4.5199,-4.5209,-4.4688,-4.4491,-4.4525,-4.4755,-4.4705,-4.4621,-4.457,-4.4598,-4.4553,-4.457,-4.4598,-4.4609,-4.5035,-4.5502,-4.5951,-4.6046,-4.6135,-4.6356,-4.6069,-4.52,-4.5091,-4.4512,-4.3227,-4.2937,-4.2919,-4.2919,-4.2919,-4.2919,-4.2919,-4.2919,-4.2919,-4.2919,-4.2919,-4.2919,-4.2919,-4.2919,-4.2919,-4.2919,-4.2919,-4.2919,-4.2919,-4.2919,-4.2919,-4.2919,-4.2919,-4.2919,-4.2919,-4.2919,-4.2919,-4.2919,-4.2806,-4.271,-4.2498,-4.2177,-4.2038,-4.2098,-4.208,-4.1907,-4.1719,-4.1431,-4.0998,-4.0637,-4.0528,-4.0075,-3.9731,-3.9786,-3.9567,-3.9132,-3.8747,-3.858,-3.8467,-3.8492,-3.8462,-3.7918,-3.7558,-3.7558,-3.7422,-3.6853,-3.6486,-3.6523,-3.6431,-3.6211,-3.5772,-3.525,-3.5363,-3.5516,-3.4956,-3.41,-3.3716,-3.33,-3.2299,-3.1838,-3.1981,-3.2247,-3.2634]},{"header":{"parameterUnit":"m.s-1","parameterCategory":1,"la1":31.0,"la2":29.5877,"lo1":-88.7671,"lo2":-86.6584,"dy":0.0162,"dx":0.0185,"nx":115,"ny":88,"refTime":"2024-05-05T12:00:00:Z","depth":0,"parameterNumber":3,"parameterNumberName":"V-component_of_WINDS"},"data":[0.0,0.0,0.0,0.0,0.0,0.0,0.0,0.0,0.0,0.0,0.0,0.0,0.0,0.0,0.0,0.0,0.0,0.0,0.0,0.0,0.0,0.0,0.0,0.0,0.0,0.0,0.0,0.0,0.0,0.0,0.0,0.0,0.0,0.0,0.0,0.0,0.0,0.0,0.0,0.0,0.0,0.0,0.0,0.0,0.0,0.0,0.0,0.0,0.0,0.0,0.0,0.0,0.0,0.0,0.0,0.0,0.0,0.0,0.0,0.0,0.0,0.0,0.0,0.0,0.0,0.0,0.0,0.0,0.0,0.0,0.0,0.0,0.0,0.0,0.0,0.0,0.0,0.0,0.0,0.0,0.0,0.0,0.0,0.0,0.0,0.0,0.0,0.0,0.0,0.0,0.0,0.0,0.0,0.0,0.0,0.0,0.0,0.0,0.0,0.0,0.0,0.0,0.0,0.0,0.0,0.0,0.0,0.0,0.0,0.0,0.0,0.0,0.0,0.0,0.0,0.0,0.0,0.0,0.0,0.0,0.0,0.0,0.0,0.0,0.0,0.0,0.0,0.0,0.0,0.0,0.0,0.0,0.0,0.0,0.0,0.0,0.0,0.0,0.0,0.0,0.0,0.0,0.0,0.0,0.0,0.0,0.0,0.0,0.0,0.0,0.0,0.0,0.0,0.0,0.0,0.0,0.0,0.0,0.0,0.0,0.0,0.0,0.0,0.0,0.0,0.0,0.0,0.0,0.0,0.0,0.0,0.0,0.0,0.0,0.0,0.0,0.0,0.0,0.0,0.0,0.0,0.0,0.0,0.0,0.0,0.0,0.0,0.0,0.0,0.0,0.0,0.0,0.0,0.0,0.0,0.0,0.0,0.0,0.0,0.0,0.0,0.0,0.0,0.0,0.0,0.0,0.0,0.0,0.0,0.0,0.0,0.0,0.0,0.0,0.0,0.0,0.0,0.0,0.0,0.0,0.0,0.0,0.0,0.0,0.0,0.0,0.0,0.0,0.0,0.0,0.0,0.0,0.0,0.0,0.0,0.0,0.0,0.0,0.0,0.0,0.0,0.0,0.0,0.0,0.0,0.0,0.0,0.0,0.0,0.0,0.0,0.0,0.0,0.0,0.0,0.0,0.0,0.0,0.0,0.0,0.0,0.0,0.0,0.0,0.0,0.0,0.0,0.0,0.0,0.0,0.0,0.0,0.0,0.0,0.0,0.0,0.0,0.0,0.0,0.0,0.0,0.0,0.0,0.0,0.0,0.0,0.0,0.0,0.0,0.0,0.0,0.0,0.0,0.0,0.0,0.0,0.0,0.0,0.0,0.0,0.0,0.0,0.0,0.0,0.0,0.0,0.0,0.0,0.0,0.0,0.0,0.0,0.0,0.0,0.0,0.0,0.0,0.0,0.0,0.0,0.0,0.0,0.0,0.0,0.0,0.0,0.0,0.0,0.0,0.0,0.0,0.0,0.0,0.0,0.0,0.0,0.0,0.0,0.0,0.0,0.0,0.0,0.0,0.0,0.0,0.0,0.0,0.0,0.0,0.0,0.0,0.0,0.0,0.0,0.0,0.0,0.0,0.0,0.0,0.0,0.0,0.0,0.0,0.0,0.0,0.0,0.0,0.0,0.0,0.0,0.0,0.0,0.0,0.0,0.0,0.0,0.0,0.0,0.0,0.0,0.0,0.0,0.0,0.0,0.0,0.0,0.0,0.0,0.0,0.0,0.0,0.0,0.0,0.0,0.0,0.0,0.0,0.0,0.0,0.0,0.0,0.0,0.0,0.0,0.0,0.0,0.0,0.0,0.0,0.0,0.0,0.0,0.0,0.0,0.0,0.0,0.0,0.0,0.0,0.0,0.0,0.0,0.0,0.0,0.0,0.0,0.0,0.0,0.0,0.0,0.0,0.0,0.0,0.0,0.0,0.0,0.0,0.0,0.0,0.0,0.0,0.0,0.0,0.0,0.0,0.0,0.0,0.0,0.0,0.0,0.0,0.0,0.0,0.0,0.0,0.0,0.0,0.0,0.0,0.0,0.0,0.0,0.0,0.0,0.0,0.0,0.0,0.0,0.0,0.0,0.0,0.0,0.0,0.0,0.0,0.0,0.0,0.0,0.0,0.0,0.0,0.0,0.0,0.0,0.0,0.0,0.0,0.0,0.0,0.0,0.0,0.0,0.0,0.0,0.0,0.0,0.0,0.0,0.0,0.0,0.0,0.0,0.0,0.0,0.0,0.0,0.0,0.0,0.0,0.0,0.0,0.0,0.0,0.0,0.0,0.0,0.0,0.0,0.0,0.0,0.0,0.0,0.0,0.0,0.0,0.0,0.0,0.0,0.0,0.0,0.0,0.0,0.0,0.0,0.0,0.0,0.0,0.0,0.0,0.0,0.0,0.0,0.0,0.0,0.0,0.0,0.0,0.0,0.0,0.0,0.0,0.0,0.0,0.0,0.0,0.0,0.0,0.0,0.0,0.0,0.0,0.0,0.0,0.0,0.0,0.0,0.0,0.0,0.0,0.0,0.0,0.0,0.0,0.0,0.0,0.0,0.0,0.0,0.0,0.0,0.0,0.0,0.0,0.0,0.0,0.0,0.0,0.0,0.0,0.0,0.0,0.0,0.0,0.0,0.0,0.0,0.0,0.0,0.0,0.0,0.0,0.0,0.0,0.0,0.0,0.0,0.0,0.0,0.0,0.0,0.0,0.0,0.0,0.0,0.0,0.0,0.0,0.0,0.0,0.0,0.0,0.0,0.0,0.0,0.0,0.0,0.0,0.0,0.0,0.0,0.0,0.0,0.0,0.0,0.0,0.0,0.0,0.0,0.0,0.0,0.0,0.0,0.0,0.0,0.0,0.0,0.0,0.0,0.0,0.0,0.0,0.0,0.0,0.0,0.0,0.0,0.0,0.0,0.0,0.0,0.0,0.0,0.0,0.0,0.0,0.0,0.0,0.0,0.0,0.0,0.0,0.0,0.0,0.0,0.0,0.0,0.0,0.0,0.0,0.0,0.0,0.0,0.0,0.0,0.0,0.0,0.0,0.0,0.0,0.0,0.0,0.0,0.0,0.0,0.0,0.0,0.0,0.0,0.0,0.0,0.0,0.0,0.0,0.0,0.0,0.0,0.0,0.0,0.0,0.0,0.0,0.0,0.0,0.0,0.0,0.0,0.0,0.0,0.0,0.0,0.0,0.0,0.0,0.0,0.0,0.0,0.0,0.0,0.0,0.0,0.0,0.0,0.0,0.0,0.0,0.0,0.0,0.0,0.0,0.0,0.0,0.0,0.0,0.0,0.0,0.0,0.0,0.0,0.0,0.0,0.0,0.0,0.0,0.0,0.0,0.0,0.0,0.0,0.0,0.0,0.0,0.0,0.0,0.0,0.0,0.0,0.0,0.0,0.0,0.0,0.0,0.0,0.0,0.0,0.0,0.0,0.0,0.0,0.0,0.0,0.0,0.0,0.0,0.0,0.0,0.0,0.0,0.0,0.0,0.0,0.0,0.0,0.0,0.0,0.0,0.0,0.0,0.0,0.0,0.0,0.0,0.0,0.0,0.0,0.0,0.0,0.0,0.0,0.0,0.0,0.0,0.0,0.0,0.0,0.0,0.0,0.0,0.0,0.0,0.0,0.0,0.0,0.0,0.0,0.0,0.0,0.0,0.0,0.0,0.0,0.0,0.0,0.0,0.0,0.0,0.0,0.0,0.0,0.0,0.0,0.0,0.0,0.0,0.0,0.0,0.0,0.0,0.0,0.0,0.0,0.0,0.0,0.0,0.0,0.0,0.0,0.0,0.0,0.0,0.0,0.0,0.0,0.0,0.0,0.0,0.0,0.0,0.0,0.0,0.0,0.0,0.0,0.0,0.0,0.0,0.0,0.0,0.0,0.0,0.0,0.0,0.0,0.0,0.0,0.0,0.0,0.0,0.0,0.0,0.0,0.0,0.0,0.0,0.0,0.0,0.0,0.0,0.0,0.0,0.0,0.0,0.0,0.0,0.0,0.0,0.0,0.0,0.0,0.0,0.0,0.0,0.0,0.0,0.0,0.0,0.0,0.0,0.0,0.0,0.0,0.0,0.0,0.0,0.0,0.0,0.0,0.0,0.0,0.0,0.0,0.0,0.0,0.0,0.0,0.0,0.0,0.0,0.0,0.0,0.0,0.0,0.0,0.0,0.0,0.0,0.0,0.0,0.0,0.0,0.0,0.0,0.0,0.0,0.0,0.0,0.0,0.0,0.0,0.0,0.0,0.0,0.0,0.0,0.0,0.0,0.0,0.5824,0.0,0.0,0.0,0.0,0.0,0.0,0.0,0.0,0.0,0.0,0.0,0.0,0.0,0.0,0.0,0.0,0.0,0.0,0.0,0.0,0.0,0.0,0.0,0.0,0.0,0.0,0.0,0.0,0.0,0.0,0.0,0.0,0.0,0.0,0.0,0.0,0.0,0.0,0.0,0.0,0.0,0.0,0.0,0.0,0.0,0.0,0.0,0.0,0.0,0.0,0.0,0.0,0.0,0.0,0.0,0.0,0.0,0.0,0.0,0.0,0.0,0.0,0.0,0.0,0.0,0.0,0.0,0.0,0.0,0.0,0.0,0.0,0.0,0.0,0.0,0.0,0.0,0.0,0.0,0.0,0.0,0.0,0.0,0.0,0.0,0.0,0.0,0.0,0.0,0.0,0.0,0.0,0.0,0.0,0.0,0.0,0.0,0.0,0.0,0.0,0.0,0.0,0.0,0.0,0.0,0.0,0.0,0.0,0.0,0.0,0.4115,0.4774,0.467,0.5139,0.6234,0.0,0.0,0.0,0.0,0.0,0.0,0.0,0.0,0.0,0.0,0.0,0.0,0.0,0.0,0.0,0.0,0.0,0.0,0.0,0.0,0.0,0.0,0.0,0.0,0.0,0.0,0.0,0.0,0.0,0.0,0.0,0.0,0.0,0.0,0.0,0.0,0.0,0.0,0.0,0.0,0.0,0.0,0.0,0.0,0.0,0.0,0.0,0.0,0.0,0.0,0.0,0.0,0.0,0.0,0.0,0.0,0.0,0.0,0.0,0.0,0.0,0.0,0.0,0.0,0.0,0.0,0.0,0.0,0.0,0.0,0.0,0.0,0.0,0.0,0.0,0.0,0.0,0.0,0.0,0.0,0.0,0.0,0.0,0.0,0.0,0.0,0.0,0.0,0.0,0.0,0.0,0.0,0.0,0.0,0.0,0.0,0.0,0.0,0.0,0.0,0.0,0.0,0.0,0.0,0.0,0.0,0.0,0.0,0.0,0.0,0.0,0.0,0.4878,0.5493,0.6759,0.0,0.0,0.0,0.0,0.0,0.0,0.0,0.0,0.0,0.0,0.0,0.0,0.0,0.0,0.0,0.0,0.0,0.0,0.0,0.0,0.0,0.0,0.0,0.0,0.0,0.0,0.0,0.0,0.0,0.0,0.0,0.0,0.0,0.0,0.0,0.0,0.0,0.0,0.0,0.0,0.0,0.0,0.0,0.0,0.0,0.0,0.0,0.0,0.0,0.0,0.0,0.0,0.0,0.0,0.0,0.0,0.0,0.0,0.0,0.0,0.0,0.0,0.0,0.0,0.0,0.0,0.0,0.0,0.0,0.0,0.0,0.0,0.0,0.0,0.0,0.0,0.0,0.0,0.0,0.0,0.0,0.0,0.0,0.0,0.0,0.0,0.0,0.0,0.0,0.0,0.0,0.0,0.0,0.0,0.0,0.0,0.0,0.0,0.0,0.0,0.0,0.0,0.0,0.0,0.0,0.0,0.0,0.0,0.0,0.0,0.4264,0.5047,0.6097,0.0,0.7709,0.0,0.0,0.0,0.0,0.0,0.0,0.0,0.0,0.0,0.0,0.0,0.0,0.0,0.0,0.0,0.0,0.0,0.0,0.0,0.0,0.0,0.0,0.0,0.0,0.0,0.0,0.0,0.0,0.0,0.0,0.0,0.0,0.0,0.0,0.0,0.0,0.0,0.0,0.0,0.0,0.0,0.0,0.0,0.0,0.0,0.0,0.0,0.0,0.0,0.0,0.0,0.0,0.0,0.0,0.0,0.0,0.0,0.0,0.0,0.0,0.0,0.0,0.0,0.0,0.0,0.0,0.0,0.0,0.0,0.0,0.0,0.0,0.0,0.0,0.0,0.0,0.0,0.0,0.0,0.0,0.0,0.0,0.0,0.0,0.0,0.0,0.0,0.0,0.0,0.0,0.0,0.0,0.0,0.0,0.0,0.0,0.0,0.0,0.0,0.0,0.0,0.0,0.0,0.0,0.0,0.0,0.0,0.0,0.0,0.0,0.4675,0.5274,0.6652,0.7358,0.0,0.0,0.0,0.0,0.0,0.0,0.0,0.0,0.0,0.0,0.0,0.0,0.0,0.0,0.0,0.0,0.0,0.0,0.0,0.0,0.0,0.0,0.0,0.0,0.0,0.0,0.0,0.0,0.0,0.0,0.0,0.0,0.0,0.0,0.0,0.0,0.0,0.0,0.0,0.0,0.0,0.0,0.0,0.0,0.0,0.0,0.0,0.0,0.0,0.0,0.0,0.0,0.0,0.0,0.0,0.0,0.0,0.0,0.0,0.0,0.0,0.0,0.0,0.0,0.0,0.0,0.0,0.0,0.0,0.0,0.0,0.0,0.0,0.0,0.0,0.0,0.0,0.0,0.0,0.0,0.0,0.0,0.0,0.0,0.0,0.0,0.0,0.0,0.0,0.0,0.0,0.0,0.0,0.0,0.0,0.0,0.0,0.0,0.0,0.0,0.0,0.0,0.0,0.0,0.0,0.0,0.0,0.0,0.0,0.0,0.4054,0.4885,0.5756,0.6779,0.7204,0.703,0.0,0.0,0.0,0.0,0.0,0.0,0.0,0.0,0.0,0.0,0.0,0.0,0.0,0.0,0.0,0.0,0.0,0.0,0.0,0.0,0.0,0.0,0.0,0.0,0.0,0.0,0.0,0.0,0.0,0.0,0.0,0.0,0.0,0.0,0.0,0.0,0.0,0.0,0.0,0.0,0.0,0.0,0.0,0.0,0.0,0.0,0.0,0.0,0.0,0.0,0.0,0.0,0.0,0.0,0.0,0.0,0.0,0.0,0.0,0.0,0.0,0.0,0.0,0.0,0.0,0.0,0.0,0.0,0.0,0.0,0.0,0.0,0.0,0.0,0.0,0.0,0.0,0.0,0.0,0.0,0.0,0.0,0.0,0.0,0.0,0.0,0.0,0.0,0.0,0.0,0.0,0.0,0.0,0.0,0.0,0.0,0.0,0.0,0.0,0.0,0.0,0.0,0.0,0.0,0.0,0.0,0.0,0.0,0.415,0.4007,0.4803,0.6529,0.6457,0.6736,0.0,0.0,0.0,0.0,0.0,0.0,0.0,0.0,0.0,0.0,0.0,0.0,0.0,0.0,0.0,0.0,0.0,0.0,0.0,0.0,0.0,0.0,0.0,0.0,0.0,0.0,0.0,0.0,0.0,0.0,0.0,0.0,0.0,0.0,0.0,0.0,0.0,0.0,0.0,0.0,0.0,0.0,0.0,0.0,0.0,0.0,0.0,0.0,0.0,0.0,0.0,0.0,0.0,0.0,0.0,0.0,0.0,0.0,0.0,0.0,0.0,0.0,0.0,0.0,0.0,0.0,0.0,0.0,0.0,0.0,0.0,0.0,0.0,0.0,0.0,0.0,0.0,0.0,0.0,0.0,0.0,0.0,0.0,0.0,0.0,0.0,0.0,0.0,0.0,0.0,0.0,0.0,0.0,0.0,0.0,0.0,0.0,0.0,0.0,0.0,0.0,0.0,0.0,0.0,0.0,0.0,0.0,0.0,0.0,0.3612,0.4115,0.4993,0.6197,0.6273,0.645,0.0,0.0,0.0,0.0,0.0,0.0,0.0,0.0,0.0,0.0,0.0,0.0,0.0,0.0,0.0,0.0,0.0,0.0,0.0,0.0,0.0,0.0,0.0,0.0,0.0,0.0,0.0,0.0,0.0,0.0,0.0,0.0,0.0,0.0,0.0,0.0,0.0,0.0,0.0,0.0,0.0,0.0,0.0,0.0,0.0,0.0,0.0,0.0,0.0,0.0,0.0,0.0,0.0,0.0,0.0,0.0,0.0,0.0,0.0,0.0,0.0,0.0,0.0,0.0,0.0,0.0,0.0,0.0,0.0,0.0,0.0,0.0,0.0,0.0,0.0,0.0,0.0,0.0,0.0,0.0,0.0,0.0,0.0,0.0,0.0,0.0,0.0,0.0,0.0,0.0,0.0,0.0,0.0,0.0,0.0,0.0,0.0,0.0,0.0,0.0,0.0,0.0,0.0,0.0,0.0,0.0,0.0,0.0,0.0,0.3175,0.0,0.4643,0.5147,0.5485,0.5707,0.0,0.0,0.0,0.0,0.0,0.0,0.0,0.0,0.0,0.0,0.0,0.0,0.0,0.0,0.0,0.0,0.0,0.0,0.0,0.0,0.0,0.0,0.0,0.0,0.0,0.0,0.0,0.0,0.0,0.0,0.0,0.0,0.0,0.0,0.0,0.0,0.0,0.0,0.0,0.0,0.0,0.0,0.0,0.0,0.0,0.0,0.0,0.0,0.0,0.0,0.0,0.0,0.0,0.0,0.0,0.0,0.0,0.0,0.0,0.0,0.0,0.0,0.0,0.0,0.0,0.0,0.0,0.0,0.0,0.0,0.0,0.0,0.0,0.0,0.0,0.0,0.0,0.0,0.0,0.0,0.0,0.0,0.0,0.0,0.0,0.0,0.0,0.0,0.0,0.0,0.0,0.0,0.0,0.0,0.0,0.0,0.0,0.0,0.0,0.0,0.0,0.0,0.0,0.0,0.0,0.0,0.0,0.0,0.426,0.2999,0.3493,0.3748,0.3448,0.4062,0.4491,0.0,0.0,0.0,0.0,0.0,0.0,0.0,0.0,0.0,0.0,0.0,0.0,0.0,0.0,0.0,0.0,0.0,0.0,0.0,0.0,0.0,0.0,0.0,0.0,0.0,0.0,0.0,0.0,0.0,0.0,0.0,0.0,0.0,0.0,0.0,0.0,0.0,0.0,0.0,0.0,0.0,0.0,0.0,0.0,0.0,0.0,0.0,0.0,0.0,0.0,0.0,0.0,0.0,0.0,0.0,0.0,0.0,0.0,0.0,0.0,0.0,0.0,0.0,0.0,0.0,0.0,0.0,0.0,0.0,0.0,0.0,0.0,0.0,0.0,0.0,0.0,0.0,0.0,0.0,0.0,0.0,0.0,0.0,0.0,0.0,0.0,0.0,0.0,0.0,0.0,0.0,0.0,0.0,0.0,0.0,0.0,0.0,0.0,0.0,0.0,0.0,0.0,0.0,0.0,0.0,0.0,0.0,0.0,0.0,0.28,0.358,0.3784,0.3363,0.3964,0.4426,0.0,0.0,0.0,0.0,0.0,0.0,0.0,0.0,0.0,0.0,0.0,0.0,0.0,0.0,0.0,0.0,0.0,0.0,0.0,0.0,0.0,0.0,0.0,0.0,0.0,0.0,0.0,0.0,0.0,0.0,0.0,0.0,0.0,0.0,0.0,0.0,0.0,0.0,0.0,0.0,0.0,0.0,0.0,0.0,0.0,0.0,0.0,0.0,0.0,0.0,0.0,0.0,0.0,0.0,0.0,0.0,0.0,0.0,0.0,0.0,0.0,0.0,0.0,0.0,0.0,0.0,0.0,0.0,0.0,0.0,0.0,0.0,0.0,0.0,0.0,0.0,0.0,0.0,0.0,0.0,0.0,0.0,0.0,0.0,0.0,0.0,0.0,0.0,0.0,0.0,0.0,0.0,0.0,0.0,0.0,0.0,0.0,0.0,0.0,0.0,0.0,0.0,0.0,0.0,0.0,0.0,0.0,0.0,0.0,0.2204,0.2972,0.3188,0.2674,0.3413,0.3934,0.4216,0.0,0.0,0.0,0.0,0.0,0.0,0.0,0.0,0.0,0.0,0.0,0.0,0.0,0.0,0.0,0.0,0.0,0.0,0.0,0.0,0.0,0.0,0.0,0.0,0.0,0.0,0.0,0.0,0.0,0.0,0.0,0.0,0.0,0.0,0.0,0.0,0.0,0.0,0.0,0.0,0.0,0.0,0.0,0.0,0.0,0.0,0.0,0.0,0.0,0.0,0.0,0.0,0.0,0.0,0.0,0.0,0.0,0.0,0.0,0.0,0.0,0.0,0.0,0.0,0.0,0.0,0.0,0.0,0.0,0.0,0.0,0.0,0.0,0.0,0.0,0.0,0.0,0.0,0.0,0.0,0.0,0.0,0.0,0.0,0.0,0.0,0.0,0.0,0.0,0.0,0.0,0.0,0.0,0.0,0.0,0.0,0.0,0.0,0.0,0.0,0.0,0.0,0.0,0.0,0.0,0.0,0.0,0.0,0.1215,0.1871,0.2081,0.1731,0.2581,0.3151,0.0,0.0,0.0,0.0,0.0,0.0,0.0,0.0,0.0,0.0,0.0,0.0,0.0,0.0,0.0,0.0,0.0,0.0,0.0,0.0,0.0,0.0,0.0,0.0,0.0,0.0,0.0,0.0,0.0,0.0,0.0,0.0,0.0,0.0,0.0,0.0,0.0,0.0,0.0,0.0,0.0,0.0,0.0,0.0,0.0,0.0,0.0,0.0,0.0,0.0,0.0,0.0,0.0,0.0,0.0,0.0,0.0,0.0,0.0,0.0,0.0,0.0,0.0,0.0,0.0,0.0,0.0,0.0,0.0,0.0,0.0,0.0,0.0,0.0,0.0,0.0,0.0,0.0,0.0,0.0,0.0,0.0,0.0,0.0,0.0,0.0,0.0,0.0,0.0,0.0,0.0,0.0,0.0,0.0,0.0,0.0,0.0,0.0,0.0,0.0,0.0,0.0,0.0,0.0,0.0,0.0,0.0,0.0,0.0,0.1312,0.1388,0.1721,0.2373,0.2882,0.3383,0.0,0.0,0.0,0.0,0.0,0.0,0.0,0.0,0.0,0.0,0.0,0.0,0.0,0.0,0.0,0.0,0.0,0.0,0.0,0.0,0.0,0.0,0.0,0.0,0.0,0.0,0.0,0.0,0.0,0.0,0.0,0.0,0.0,0.0,0.0,0.0,0.0,0.0,0.0,0.0,0.0,0.0,0.0,0.0,0.0,0.0,0.0,0.0,0.0,0.0,0.0,0.0,0.0,0.0,0.0,0.0,0.0,0.0,0.0,0.0,0.0,0.0,0.0,0.0,0.0,0.0,0.0,0.0,0.0,0.0,0.0,0.0,0.0,0.0,0.0,0.0,0.0,0.0,0.0,0.0,0.0,0.0,0.0,0.0,0.0,0.0,0.0,0.0,0.0,0.0,0.0,0.0,0.0,0.0,0.0,0.0,0.0,0.0,0.0,0.0,0.0,0.0,0.0,0.0,0.0,0.0,0.0,0.0,0.2064,0.1485,0.1293,0.1564,0.2394,0.2949,0.3512,0.0,0.0,0.0,0.0,0.0,0.0,0.0,0.0,0.0,0.0,0.0,0.0,0.0,0.0,0.0,0.0,0.0,0.0,0.0,0.0,0.0,0.0,0.0,0.0,0.0,0.0,0.0,0.0,0.0,0.0,0.0,0.0,0.0,0.0,0.0,0.0,0.0,0.0,0.0,0.0,0.0,0.0,0.0,0.0,0.0,0.0,0.0,0.0,0.0,0.0,0.0,0.0,0.0,0.0,0.0,0.0,0.0,0.0,0.0,0.0,0.0,0.0,0.0,0.0,0.0,0.0,0.0,0.0,0.0,0.0,0.0,0.0,0.0,0.0,0.0,0.0,0.0,0.0,0.0,0.0,0.0,0.0,0.0,0.0,0.0,0.0,0.0,0.0,0.0,0.0,0.0,0.0,0.0,0.0,0.0,0.0,0.0,0.0,0.0,0.0,0.0,0.0,0.0,0.0,0.0,0.0,0.0,0.0,0.2162,0.1628,0.1398,0.1556,0.2027,0.2835,0.3508,0.0,0.0,0.0,0.0,0.0,0.0,0.0,0.0,0.0,0.0,0.0,0.0,0.0,0.0,0.0,0.0,0.0,0.0,0.0,0.0,0.0,0.0,0.0,0.0,0.0,0.0,0.0,0.0,0.0,0.0,0.0,0.0,0.0,0.0,0.0,0.0,0.0,0.0,0.0,0.0,0.0,0.0,0.0,0.0,0.0,0.0,0.0,0.0,0.0,0.0,0.0,0.0,0.0,0.0,0.0,0.0,0.0,0.0,0.0,0.0,0.0,0.0,0.0,0.0,0.0,0.0,0.0,0.0,0.0,0.0,0.0,0.0,0.0,0.0,0.0,0.0,0.0,0.0,0.0,0.0,0.0,0.0,0.0,0.0,0.0,0.0,0.0,0.0,0.0,0.0,0.0,0.0,0.0,0.0,0.0,0.0,0.0,0.0,0.0,0.0,0.0,0.0,0.0,0.0,0.0,0.0,0.0,0.0,0.2039,0.1102,0.1247,0.1607,0.2223,0.2621,0.2996,0.0,0.0,0.0,0.0,0.0,0.0,0.0,0.0,0.0,0.0,0.0,0.0,0.0,0.0,0.0,0.0,0.0,0.0,0.0,0.0,0.0,0.0,0.0,0.0,0.0,0.0,0.0,0.0,0.0,0.0,0.0,0.0,0.0,0.0,0.0,0.0,0.0,0.0,0.0,0.0,0.0,0.0,0.0,0.0,0.0,0.0,0.0,0.0,0.5338,0.0,0.0,0.0,0.0,0.0,0.0,0.0,0.0,0.0,0.0,0.0,0.0,0.0,0.0,0.0,0.0,0.0,0.0,0.0,0.0,0.0,0.0,0.0,0.0,0.0,0.0,0.0,0.0,0.0,0.0,0.0,0.0,0.0,0.0,0.0,0.0,0.0,0.0,0.0,0.0,0.0,0.0,0.0,0.0,0.0,0.0,0.0,0.0,0.0,0.0,0.0,0.0,0.0,0.0,0.0,0.0,0.0,0.0,0.0,0.2178,0.1436,0.1338,0.1438,0.1759,0.2416,0.3045,0.0,0.0,0.0,0.0,0.0,0.0,0.0,0.0,0.0,0.0,0.0,0.0,0.0,0.0,0.0,0.0,0.0,0.0,0.0,0.0,0.0,0.0,0.0,0.0,0.0,0.0,0.0,0.0,0.0,0.0,0.0,0.0,0.0,0.0,0.0,0.0,0.0,0.0,0.0,0.0,0.0,0.0,0.0,0.0,0.0,0.0,0.0,0.0,0.0,0.0,0.0,0.0,0.0,0.0,0.0,0.0,0.0,0.0,0.0,0.0,0.0,0.0,0.0,0.0,0.0,0.0,0.0,0.0,0.0,0.0,0.0,0.0,0.0,0.0,0.0,0.0,0.0,0.0,0.0,0.0,0.0,0.0,0.0,0.0,0.0,0.0,0.0,0.0,0.0,0.0,0.0,0.0,0.0,0.0,0.0,0.0,0.0,0.0,0.0,0.0,0.0,0.0,0.0,0.0,0.0,0.0,0.0,0.284,0.2337,0.1856,0.1494,0.122,0.1128,0.2255,0.3208,0.3912,0.0,0.0,0.0,0.0,0.0,0.0,0.0,0.0,0.0,0.0,0.0,0.0,0.0,0.0,0.0,0.0,0.0,0.0,0.0,0.0,0.0,0.0,0.0,0.0,0.0,0.0,0.0,0.0,0.0,0.0,0.0,0.0,0.0,0.0,0.0,0.0,0.0,0.0,0.3673,0.3927,0.0,0.0,0.0,0.0,0.0,0.0,0.0,0.0,0.5369,0.0,0.0,0.0,0.0,0.0,0.0,0.0,0.0,0.0,0.0,0.0,0.0,0.0,0.0,0.0,0.0,0.0,0.0,0.0,0.0,0.0,0.0,0.0,0.0,0.0,0.0,0.0,0.0,0.0,0.0,0.0,0.0,0.0,0.0,0.0,0.0,0.0,0.0,0.0,0.0,0.0,0.0,0.0,0.0,0.0,0.0,0.0,0.0,0.0,0.0,0.0,0.0,0.0,0.0,0.0,0.0,0.2871,0.2693,0.216,0.1295,0.1238,0.1213,0.1222,0.2245,0.2899,0.3109,0.0,0.0,0.0,0.0,0.0,0.0,0.0,0.0,0.0,0.0,0.0,0.0,0.0,0.0,0.0,0.0,0.0,0.0,0.0,0.0,0.0,0.0,0.0,0.0,0.0,0.0,0.0,0.0,0.0,0.0,0.0,0.0,0.0,0.0,0.0,0.0,0.0,0.0,0.0,0.3723,0.4011,0.0,0.0,0.0,0.0,0.0,0.0,0.0,0.0,0.5081,0.0,0.0,0.0,0.0,0.0,0.0,0.0,0.0,0.0,0.0,0.0,0.0,0.0,0.0,0.0,0.0,0.0,0.0,0.0,0.0,0.0,0.0,0.0,0.0,0.0,0.0,0.0,0.0,0.0,0.0,0.0,0.0,0.0,0.0,0.0,0.0,0.0,0.0,0.0,0.0,0.0,0.0,0.0,0.0,0.0,0.0,0.0,0.0,0.0,0.0,0.0,0.0,0.0,0.0,0.0,0.3388,0.2806,0.2279,0.1674,0.1329,0.1139,0.1107,0.2033,0.2619,0.0,0.0,0.0,0.0,0.0,0.0,0.0,0.0,0.0,0.0,0.0,0.0,0.0,0.0,0.0,0.0,0.0,0.0,0.0,0.0,0.0,0.0,0.0,0.0,0.0,0.0,0.0,0.0,0.0,0.0,0.0,0.0,0.0,0.0,0.0,0.0,0.0,0.0,0.0,0.0,0.3765,0.3967,0.3734,0.0,0.0,0.0,0.0,0.0,0.0,0.4996,0.531,0.0,0.0,0.0,0.0,0.0,0.0,0.0,0.0,0.0,0.0,0.0,0.0,0.0,0.0,0.0,0.0,0.0,0.0,0.0,0.0,0.0,0.0,0.0,0.0,0.0,0.0,0.0,0.0,0.0,0.0,0.0,0.0,0.0,0.0,0.0,0.0,0.0,0.0,0.0,0.0,0.0,0.0,0.0,0.0,0.0,0.0,0.0,0.0,0.0,0.0,0.0,0.0,0.0,0.0,0.0,0.3859,0.3118,0.2591,0.2307,0.1771,0.1422,0.1389,0.2116,0.2627,0.0,0.0,0.0,0.0,0.0,0.0,0.0,0.0,0.0,0.0,0.0,0.0,0.0,0.0,0.0,0.0,0.0,0.0,0.0,0.0,0.0,0.0,0.0,0.0,0.0,0.0,0.0,0.0,0.0,0.0,0.0,0.0,0.0,0.0,0.0,0.0,0.0,0.0,0.0,0.0,0.0,0.3933,0.3766,0.3811,0.0,0.0,0.0,0.0,0.4831,0.5239,0.0,0.0,0.0,0.0,0.0,0.0,0.0,0.0,0.0,0.0,0.0,0.0,0.0,0.0,0.0,0.0,0.0,0.0,0.0,0.0,0.0,0.0,0.0,0.0,0.0,0.0,0.0,0.0,0.0,0.0,0.0,0.0,0.0,0.0,0.0,0.0,0.0,0.0,0.0,0.0,0.0,0.0,0.0,0.0,0.0,0.0,0.0,0.0,0.0,0.0,0.0,0.0,0.0,0.0,0.0,0.0,0.3691,0.3537,0.3232,0.2741,0.2647,0.2602,0.2582,0.3034,0.3347,0.0,0.0,0.0,0.0,0.0,0.0,0.0,0.0,0.0,0.0,0.0,0.0,0.0,0.0,0.0,0.0,0.0,0.0,0.0,0.0,0.0,0.0,0.0,0.0,0.0,0.0,0.0,0.0,0.0,0.0,0.0,0.0,0.0,0.0,0.0,0.0,0.0,0.0,0.0,0.0,0.0,0.3911,0.3881,0.4126,0.429,0.0,0.0,0.4487,0.4846,0.5232,0.0,0.0,0.0,0.0,0.0,0.0,0.0,0.0,0.0,0.0,0.0,0.0,0.0,0.0,0.0,0.0,0.0,0.0,0.0,0.0,0.0,0.0,0.0,0.0,0.0,0.0,0.0,0.0,0.0,0.0,0.0,0.0,0.0,0.0,0.0,0.0,0.0,0.0,0.0,0.0,0.0,0.0,0.0,0.0,0.0,0.0,0.0,0.0,0.0,0.0,0.0,0.0,0.0,0.0,0.0,0.457,0.4325,0.3847,0.3572,0.3518,0.3133,0.2867,0.2755,0.2922,0.3192,0.0,0.0,0.0,0.0,0.0,0.0,0.0,0.0,0.0,0.0,0.0,0.0,0.0,0.0,0.0,0.0,0.0,0.0,0.0,0.0,0.0,0.0,0.0,0.0,0.0,0.0,0.0,0.0,0.0,0.0,0.0,0.0,0.0,0.0,0.0,0.0,0.0,0.0,0.0,0.0,0.0,0.0,0.3728,0.4246,0.0,0.0,0.0,0.4822,0.5333,0.0,0.0,0.0,0.0,0.0,0.0,0.0,0.0,0.0,0.0,0.0,0.0,0.0,0.0,0.0,0.0,0.0,0.0,0.0,0.0,0.0,0.0,0.0,0.0,0.0,0.0,0.0,0.0,0.0,0.0,0.0,0.0,0.0,0.0,0.0,0.0,0.0,0.0,0.0,0.0,0.0,0.0,0.0,0.0,0.0,0.0,0.0,0.0,0.0,0.0,0.0,0.0,0.0,0.0,0.0,0.0,0.0,0.4763,0.4168,0.3973,0.4178,0.3704,0.331,0.3088,0.3053,0.0,0.0,0.0,0.0,0.0,0.0,0.0,0.0,0.0,0.0,0.0,0.0,0.0,0.0,0.0,0.0,0.0,0.0,0.0,0.0,0.0,0.0,0.0,0.0,0.0,0.0,0.0,0.0251,0.0,0.0,0.0,0.0,0.0,0.0,0.0,0.0,0.0,0.0,0.0,0.0,0.0,0.0,0.3707,0.365,0.4277,0.4597,0.0,0.0,0.5003,0.5574,0.5677,0.6031,0.0,0.0,0.0,0.0,0.0,0.0,0.0,0.0,0.0,0.0,0.0,0.0,0.0,0.0,0.0,0.0,0.0,0.0,0.0,0.0,0.0,0.0,0.0,0.0,0.0,0.0,0.0,0.0,0.0,0.0,0.0,0.0,0.0,0.0,0.0,0.0,0.0,0.0,0.0,0.0,0.0,0.0,0.0,0.0,0.0,0.0,0.0,0.0,0.0,0.0,0.0,0.0,0.0,0.0,0.0,0.4525,0.4594,0.4576,0.4465,0.455,0.4424,0.4124,0.3964,0.3969,0.0,0.0,0.0,0.0,0.0,0.0,0.0,0.0,0.0,0.0,0.0,0.0,0.0,0.0,0.0,0.0,0.0,0.0,0.0,0.0,0.0,0.0,0.0,0.0,0.0,0.0,0.0,0.0,0.0,0.0,0.0,0.0,0.0,0.0,0.0,0.0,0.0,0.0,0.0,0.0,0.0,0.3579,0.3769,0.4212,0.4518,0.0,0.0,0.4924,0.5295,0.5697,0.6233,0.7065,0.0,0.0,0.0,0.0,0.0,0.0,0.0,0.0,0.0,0.0,0.0,0.0,0.0,0.0,0.0,0.0,0.0,0.0,0.0,0.0,0.0,0.0,0.0,0.0,0.0,0.0,0.0,0.0,0.0,0.0,0.0,0.0,0.0,0.0,0.0,0.0,0.0,0.0,0.0,0.0,0.0,0.0,0.0,0.0,0.0,0.0,0.0,0.0,0.0,0.0,0.0,0.0,0.0,0.4586,0.4741,0.4737,0.4737,0.4738,0.4711,0.4548,0.423,0.3987,0.3951,0.0,0.0,0.0,0.0,0.0,0.0,0.0,0.0,0.0,0.0,0.0,0.0,0.0,0.0,0.0,0.0,0.0,0.0,0.0,0.0,0.0,0.0,0.0,0.0,0.0,0.0,0.0,0.0,0.0689,0.1551,0.277,0.0,0.0,0.0,0.0,0.0,0.0,0.0,0.0,0.0,0.0,0.3648,0.4121,0.4399,0.0,0.0,0.492,0.4991,0.5263,0.5467,0.5838,0.6648,0.6871,0.0,0.0,0.0,0.0,0.0,0.0,0.0,0.0,0.0,0.0,0.0,0.0,0.0,0.0,0.0,0.0,0.0,0.0,0.0,0.0,0.0,0.0,0.0,0.0,0.0,0.0,0.0,0.0,0.0,0.0,0.0,0.0,0.0,0.0,0.0,0.0,0.0,0.0,0.0,0.0,0.0,0.0,0.0,0.0,0.0,0.0,0.0,0.0,0.0,0.0,0.0,0.0,0.4621,0.4847,0.4741,0.4741,0.482,0.4745,0.4528,0.414,0.3947,0.3866,0.0,0.0,0.0,0.0,0.0,0.0,0.0,0.0,0.0,0.0,0.0,0.0,0.0,0.0,0.0,0.0,0.0,0.0,0.0,0.0,0.0,0.0,0.0,0.0,0.0,0.0,0.0,0.0,0.124,0.2518,0.3851,0.0,0.0,0.0,0.0,0.0,0.0,0.0,0.0,0.0,0.0,0.3677,0.4208,0.4443,0.4744,0.5239,0.53,0.5409,0.5858,0.5689,0.5837,0.6805,0.0,0.0,0.0,0.0,0.0,0.0,0.0,0.0,0.0,0.0,0.0,0.0,0.0,0.0,0.0,0.0,0.0,0.0,0.0,0.0,0.0,0.0,0.0,0.0,0.0,0.0,0.0,0.5683,0.0,0.0,0.682,0.0,0.0,0.0,0.0,0.0,0.0,0.0,0.0,0.0,0.0,0.0,0.0,0.0,0.0,0.0,0.0,0.0,0.0,0.0,0.0,0.0,0.0,0.4569,0.4694,0.4694,0.4691,0.4697,0.4691,0.4477,0.4028,0.3991,0.3923,0.3805,0.0,0.0,0.0,0.0,0.0,0.0,0.0,0.0,0.0,0.0,0.0,0.0,0.0,0.0,0.0,0.0,0.0,0.0,0.0,0.0,0.0,0.0,0.0,0.0,0.0,0.0,0.0423,0.1896,0.3224,0.0,0.0,0.0,0.0,0.0,0.0,0.0,0.0,0.0,0.0,0.3322,0.355,0.3983,0.4308,0.4789,0.5486,0.5762,0.6219,0.7141,0.6564,0.6433,0.0,0.0,0.0,0.0,0.0,0.0,0.0,0.0,0.0,0.0,0.0,0.0,0.0,0.0,0.0,0.0,0.0,0.0,0.0,0.0,0.0,0.0,0.0,0.0,0.0,0.0,0.0,0.66,0.6552,0.0,0.0,0.0,0.0,0.0,0.0,0.0,0.0,0.0,0.0,0.0,0.5504,0.5682,0.0,0.0,0.0,0.0,0.0,0.0,0.0,0.0,0.0,0.0,0.0,0.0,0.4687,0.4826,0.4672,0.4617,0.4687,0.4592,0.4423,0.4127,0.4048,0.3948,0.3822,0.0,0.0,0.0,0.0,0.0,0.0,0.0,0.0,0.0,0.0,0.0,0.0,0.0,0.0,0.0,0.0,0.0,0.0,0.0,0.0,0.0,0.0,0.0,0.0,0.0,0.1222,0.0,0.0,0.0,0.0,0.0,0.0,0.0,0.0,0.0,0.0,0.0,0.3463,0.3347,0.3722,0.416,0.4611,0.4754,0.5074,0.0,0.0,0.0,0.0,0.0,0.0,0.0,0.0,0.0,0.0,0.0,0.0,0.0,0.0,0.7618,0.7584,0.742,0.7277,0.7296,0.0,0.0,0.0,0.0,0.0,0.0,0.0,0.0,0.0,0.0,0.0,0.0,0.0,0.0,0.7223,0.0,0.723,0.0,0.0,0.0,0.0,0.0,0.0,0.0,0.0,0.6143,0.6212,0.5881,0.6033,0.6159,0.0,0.5783,0.5437,0.0,0.0,0.0,0.0,0.0,0.0,0.0,0.0,0.4741,0.4823,0.4621,0.4566,0.4702,0.4569,0.445,0.4299,0.4125,0.3921,0.3747,0.3765,0.3897,0.0,0.0,0.0,0.0,0.0,0.0,0.0,0.0,0.0,0.0,0.0,0.0,0.0,0.0,0.0,0.0,0.0,0.0,0.0,0.0,0.0,0.0,0.0,0.1819,0.0,0.0,0.0,0.0,0.0,0.0,0.0,0.0,0.0,0.3695,0.3553,0.3443,0.3414,0.3921,0.4421,0.4744,0.0,0.0,0.0,0.0,0.0,0.0,0.0,0.7441,0.8015,0.7931,0.7903,0.8268,0.8299,0.8188,0.7863,0.0,0.0,0.7696,0.7433,0.7204,0.723,0.6985,0.673,0.6606,0.6405,0.6135,0.0,0.0,0.0,0.0,0.0,0.0,0.0,0.0,0.7567,0.7715,0.0,0.7496,0.0,0.0,0.0,0.0,0.0,0.6421,0.0,0.0,0.6482,0.657,0.6074,0.6108,0.6064,0.6074,0.6416,0.6344,0.5806,0.4984,0.0,0.0,0.0,0.0,0.0,0.0,0.4694,0.4691,0.4576,0.4569,0.467,0.4566,0.4474,0.4479,0.4189,0.389,0.3628,0.3731,0.3826,0.3911,0.4092,0.0,0.0,0.0,0.0,0.0,0.0,0.0,0.0,0.0,0.0,0.0,0.0,0.0,0.0,0.0,0.0,0.0,0.0,0.0,0.0,0.1295,0.0,0.0,0.0,0.0,0.0,0.0,0.0,0.0,0.0,0.0,0.3862,0.3707,0.3572,0.3433,0.0,0.0,0.0,0.0,0.583,0.6339,0.6801,0.7368,0.8156,0.7764,0.7652,0.8562,0.0,0.0,0.8134,0.8319,0.8394,0.8394,0.8063,0.7737,0.7583,0.7377,0.7301,0.7563,0.7052,0.6544,0.6392,0.6012,0.5483,1.0334,0.0,0.0,0.0,0.0,0.823,0.8482,0.8855,0.8819,0.8824,0.8788,0.8468,0.0,0.0,0.0,0.0,0.0,0.0,0.6934,0.6773,0.7388,0.7505,0.7241,0.7368,0.739,0.7361,0.703,0.6696,0.6361,0.594,0.5619,0.5473,0.0,0.0,0.0,0.0,0.4799,0.4694,0.4646,0.4621,0.4556,0.4511,0.4497,0.4479,0.4389,0.4218,0.3883,0.3925,0.3961,0.396,0.41,0.0,0.0,0.0,0.0,0.0,0.0,0.0,0.0,0.0,0.0,0.0,0.0,0.0,0.0,0.0,0.0,0.0,0.0,0.0,0.14,0.1835,0.2396,0.0,0.0,0.0,0.0,0.0,0.0,0.0,0.0,0.0,0.4088,0.3871,0.3767,0.0,0.0,0.4842,0.4938,0.5816,0.6504,0.6669,0.7008,0.0,0.8376,0.8282,0.8305,0.8955,0.8532,0.8167,0.8311,0.8373,0.8394,0.8394,0.8286,0.8213,0.8118,0.7652,0.7323,0.7297,0.7139,0.6895,0.6594,0.6488,0.628,1.334,1.2088,0.9751,0.8818,0.8866,0.9001,0.9239,0.9526,0.949,0.9522,0.96,0.9206,0.8681,0.815,0.7747,0.0,0.0,0.0,0.7562,0.7499,0.7959,0.8092,0.7884,0.7983,0.8002,0.7874,0.7465,0.7156,0.7026,0.6655,0.6394,0.6203,0.0,0.0,0.5284,0.5064,0.487,0.473,0.4694,0.4644,0.4581,0.4684,0.4694,0.4591,0.4636,0.451,0.421,0.4192,0.4143,0.3998,0.4191,0.4444,0.0,0.0,0.0,0.0,0.0,0.0,0.0,0.0,0.0,0.0,0.0,0.2543,0.1917,0.0,0.0,0.0,0.1518,0.148,0.1763,0.2303,0.0,0.0,0.0,0.0,0.0,0.0,0.0,0.3541,0.3975,0.4331,0.4304,0.4098,0.396,0.3923,0.466,0.5226,0.513,0.0,0.6811,0.6811,0.708,0.754,0.8339,0.8495,0.8647,0.9017,0.8709,0.8402,0.8394,0.8394,0.8394,0.8394,0.8394,0.8394,0.8394,0.8027,0.7674,0.7473,0.7339,0.7138,0.6891,0.6828,0.6668,1.6302,1.5117,1.1488,0.9842,0.9647,0.9833,0.9929,0.9916,0.9712,0.9957,1.0335,0.9673,0.9445,0.947,0.8645,0.0,0.8096,0.8209,0.8203,0.8049,0.8373,0.8405,0.8189,0.8162,0.8076,0.7978,0.7782,0.7689,0.7671,0.719,0.6942,0.6976,0.6162,0.5647,0.5435,0.5258,0.5016,0.4752,0.4762,0.4747,0.4722,0.4963,0.4969,0.4741,0.4834,0.4779,0.4542,0.4525,0.4371,0.4068,0.4333,0.4638,0.4858,0.0,0.0,0.0,0.0,0.0,0.0,0.0,0.0,0.0,0.0,0.0,0.0,0.0,0.0,0.0,0.1608,0.0,0.1737,0.2581,0.0,0.0,0.0,0.3347,0.282,0.379,0.4294,0.3738,0.0,0.0,0.4491,0.4321,0.4134,0.389,0.4845,0.5475,0.511,0.6112,0.6872,0.6908,0.7126,0.7573,0.8341,0.8636,0.88,0.8882,0.8611,0.8402,0.8394,0.8394,0.8394,0.8394,0.8394,0.8394,0.8394,0.8362,0.829,0.7909,0.7616,0.7368,0.7264,0.7073,0.6841,1.5603,1.3855,1.3293,1.2375,1.1249,1.0571,1.0306,1.0245,1.0209,1.016,0.9998,0.9697,0.936,0.9003,0.8741,0.8717,0.886,0.8858,0.8946,0.9063,0.8979,0.9011,0.9072,0.8766,0.8691,0.88,0.8372,0.7984,0.7687,0.7432,0.7153,0.6906,0.6561,0.6179,0.5796,0.5642,0.5386,0.5071,0.5192,0.5111,0.4857,0.5014,0.5081,0.4988,0.4926,0.487,0.4813,0.4695,0.46,0.454,0.4602,0.473,0.4897,0.5269,0.0,0.0,0.0,0.0,0.0,0.0,0.0,0.0,0.0,0.282,0.2015,0.0,0.1722,0.0,0.1792,0.1507,0.1144,0.152,0.0,0.0,0.2514,0.304,0.3347,0.4045,0.4432,0.4294,0.4405,0.4491,0.4491,0.446,0.4399,0.4355,0.5072,0.5603,0.5626,0.6632,0.7407,0.7444,0.7857,0.8441,0.8871,0.9119,0.9159,0.8925,0.8611,0.8402,0.8394,0.8394,0.8394,0.8394,0.8394,0.8394,0.8394,0.8394,0.8378,0.8282,0.8174,0.8031,0.7739,0.7745,0.7654,1.7029,1.5659,1.5404,1.4671,1.3551,1.1991,1.1294,1.124,1.0762,1.0391,1.0115,0.986,0.9531,0.9138,0.9177,0.9191,0.9332,0.9336,0.9384,0.947,0.9376,0.9344,0.9392,0.9076,0.8912,0.8824,0.8548,0.8235,0.7803,0.771,0.7486,0.7183,0.6884,0.662,0.6251,0.603,0.5766,0.5438,0.5332,0.5176,0.4994,0.5101,0.5195,0.5213,0.5053,0.5034,0.5128,0.4893,0.4881,0.5002,0.4874,0.4833,0.4993,0.5212,0.4998,0.0,0.0,0.0,0.0,0.0,0.0,0.0,0.0,0.0,0.0,0.0,0.1484,0.1733,0.1634,0.1406,0.0946,0.1515,0.1986,0.2171,0.2736,0.3347,0.3932,0.4294,0.4491,0.4491,0.4491,0.4491,0.4491,0.4491,0.4491,0.4487,0.5271,0.5868,0.5887,0.6826,0.762,0.7702,0.7999,0.8501,0.9162,0.9568,0.9657,0.922,0.8834,0.8585,0.8433,0.8394,0.8394,0.8394,0.8394,0.8394,0.8394,0.8394,0.8394,0.8394,0.8394,0.8314,0.8119,0.819,0.8109,1.8954,1.8253,1.7334,1.6576,1.5743,1.3717,1.2684,1.2309,1.1341,1.0687,1.0326,1.001,0.977,0.9628,0.9624,0.9624,0.9624,0.9624,0.9624,0.9624,0.9624,0.9527,0.9396,0.9177,0.891,0.8548,0.8537,0.8352,0.7916,0.7907,0.7769,0.748,0.7175,0.6948,0.6802,0.6476,0.6097,0.5769,0.5418,0.525,0.5254,0.5322,0.5385,0.5467,0.523,0.5198,0.5375,0.5094,0.5074,0.5351,0.5093,0.4977,0.5108,0.4925,0.4906,0.0,0.5084,0.0,0.0,0.0,0.0,0.0,0.0,0.0,0.0,0.1205,0.0897,0.0897,0.1326,0.1442,0.1059,0.1986,0.2625,0.2708,0.3264,0.3821,0.4322,0.4432,0.4491,0.4491,0.4491,0.4491,0.4491,0.4491,0.4519,0.468,0.5511,0.6119,0.6144,0.6995,0.7751,0.7866,0.7993,0.8607,0.9467,0.9948,1.0024,0.9514,0.9055,0.876,0.8429,0.8394,0.8394,0.8394,0.8394,0.8394,0.8394,0.8394,0.8394,0.8394,0.8394,0.8394,0.837,0.8378,0.836,1.8299,1.7345,1.765,1.7121,1.6006,1.5463,1.4137,1.2417,1.2146,1.1362,1.0241,0.9835,0.9657,0.9628,0.9624,0.9624,0.9624,0.9624,0.9624,0.9624,0.9624,0.9531,0.94,0.9177,0.8952,0.8767,0.8499,0.8205,0.7982,0.7684,0.749,0.7484,0.7267,0.7219,0.7322,0.0,0.0,0.0,0.5949,0.5932,0.599,0.586,0.5773,0.5801,0.5349,0.0,0.5318,0.5148,0.5144,0.5302,0.5155,0.0,0.0,0.0,0.0,0.0,0.0,0.0,0.0,0.0,0.0,0.0,0.3067,0.2502,0.1348,0.1038,0.0897,0.0897,0.0997,0.1215,0.1592,0.1931,0.2293,0.2681,0.3347,0.3766,0.3793,0.4184,0.4491,0.4491,0.4491,0.4491,0.4491,0.4491,0.4653,0.5089,0.5746,0.6384,0.6929,0.7588,0.8114,0.8292,0.8859,0.9662,1.049,1.0221,0.9986,0.9647,0.9004,0.8542,0.8417,0.8394,0.8394,0.8394,0.8394,0.8394,0.8394,0.8394,0.8394,0.8394,0.8394,0.8394,0.8394,0.8394,0.8353,1.856,0.0,1.8108,1.7703,0.0,1.6781,1.5671,1.3805,1.2749,1.1459,1.0061,0.9742,0.9624,0.9624,0.9624,0.9624,0.9624,0.9624,0.9624,0.9624,0.9624,0.953,0.9486,0.9303,0.9082,0.8758,0.8589,0.8328,0.7945,0.7891,0.7801,0.7744,0.7496,0.7407,0.7506,0.7077,0.6629,0.6184,0.6059,0.6018,0.6045,0.5963,0.5858,0.5755,0.5422,0.0,0.0,0.0,0.0,0.0,0.0,0.0,0.0,0.5396,0.0,0.5306,0.5422,0.5457,0.54,0.5124,0.4665,0.408,0.3312,0.2432,0.1294,0.115,0.1094,0.1094,0.1317,0.1596,0.1959,0.2265,0.2655,0.3209,0.3627,0.3929,0.4073,0.4377,0.4574,0.4519,0.4491,0.4491,0.4491,0.4491,0.4736,0.5254,0.5823,0.6502,0.7262,0.7863,0.8275,0.8494,0.9425,1.0167,1.0389,1.0598,1.0295,0.9893,0.9298,0.8813,0.8449,0.8394,0.8394,0.8394,0.8394,0.8394,0.8394,0.8394,0.8394,0.8394,0.8394,0.8394,0.8394,0.8394,0.8394,1.9025,1.8497,1.8497,1.8136,1.7589,1.7589,1.6742,1.5184,0.0,0.0,0.0,0.9751,0.9624,0.9624,0.9624,0.9624,0.9624,0.9624,0.9624,0.9624,0.9624,0.9558,0.9571,0.9473,0.9168,0.88,0.8768,0.852,0.8049,0.8223,0.8195,0.8004,0.772,0.7584,0.746,0.7045,0.6629,0.629,0.6103,0.603,0.603,0.5998,0.5916,0.5755,0.5535,0.5418,0.5418,0.513,0.5091,0.541,0.5433,0.5434,0.5495,0.5748,0.5852,0.5745,0.5825,0.5893,0.5876,0.5399,0.5054,0.4836,0.3542,0.2337,0.139,0.1323,0.1318,0.1318,0.1765,0.2127,0.2352,0.2822,0.3375,0.3932,0.4122,0.4288,0.4515,0.4632,0.466,0.4601,0.4543,0.4491,0.4519,0.4519,0.4763,0.5359,0.5932,0.6632,0.7492,0.8096,0.8401,0.8659,0.9607,1.0312,1.0261,1.0714,1.0859,1.0036,0.9593,0.9147,0.8593,0.8394,0.8394,0.8394,0.8394,0.8394,0.8394,0.8394,0.8394,0.8394,0.8394,0.8394,0.8394,0.8394,0.8394,1.9025,1.8497,1.8497,1.8136,1.7589,1.7589,1.6691,1.5023,1.2618,1.1392,1.1125,1.0045,0.9624,0.9624,0.9624,0.9624,0.9624,0.9624,0.9624,0.9624,0.9624,0.9543,0.9445,0.9416,0.9263,0.9041,0.8909,0.8723,0.8528,0.8369,0.8195,0.8036,0.7959,0.7784,0.7488,0.7257,0.6972,0.6661,0.6591,0.6583,0.6578,0.6424,0.6343,0.629,0.5808,0.5583,0.5579,0.5366,0.535,0.5542,0.5578,0.5663,0.5816,0.586,0.5882,0.5866,0.5875,0.5841,0.5727,0.5736,0.5279,0.4147,0.3365,0.2506,0.1497,0.1341,0.1318,0.1347,0.1883,0.238,0.2935,0.3605,0.4221,0.4653,0.4877,0.4928,0.4846,0.477,0.4743,0.4818,0.4629,0.4546,0.4629,0.4574,0.4897,0.5796,0.634,0.6897,0.8057,0.8606,0.8725,0.891,0.9692,1.0287,1.045,1.0779,1.0835,1.0254,0.9731,0.9215,0.8631,0.8478,0.8441,0.8409,0.8409,0.8394,0.8394,0.8394,0.8394,0.8394,0.8394,0.8394,0.8394,0.8394,0.8394,1.9118,1.8724,1.8564,1.8237,1.7802,1.7315,1.67,1.5859,1.3848,1.2353,1.1307,1.0681,1.0158,0.9624,0.9624,0.9624,0.9624,0.9624,0.9624,0.9624,0.9624,0.9583,0.951,0.9502,0.9409,0.9238,0.9153,0.9019,0.8857,0.8767,0.8633,0.8399,0.8162,0.7886,0.7634,0.7366,0.7094,0.6878,0.6771,0.6639,0.6546,0.6465,0.6375,0.6274,0.6049,0.5856,0.5766,0.5685,0.5681,0.5758,0.5882,0.5971,0.6053,0.612,0.6176,0.618,0.6153,0.6133,0.6085,0.6132,0.5756,0.4795,0.4411,0.3882,0.2997,0.2164,0.1831,0.2184,0.2714,0.3273,0.3906,0.4592,0.5012,0.4998,0.523,0.525,0.4974,0.4904,0.4908,0.4901,0.4791,0.4736,0.4794,0.4763,0.5117,0.6154,0.6912,0.7771,0.8488,0.8718,0.891,0.9237,0.9917,1.0474,1.0812,1.1196,1.1186,1.0763,1.0216,0.9705,0.9221,0.8939,0.8696,0.8643,0.8545,0.8409,0.8394,0.8394,0.8394,0.8394,0.8394,0.8394,0.8394,0.8394,0.8394,1.9192,1.8841,1.8611,1.8277,1.7876,1.7128,1.68,1.664,1.5303,1.3693,1.207,1.1438,1.0739,0.9965,0.9727,0.9624,0.9624,0.9624,0.9624,0.9624,0.9624,0.9624,0.9624,0.9624,0.9555,0.9469,0.942,0.9335,0.9212,0.9116,0.9027,0.884,0.8381,0.8073,0.798,0.7545,0.7257,0.711,0.6891,0.6692,0.6485,0.6477,0.6416,0.631,0.6248,0.6114,0.5988,0.5908,0.5908,0.598,0.6137,0.6223,0.6245,0.6339,0.642,0.642,0.642,0.642,0.642,0.642,0.6115,0.5444,0.5377,0.5019,0.4233,0.321,0.2713,0.3206,0.3676,0.4213,0.4699,0.5337,0.5622,0.5341,0.5458,0.5462,0.515,0.5093,0.5073,0.4987,0.4956,0.4901,0.4956,0.5034,0.555,0.6615,0.7723,0.8448,0.8633,0.8745,0.9035,0.9666,1.0141,1.0609,1.1192,1.1594,1.1556,1.1208,1.0763,1.029,0.9835,0.9312,0.9052,0.9001,0.8895,0.872,0.859,0.8667,0.8626,0.8524,0.8394,0.8394,0.8394,0.8394,0.8394,1.9192,1.8898,1.8624,1.815,1.7629,1.7306,1.7152,1.7027,1.6388,1.5488,1.4176,1.2139,1.1175,1.0935,1.0015,0.9673,0.9624,0.9624,0.9624,0.9624,0.9624,0.9624,0.9624,0.9624,0.9571,0.9575,0.949,0.9404,0.9371,0.9224,0.9092,0.9031,0.8698,0.8535,0.8469,0.8004,0.7653,0.7473,0.7261,0.7005,0.6676,0.6664,0.6664,0.6647,0.6351,0.6203,0.6151,0.6,0.5992,0.6166,0.6167,0.6257,0.6371,0.6379,0.6424,0.6432,0.6395,0.642,0.6424,0.642,0.6123,0.5477,0.543,0.5124,0.4436,0.4191,0.4059,0.4156,0.458,0.4854,0.4974,0.5551,0.5858,0.5773,0.5676,0.5575,0.5522,0.5274,0.5156,0.5242,0.5061,0.4956,0.5101,0.5449,0.6209,0.7316,0.807,0.8606,0.8718,0.8778,0.9185,0.9987,1.0389,1.0652,1.1242,1.1753,1.174,1.1268,1.1084,1.0733,1.0178,0.9689,0.9318,0.9668,0.9568,0.9465,0.9252,0.9214,0.9262,0.8695,0.8483,0.8394,0.8394,0.8394,0.8394,1.9299,1.9165,1.8871,1.8404,1.7836,1.7407,1.7199,1.7152,1.6707,1.6279,1.5687,1.4034,1.2518,1.1224,1.0734,1.0212,0.9624,0.9624,0.9624,0.9624,0.9624,0.9624,0.9624,0.9624,0.9624,0.9624,0.9547,0.9514,0.9486,0.9336,0.925,0.9198,0.8841,0.8616,0.8571,0.8073,0.771,0.7526,0.7411,0.7253,0.7021,0.6899,0.6837,0.6692,0.6546,0.6416,0.6314,0.6237,0.6237,0.6302,0.631,0.6392,0.6574,0.6583,0.6631,0.6755,0.6767,0.6684,0.6612,0.6604,0.6465,0.6191,0.6066,0.5889,0.5745,0.5607,0.5559,0.5603,0.5413,0.5357,0.5654,0.6006,0.612,0.5945,0.5931,0.5918,0.5783,0.5651,0.5574,0.5474,0.5389,0.529,0.5345,0.5937,0.6799,0.7691,0.8276,0.8633,0.8778,0.8778,0.9256,1.0115,1.0423,1.0804,1.1535,1.1927,1.1935,1.1752,1.1552,1.1235,1.0965,1.0605,1.0423,1.0524,1.0472,1.0377,1.0146,0.99,0.9773,0.91,0.8551,0.8394,0.8394,0.8394,0.8394,1.9424,1.9363,1.8965,1.851,1.7955,1.7488,1.732,1.728,1.6954,1.6827,1.675,1.5712,1.4135,1.2379,1.157,1.0766,1.0128,0.9747,0.9685,0.975,0.9681,0.9652,0.9689,0.9595,0.9624,0.9624,0.9624,0.9624,0.9612,0.9502,0.9429,0.9408,0.9041,0.8804,0.8714,0.8261,0.7931,0.7724,0.7663,0.7545,0.7378,0.7277,0.7106,0.6863,0.679,0.67,0.657,0.6518,0.6518,0.6562,0.6522,0.6578,0.6788,0.6769,0.6857,0.6967,0.6984,0.6931,0.6792,0.6739,0.671,0.6702,0.6518,0.6493,0.6627,0.657,0.6587,0.6644,0.615,0.5943,0.6173,0.6343,0.6262,0.6071,0.6147,0.615,0.6004,0.5929,0.5827,0.5709,0.566,0.5764,0.5933,0.6633,0.7444,0.8064,0.8448,0.8685,0.8778,0.8831,0.9185,1.0192,1.0397,1.088,1.1843,1.2076,1.2076,1.2076,1.19,1.1758,1.1692,1.133,1.1223,1.1072,1.1231,1.1194,1.0954,1.0663,1.0237,0.9531,0.895,0.8569,0.8564,0.8532,0.8553,1.9424,1.9343,1.8751,1.837,1.7969,1.7709,1.7562,1.7542,1.7306,1.7186,1.7146,1.6763,1.5966,1.4797,1.2514,1.1288,1.1134,1.0157,0.9911,1.0158,0.9841,0.9721,0.9855,0.9705,0.9636,0.9768,0.9652,0.964,0.9628,0.9562,0.9562,0.9587,0.9376,0.9265,0.9031,0.8714,0.8473,0.8219,0.8044,0.7894,0.7788,0.7755,0.7567,0.7224,0.7069,0.6967,0.6931,0.6765,0.6753,0.6951,0.6765,0.6796,0.6959,0.698,0.6996,0.6996,0.7,0.6996,0.6959,0.6833,0.6747,0.6684,0.6554,0.6505,0.6704,0.6684,0.6749,0.6955,0.6716,0.6535,0.6423,0.642,0.6412,0.6359,0.6261,0.6223,0.6171,0.6049,0.5908,0.5906,0.595,0.6289,0.7046,0.7586,0.8053,0.8513,0.8752,0.8778,0.8778,0.8778,0.9283,1.0046,1.0474,1.0804,1.1819,1.2076,1.2076,1.2076,1.2026,1.1977,1.1659,1.1434,1.1537,1.1701,1.2022,1.2015,1.172,1.1273,1.0766,1.01,0.9349,0.8987,0.8874,0.8874,0.8874,1.9424,1.939,1.8938,1.8704,1.8502,1.809,1.7822,1.7849,1.7562,1.7428,1.7427,1.7166,1.6835,1.6343,1.4604,1.3031,1.1768,1.1025,1.0932,1.1254,1.1141,1.1466,1.212,1.1452,1.1074,1.0959,1.0192,0.9734,0.9632,0.9624,0.9624,0.96,0.949,0.9367,0.9241,0.8845,0.8575,0.8486,0.8174,0.7983,0.7914,0.7817,0.7731,0.7561,0.7281,0.7074,0.6988,0.6926,0.6926,0.6984,0.6926,0.6975,0.711,0.7269,0.7277,0.7151,0.7269,0.7277,0.7139,0.7066,0.7033,0.7013,0.6761,0.6725,0.692,0.6842,0.6814,0.7021,0.7,0.6861,0.6775,0.6562,0.6424,0.6412,0.6363,0.6323,0.631,0.6262,0.6185,0.6164,0.6354,0.6929,0.7665,0.8122,0.8369,0.8705,0.8778,0.8778,0.8778,0.8778,0.9185,1.0097,1.044,1.0796,1.1918,1.2076,1.2076,1.2076,1.2076,1.2051,1.1861,1.2143,1.2292,1.2406,1.2738,1.2909,1.2624,1.1872,1.1338,1.0657,0.9923,0.9399,0.9246,0.9336,0.9313,1.9533,1.9472,1.9001,1.8784,1.8711,1.8143,1.7903,1.7869,1.7669,1.7589,1.7542,1.7427,1.734,1.719,1.6266,1.495,1.3205,1.2485,1.2296,1.2591,1.2476,1.291,1.3426,1.2859,1.2463,1.2326,1.1484,1.0865,1.0699,1.0336,1.0109,1.01,0.9689,0.9457,0.9351,0.9037,0.8824,0.8629,0.8402,0.8207,0.8044,0.7963,0.7837,0.7714,0.7488,0.7313,0.7171,0.7074,0.7106,0.7143,0.711,0.7123,0.7297,0.7419,0.7435,0.7342,0.7415,0.7435,0.7322,0.7257,0.7187,0.7179,0.6964,0.6915,0.713,0.6969,0.7041,0.7196,0.7147,0.7077,0.702,0.6804,0.6574,0.653,0.655,0.6534,0.6411,0.6473,0.6412,0.6382,0.6852,0.7489,0.8046,0.8446,0.8654,0.8791,0.8778,0.8778,0.8778,0.8831,0.9192,1.0167,1.0397,1.0906,1.1735,1.2076,1.2076,1.2076,1.2076,1.2076,1.2175,1.2574,1.2832,1.3035,1.331,1.3573,1.3311,1.2545,1.186,1.1223,1.0505,0.987,0.9853,0.9868,0.9892,1.9815,1.9683,1.8857,1.8626,1.8553,1.807,1.7682,1.7655,1.7655,1.7635,1.7575,1.7615,1.7588,1.7508,1.7158,1.66,1.5621,1.4378,1.3893,1.4061,1.3778,1.3811,1.4201,1.3835,1.3505,1.3375,1.3206,1.3093,1.2846,1.1762,1.1175,1.093,1.0141,0.9665,0.9416,0.9351,0.9145,0.8897,0.8779,0.8532,0.8113,0.8182,0.8115,0.7748,0.7741,0.7713,0.7553,0.7351,0.7293,0.7449,0.7309,0.7313,0.7435,0.7476,0.7514,0.7464,0.7518,0.7518,0.7456,0.733,0.7219,0.7228,0.7066,0.7041,0.7208,0.7175,0.7253,0.7387,0.7322,0.7224,0.72,0.7062,0.6906,0.6759,0.682,0.6753,0.6538,0.6574,0.6619,0.6646,0.7316,0.7834,0.7936,0.8605,0.9113,0.8911,0.8838,0.8811,0.8791,0.8778,0.9263,1.0012,1.0389,1.083,1.1501,1.2076,1.2076,1.2076,1.2076,1.2101,1.2126,1.2387,1.2584,1.2803,1.3286,1.3573,1.3755,1.3037,1.2426,1.177,1.1035,1.059,1.0622,1.0694,1.0646,2.0162,2.0141,1.9853,1.9475,1.9144,1.8906,1.8523,1.7876,1.7848,1.7799,1.7641,1.7589,1.7589,1.7621,1.7534,1.7338,1.7022,1.6533,1.6026,1.5429,1.52,1.5585,1.6088,1.5353,1.4362,1.3556,1.3373,1.3294,1.3171,1.2552,1.1901,1.1272,1.0881,1.0275,0.958,0.9421,0.9326,0.9229,0.8942,0.8723,0.8552,0.8381,0.8489,0.89,0.8224,0.7997,0.8521,0.7838,0.7473,0.7522,0.7435,0.7431,0.751,0.7518,0.7518,0.7518,0.7518,0.7518,0.7514,0.7435,0.7395,0.737,0.724,0.724,0.7354,0.7297,0.7313,0.7456,0.7431,0.7403,0.7391,0.7354,0.7135,0.6737,0.6878,0.6865,0.653,0.6485,0.6701,0.7148,0.7842,0.8337,0.8699,0.9337,0.9548,0.9138,0.9058,0.9011,0.8845,0.8811,0.9035,0.971,1.0123,1.0676,1.1334,1.1902,1.2076,1.2076,1.2076,1.2076,1.2126,1.2234,1.2406,1.2691,1.3166,1.3491,1.3697,1.3572,1.295,1.258,1.2119,1.1834,1.1661,1.1536,1.1449,2.0436,2.0429,2.0208,1.9757,1.9228,1.9208,1.8794,1.809,1.8,1.7905,1.7747,1.7635,1.7589,1.7589,1.7589,1.7589,1.7589,1.7589,1.7199,1.6611,1.6505,1.6935,1.7437,1.6593,1.5706,1.4942,1.4562,1.4495,1.4457,1.3688,1.298,1.2393,1.1609,1.0881,1.0149,0.971,0.9433,0.938,0.918,0.8926,0.8739,0.8568,0.8815,0.9313,0.85,0.859,0.9508,0.87,0.7936,0.7686,0.7624,0.7596,0.7535,0.7518,0.7518,0.7518,0.7518,0.7518,0.7518,0.7514,0.7518,0.7498,0.7382,0.7362,0.7443,0.7366,0.7387,0.7456,0.7514,0.7518,0.7518,0.7514,0.7293,0.6948,0.7062,0.7016,0.6696,0.6554,0.6614,0.7133,0.7897,0.8467,0.8807,0.9547,0.9784,0.9364,0.9176,0.9184,0.8991,0.8978,0.9272,0.9691,1.0294,1.0795,1.1243,1.1653,1.2051,1.2076,1.2076,1.2076,1.2101,1.22,1.2348,1.2666,1.3094,1.33,1.3484,1.3718,1.3437,1.3242,1.2919,1.258,1.2216,1.2245,1.2183,2.0752,2.0644,2.0139,1.9591,1.9085,1.9136,1.877,1.8193,1.8124,1.8124,1.8064,1.7813,1.7641,1.7641,1.7641,1.7589,1.7589,1.7589,1.7582,1.7477,1.747,1.7489,1.7349,1.7118,1.6818,1.6711,1.6355,1.6275,1.6214,1.507,1.437,1.396,1.2462,1.1365,1.1121,1.0248,0.9726,0.969,0.9471,0.9106,0.867,0.8702,0.9091,0.955,0.8888,0.916,1.0468,0.9689,0.8684,0.8013,0.7947,0.7892,0.7588,0.7539,0.7555,0.7531,0.7518,0.7518,0.7518,0.7518,0.7518,0.7518,0.751,0.7518,0.751,0.7464,0.7456,0.748,0.7518,0.7518,0.7518,0.7518,0.7424,0.7364,0.7497,0.7413,0.714,0.7003,0.7145,0.7087,0.7727,0.8489,0.8445,0.9432,0.9722,0.9511,0.9316,0.9337,0.9237,0.9294,0.9515,0.9906,1.0393,1.0788,1.1207,1.1907,1.2234,1.2076,1.2076,1.2076,1.2076,1.2175,1.2446,1.274,1.2934,1.3132,1.3386,1.3658,1.3729,1.3457,1.315,1.2899,1.2837,1.2871,1.2701,2.1205,2.1409,2.0981,2.0493,1.9976,2.0154,1.978,1.9047,1.897,1.8826,1.8624,1.8112,1.7925,1.7852,1.7694,1.7589,1.7641,1.7635,1.7589,1.7589,1.7589,1.7315,1.7061,1.7139,1.6978,1.665,1.6636,1.6633,1.6673,1.599,1.5327,1.4576,1.385,1.3033,1.2296,1.1321,1.0814,1.0568,0.9655,0.9222,0.9054,0.8869,0.9397,1.0575,0.9836,1.0257,1.1606,1.0388,0.9278,0.8753,0.8876,0.8542,0.7886,0.7731,0.7665,0.7575,0.7526,0.7522,0.7522,0.7565,0.7522,0.7518,0.765,0.7518,0.7518,0.7518,0.7518,0.7518,0.7518,0.7565,0.7561,0.7561,0.7757,0.819,0.8161,0.8061,0.8119,0.8432,0.8565,0.8433,0.9014,0.9234,0.934,0.9762,1.023,0.9917,0.9784,0.9773,0.9599,0.9404,0.954,0.9904,1.0307,1.0725,1.1247,1.2043,1.2364,1.214,1.2076,1.2076,1.2076,1.2126,1.251,1.2939,1.29,1.3035,1.3433,1.38,1.3671,1.3505,1.3399,1.3208,1.3386,1.3443,1.3112,2.1518,2.1664,2.1342,2.0843,2.0391,2.0608,2.0253,1.9635,1.9552,1.9405,1.9172,1.8652,1.8367,1.8353,1.8071,1.7905,1.7799,1.7799,1.7694,1.7635,1.7747,1.7439,1.7092,1.7139,1.7018,1.6737,1.668,1.6774,1.6827,1.66,1.6055,1.5415,1.4868,1.425,1.3553,1.2673,1.2091,1.1905,1.1254,1.0834,1.0529,1.0331,1.0834,1.1674,1.1241,1.1489,1.25,1.2004,1.1056,0.9999,0.9322,0.8852,0.8491,0.8063,0.7907,0.7853,0.7659,0.7547,0.7698,0.7905,0.794,0.7825,0.8073,0.8431,0.8349,0.8381,0.8565,0.894,0.8752,0.8672,0.861,0.8295,0.825,0.859,0.8815,0.8896,0.89,0.9211,0.9344,0.9325,0.9574,0.994,0.9726,1.0251,1.0327,1.0163,1.003,0.9987,0.988,0.9677,0.9586,0.995,1.0434,1.0887,1.1219,1.1852,1.233,1.2159,1.2076,1.2076,1.2076,1.2101,1.2437,1.2779,1.2827,1.2997,1.342,1.3658,1.3525,1.3406,1.3443,1.3515,1.3597,1.3668,1.3362,2.1745,2.1723,2.1364,2.0921,2.0513,2.0659,2.0487,2.0039,1.9912,1.9938,1.975,1.9193,1.891,1.8917,1.845,1.822,1.8016,1.8062,1.7905,1.7845,1.7884,1.7793,1.7486,1.7346,1.7286,1.7177,1.6921,1.7029,1.716,1.6955,1.6656,1.6245,1.5637,1.5196,1.4754,1.407,1.3542,1.3343,1.305,1.2669,1.2312,1.2156,1.2372,1.2806,1.2734,1.271,1.3348,1.3425,1.2929,1.1312,0.9809,0.9493,0.9456,0.8677,0.8339,0.8297,0.7986,0.7807,0.7951,0.8608,0.8952,0.8629,0.9639,1.0137,0.97,0.9826,1.0043,1.0401,1.0504,1.0091,0.9851,0.9278,0.9051,0.9216,0.9685,0.9893,0.9941,0.9879,0.9816,0.9682,1.0019,1.0123,1.0192,1.0348,1.0499,1.0347,1.0261,1.0234,1.014,0.997,0.9913,0.9989,1.0523,1.1154,1.1387,1.1645,1.2,1.2165,1.2094,1.2076,1.2076,1.215,1.2372,1.2584,1.2779,1.3021,1.3334,1.3416,1.3344,1.3344,1.3406,1.342,1.3467,1.3515,1.3372,2.1828,2.203,2.1459,2.111,2.1051,2.1108,2.1,2.0841,2.0601,2.0499,2.032,1.9592,1.9256,1.9213,1.8696,1.837,1.8325,1.8325,1.8265,1.8258,1.8265,1.8244,1.8112,1.7946,1.7703,1.7599,1.7675,1.7657,1.7538,1.7459,1.7218,1.6889,1.6589,1.6277,1.6021,1.5242,1.4657,1.4483,1.3844,1.3455,1.3269,1.313,1.3273,1.3661,1.3788,1.388,1.3778,1.3347,1.3231,1.3281,1.2578,1.1431,1.052,1.0028,0.9528,0.8864,0.8584,0.8437,0.8489,0.9266,1.0054,1.0613,1.0725,1.0975,1.1589,1.1084,1.0982,1.097,1.074,1.0628,1.0187,0.984,0.9922,1.0304,1.0631,1.1013,1.1513,1.1635,1.1458,1.1294,1.1117,1.1006,1.0784,1.058,1.0586,1.0506,1.0486,1.0492,1.0399,1.0254,1.0174,1.0131,1.0909,1.1505,1.1605,1.1824,1.2122,1.2211,1.2094,1.2076,1.2076,1.215,1.2348,1.2584,1.2827,1.3094,1.3358,1.3372,1.3348,1.3358,1.3334,1.3396,1.342,1.3443,1.3549,2.212,2.2132,2.1642,2.135,2.1218,2.1211,2.1211,2.1174,2.1035,2.0947,2.0752,2.0048,1.9719,1.9661,1.9129,1.8795,1.8593,1.8482,1.8482,1.8586,1.8646,1.8698,1.8781,1.8645,1.8394,1.8076,1.8093,1.8074,1.7977,1.795,1.7832,1.7528,1.7329,1.7141,1.6996,1.6374,1.6103,1.5893,1.5423,1.5044,1.4818,1.4681,1.4443,1.4475,1.4643,1.4605,1.4201,1.3935,1.3977,1.4237,1.4146,1.34,1.2104,1.1444,1.082,1.0397,1.0044,1.0044,1.0157,1.069,1.1287,1.1514,1.1798,1.2219,1.2516,1.2265,1.2481,1.2517,1.2324,1.1768,1.0972,1.0549,1.0839,1.1061,1.1178,1.1453,1.2083,1.2305,1.2258,1.2017,1.1613,1.1389,1.1149,1.0868,1.064,1.0546,1.0553,1.0559,1.0546,1.0401,1.0301,1.0496,1.1331,1.1839,1.1874,1.2058,1.238,1.2321,1.2085,1.2076,1.2076,1.2175,1.2298,1.2584,1.2876,1.3108,1.3338,1.3338,1.3386,1.329,1.329,1.3372,1.342,1.3467,1.3621,2.2447,2.2154,2.1832,2.1511,2.1233,2.1211,2.1211,2.1211,2.1211,2.1167,2.1101,2.0559,2.0219,2.0051,1.963,1.9203,1.8974,1.875,1.8743,1.8914,1.8974,1.9076,1.9248,1.9255,1.912,1.8647,1.8586,1.8558,1.8447,1.8454,1.8264,1.8069,1.7988,1.7775,1.7565,1.7392,1.716,1.6978,1.6871,1.676,1.6518,1.6433,1.6059,1.5525,1.5308,1.5138,1.48,1.4695,1.4781,1.4712,1.5035,1.4733,1.399,1.3033,1.226,1.2244,1.1686,1.1494,1.1591,1.2206,1.247,1.1612,1.2829,1.3476,1.3402,1.3507,1.3845,1.402,1.3823,1.3054,1.2343,1.1958,1.1694,1.1713,1.1513,1.1733,1.212,1.2305,1.2285,1.2204,1.179,1.1416,1.1236,1.0995,1.0794,1.0645,1.0626,1.0626,1.0613,1.0566,1.0459,1.0567,1.132,1.2105,1.2221,1.2292,1.2609,1.2569,1.2259,1.2232,1.2223,1.2316,1.2476,1.2661,1.2924,1.318,1.3491,1.3705,1.3658,1.3375,1.3338,1.3515,1.3539,1.3491,1.3692,2.2454,2.2154,2.1832,2.1511,2.1233,2.1211,2.1211,2.1211,2.1211,2.1211,2.1152,2.0808,2.0409,2.0194,1.9879,1.955,1.9233,1.9063,1.913,1.9197,1.9256,1.9374,1.9601,1.9669,1.9701,1.975,1.9411,1.9045,1.8898,1.8795,1.866,1.8396,1.8325,1.8218,1.8041,1.7862,1.7622,1.7487,1.7395,1.72,1.7171,1.7051,1.6803,1.6211,1.6004,1.5722,1.5541,1.5476,1.5477,1.546,1.5689,1.5741,1.5389,1.4414,1.3457,1.2826,1.2723,1.2704,1.2638,1.309,1.3397,1.3497,1.3963,1.4518,1.4594,1.467,1.468,1.4603,1.4391,1.3845,1.3338,1.3111,1.3035,1.2819,1.2609,1.2545,1.2371,1.2342,1.2342,1.2258,1.1824,1.145,1.1356,1.1209,1.1008,1.0854,1.0827,1.076,1.0693,1.064,1.0553,1.0752,1.1128,1.1957,1.2614,1.2679,1.283,1.285,1.2672,1.2599,1.2571,1.2551,1.2656,1.2748,1.2993,1.3276,1.361,1.3952,1.3975,1.3752,1.3739,1.3726,1.3739,1.3729,1.3739,2.2696,2.2389,2.2081,2.1759,2.1467,2.1276,2.1211,2.1211,2.1211,2.1211,2.1115,2.0867,2.0482,2.0216,1.9901,1.9639,1.9345,1.9272,1.9367,1.9462,1.9434,1.9447,1.9793,1.9823,1.9835,1.9923,1.9806,1.9599,1.9362,1.9195,1.8998,1.8905,1.8745,1.8527,1.8256,1.7969,1.7757,1.7596,1.7428,1.7286,1.7286,1.7286,1.7072,1.6764,1.6538,1.6289,1.5946,1.6013,1.6027,1.602,1.6109,1.6242,1.6155,1.5704,1.4954,1.4315,1.4183,1.4188,1.3948,1.4307,1.4384,1.4426,1.465,1.4824,1.4999,1.5047,1.4988,1.4763,1.4619,1.4268,1.3909,1.3943,1.3682,1.342,1.3282,1.3024,1.2672,1.2597,1.2509,1.2378,1.2,1.1745,1.1637,1.1456,1.1209,1.1082,1.1009,1.0895,1.0801,1.0673,1.0593,1.0776,1.1069,1.1813,1.2527,1.2739,1.3021,1.3085,1.3121,1.3048,1.2892,1.2863,1.275,1.2719,1.3001,1.3496,1.3705,1.4022,1.4069,1.4127,1.3952,1.3858,1.3952,1.3975,1.4005,2.2879,2.2513,2.2279,2.1957,2.1591,2.132,2.1211,2.1211,2.1211,2.1159,2.1072,2.0823,2.0501,2.0135,1.9806,1.9566,1.9286,1.933,1.9491,1.9588,1.9551,1.9617,1.9784,1.9933,2.0043,2.0289,2.0098,2.0077,1.974,1.9528,1.9367,1.9213,1.8979,1.8782,1.8525,1.8182,1.7786,1.7582,1.7308,1.7286,1.7286,1.7271,1.7223,1.6982,1.6945,1.6744,1.6404,1.651,1.6575,1.6566,1.6583,1.6652,1.6755,1.666,1.6426,1.6148,1.5994,1.5745,1.54,1.5173,1.5041,1.5041,1.4908,1.4999,1.5082,1.5151,1.5072,1.4808,1.4751,1.471,1.4478,1.4335,1.4139,1.3887,1.3698,1.3491,1.3123,1.2968,1.2868,1.2633,1.2272,1.1984,1.178,1.1683,1.1436,1.1169,1.1089,1.1049,1.0909,1.0687,1.0624,1.0719,1.1055,1.1706,1.2289,1.2682,1.3055,1.344,1.3543,1.3571,1.3341,1.3157,1.3098,1.3152,1.3435,1.3886,1.3997,1.4057,1.4186,1.4221,1.4046,1.4108,1.4352,1.4395,1.4369,2.2762,2.2242,2.2198,2.1832,2.1328,2.124,2.1211,2.1211,2.1189,2.1035,2.0815,2.0706,2.0369,1.9879,1.9506,1.933,1.9404,1.9484,1.9535,1.9536,1.961,1.9784,2.012,2.0179,2.0384,2.0589,2.0398,2.0077,1.9791,1.9735,1.952,1.9301,1.9228,1.9155,1.8913,1.8482,1.8247,1.8079,1.7618,1.7301,1.7286,1.7286,1.7242,1.7213,1.7238,1.7162,1.7021,1.7045,1.7104,1.7133,1.7162,1.7216,1.7245,1.7238,1.7047,1.6689,1.6257,1.5782,1.5498,1.5398,1.5362,1.532,1.5257,1.534,1.5298,1.5347,1.5318,1.5325,1.5267,1.5155,1.5016,1.5092,1.4859,1.4543,1.429,1.4052,1.3754,1.3363,1.3231,1.2987,1.2647,1.2146,1.1776,1.1747,1.1657,1.139,1.1182,1.1162,1.1062,1.0874,1.0742,1.0879,1.0864,1.1469,1.2197,1.2549,1.3093,1.3634,1.39,1.4029,1.3782,1.3617,1.3872,1.3972,1.4156,1.4078,1.3969,1.4062,1.4296,1.4414,1.4393,1.4612,1.4925,1.4888,1.4787,2.3112,2.2403,2.2052,2.1752,2.1481,2.1291,2.1211,2.1167,2.1006,2.0852,2.0691,2.0453,2.0186,1.9793,1.9418,1.9279,1.936,1.95,1.9595,1.9544,1.9572,1.9777,2.0081,2.0183,2.0409,2.0603,2.0537,2.023,1.9901,1.9632,1.9441,1.9316,1.9257,1.9133,1.9081,1.8738,1.8489,1.8225,1.786,1.7523,1.7337,1.7286,1.7286,1.7286,1.7286,1.7286,1.7286,1.7286,1.7286,1.7286,1.7286,1.7286,1.7286,1.7296,1.7179,1.691,1.6668,1.6235,1.5804,1.5681,1.5571,1.5425,1.5396,1.5389,1.5389,1.5403,1.5403,1.5389,1.5389,1.5347,1.5298,1.5347,1.511,1.4868,1.4748,1.4367,1.4084,1.3889,1.3624,1.3331,1.3058,1.2612,1.222,1.226,1.2237,1.1938,1.1736,1.162,1.1431,1.1156,1.1076,1.1116,1.1065,1.1114,1.1914,1.2515,1.3145,1.37,1.4198,1.4255,1.4148,1.4146,1.4251,1.4319,1.4319,1.4168,1.3978,1.4313,1.4792,1.4821,1.4799,1.5069,1.5339,1.5336,1.5246,2.3693,2.2751,2.2002,2.165,2.1562,2.1313,2.1211,2.1174,2.0976,2.0808,2.0666,2.057,2.0253,1.9804,1.9695,1.9628,1.9338,1.9412,1.9469,1.9528,1.963,1.9835,2.0157,2.0234,2.0373,2.0394,2.0508,2.0311,1.9923,1.9535,1.9301,1.9272,1.9272,1.9162,1.8972,1.8782,1.8577,1.8123,1.7911,1.7633,1.7352,1.7286,1.7286,1.7286,1.7286,1.7286,1.7286,1.7286,1.7286,1.7286,1.7286,1.7286,1.7286,1.7271,1.7245,1.7047,1.693,1.6711,1.6316,1.6082,1.5827,1.563,1.5491,1.5555,1.5403,1.5425,1.5433,1.5411,1.5389,1.5389,1.5389,1.5389,1.5245,1.5114,1.5012,1.4616,1.4248,1.4193,1.4086,1.3858,1.3588,1.3265,1.2984,1.2991,1.2831,1.2514,1.2326,1.209,1.1776,1.139,1.1323,1.1329,1.1584,1.1588,1.2141,1.282,1.3345,1.3805,1.4294,1.4571,1.4494,1.4381,1.4352,1.4402,1.4478,1.4563,1.4541,1.4915,1.5266,1.5266,1.5309,1.5524,1.5701,1.5717,1.5748,2.458,2.3347,2.2161,2.1518,2.1262,2.1225,2.1211,2.1203,2.1167,2.0933,2.0829,2.0994,2.0543,2.0015,2.0406,2.0292,1.9405,1.9639,1.9655,1.9661,1.985,2.0091,2.027,2.0489,2.0686,2.0845,2.0596,2.0241,2.004,1.9484,1.9316,1.9272,1.9272,1.9309,1.9125,1.8899,1.8511,1.8101,1.7867,1.7607,1.7381,1.7286,1.7286,1.7286,1.7286,1.7286,1.7286,1.7286,1.7286,1.7286,1.7286,1.7286,1.7286,1.7286,1.7267,1.7238,1.7216,1.7026,1.6762,1.6462,1.6191,1.5987,1.5862,1.5782,1.5635,1.5732,1.5681,1.5491,1.5533,1.5418,1.5411,1.5382,1.5338,1.5301,1.5206,1.5034,1.4768,1.4707,1.4594,1.4367,1.4054,1.3607,1.3375,1.3288,1.3055,1.2731,1.2421,1.2228,1.1883,1.1543,1.151,1.1586,1.2064,1.2362,1.2798,1.3252,1.3526,1.4017,1.4518,1.4817,1.4955,1.4786,1.4579,1.4665,1.4773,1.4946,1.512,1.5347,1.5541,1.5682,1.5829,1.5977,1.6089,1.6127,1.6227,2.467,2.4061,2.2177,2.1328,2.1211,2.1211,2.1211,2.1174,2.0991,2.0977,2.1156,2.1317,2.1494,2.1637,2.163,2.1466,2.0695,2.0462,2.0113,1.9827,1.985,2.0164,2.0413,2.0562,2.0628,2.0633,2.0285,1.9967,1.9586,1.9396,1.933,1.9272,1.9272,1.9272,1.9169,1.895,1.854,1.8182,1.7896,1.7655,1.7359,1.7286,1.7286,1.7286,1.7286,1.7286,1.7286,1.7286,1.7286,1.7286,1.7286,1.7286,1.7286,1.7286,1.7286,1.7286,1.7286,1.7252,1.7121,1.6873,1.6573,1.6279,1.6184,1.6126,1.595,1.6126,1.6023,1.5855,1.5723,1.5637,1.5411,1.5396,1.5382,1.5389,1.536,1.5294,1.5192,1.5046,1.4776,1.4487,1.4165,1.3784,1.3601,1.3448,1.3208,1.2926,1.2623,1.2337,1.2046,1.1826,1.1764,1.1829,1.2221,1.2388,1.2779,1.3194,1.3657,1.4205,1.4757,1.5005,1.5205,1.5074,1.4927,1.501,1.5001,1.5002,1.5193,1.5566,1.5752,1.5786,1.6041,1.6363,1.6455,1.6494,1.6476,2.5003,2.445,2.2587,2.1539,2.1203,2.1211,2.1211,2.1167,2.0984,2.1216,2.1788,2.2356,2.2852,2.3203,2.3277,2.2375,2.1578,2.1055,2.0482,2.0135,2.0025,2.0303,2.0611,2.0808,2.0781,2.0516,2.019,1.9974,1.9703,1.9411,1.9294,1.9272,1.9272,1.9272,1.9199,1.895,1.8628,1.8306,1.7977,1.7662,1.733,1.7286,1.7286,1.7286,1.7286,1.7286,1.7286,1.7286,1.7286,1.7286,1.7286,1.7286,1.7286,1.7286,1.7286,1.7286,1.7286,1.7286,1.7252,1.7033,1.68,1.6595,1.6558,1.6507,1.6463,1.6485,1.6374,1.6096,1.603,1.5921,1.5579,1.5613,1.5476,1.5462,1.5403,1.5338,1.5258,1.5126,1.4805,1.4531,1.4304,1.4216,1.396,1.3806,1.3484,1.3177,1.2852,1.2576,1.2383,1.2186,1.2143,1.2197,1.2386,1.2442,1.2483,1.3271,1.4029,1.4538,1.4996,1.5221,1.5362,1.5278,1.512,1.5004,1.5001,1.501,1.5119,1.5296,1.5563,1.5794,1.606,1.631,1.6582,1.6585,1.6486,2.5735,2.4616,2.3416,2.2263,2.1375,2.1211,2.1211,2.1268,2.1274,2.1826,2.2885,2.456,2.4836,2.4289,2.4539,2.3683,2.2262,2.1707,2.1028,2.0497,2.0307,2.0659,2.0786,2.0861,2.0957,2.0962,2.0737,2.0401,2.0281,1.9821,1.9561,1.9376,1.9428,1.9272,1.9242,1.8942,1.8621,1.8306,1.7969,1.7611,1.7399,1.7286,1.7286,1.7286,1.7286,1.7286,1.7286,1.7286,1.7286,1.7286,1.7286,1.7286,1.7286,1.7286,1.7286,1.7286,1.7286,1.7286,1.7264,1.7026,1.6939,1.6903,1.6881,1.6762,1.6609,1.6661,1.6756,1.6418,1.636,1.6213,1.6038,1.5862,1.5694,1.5535,1.5484,1.5374,1.5294,1.5258,1.4966,1.4688,1.4779,1.4779,1.4457,1.4165,1.3797,1.343,1.3052,1.282,1.2636,1.2498,1.2378,1.2387,1.2458,1.2494,1.2666,1.3627,1.4356,1.4869,1.5121,1.5221,1.547,1.5537,1.535,1.5071,1.4946,1.4943,1.4914,1.4898,1.5219,1.5555,1.5859,1.6146,1.6457,1.662,1.642,2.63,2.5735,2.3807,2.2757,2.232,2.1546,2.1211,2.1375,2.207,2.3277,2.4626,2.5718,2.6079,2.5886,2.5679,2.509,2.4008,2.2659,2.1986,2.1503,2.092,2.0754,2.0859,2.0898,2.1037,2.1315,2.1217,2.1362,2.1783,2.0746,2.0382,2.0277,1.9576,1.9324,1.9118,1.8811,1.8379,1.8211,1.7816,1.7428,1.7301,1.7301,1.7293,1.7293,1.7286,1.7286,1.7286,1.7286,1.7286,1.7286,1.7286,1.7286,1.7286,1.7286,1.7286,1.7286,1.7286,1.7286,1.7271,1.7201,1.7179,1.7157,1.7128,1.7077,1.704,1.7084,1.6974,1.6829,1.6741,1.6565,1.6345,1.6023,1.5833,1.571,1.5622,1.5447,1.5352,1.5352,1.5206,1.4944,1.4878,1.4794,1.4545,1.4423,1.409,1.3774,1.3422,1.3124,1.2905,1.2686,1.2535,1.2462,1.2464,1.2481,1.2779,1.3317,1.3803,1.4159,1.4593,1.4927,1.5197,1.553,1.5464,1.5119,1.4976,1.486,1.4781,1.4731,1.4973,1.5255,1.5586,1.5934,1.6228,1.6324,1.621,2.6862,2.6354,2.4863,2.3704,2.2869,2.1702,2.1375,2.1979,2.3079,2.4543,2.591,2.6463,2.6945,2.7166,2.6822,2.589,2.5035,2.4287,2.2507,2.2135,2.1584,2.1309,2.1151,2.1212,2.1817,2.2118,2.2437,2.2686,2.2722,2.1664,2.0806,2.0109,1.968,1.9376,1.9118,1.8803,1.8518,1.8372,1.805,1.7691,1.7582,1.7454,1.7395,1.7323,1.7286,1.7286,1.7286,1.7286,1.7286,1.7286,1.7286,1.7286,1.7286,1.7286,1.7286,1.7286,1.7286,1.7286,1.7271,1.7271,1.7289,1.7296,1.7286,1.7286,1.7286,1.7242,1.7208,1.7077,1.7064,1.6873,1.6609,1.6265,1.6126,1.6052,1.5796,1.5628,1.5418,1.5411,1.536,1.5112,1.5017,1.4882,1.4692,1.457,1.437,1.4097,1.3803,1.3516,1.3174,1.2942,1.2716,1.2599,1.2519,1.2492,1.2448,1.2505,1.2989,1.3419,1.3945,1.4447,1.4915,1.5231,1.5208,1.5164,1.4997,1.4818,1.4613,1.4604,1.482,1.5033,1.5275,1.5635,1.5982,1.6031,1.6004,2.7628,2.6636,2.6527,2.5139,2.3199,2.2063,2.2119,2.3191,2.4267,2.5417,2.6608,2.7741,2.8009,2.7965,2.7373,2.6196,2.5013,2.4997,2.3437,2.2088,2.1985,2.1808,2.1782,2.2027,2.2489,2.3135,2.3557,2.3609,2.3547,2.2602,2.1222,1.994,1.9732,1.948,1.9302,1.9001,1.8782,1.8599,1.8328,1.7977,1.7772,1.7743,1.752,1.7388,1.7286,1.7286,1.7286,1.7286,1.7286,1.7286,1.7286,1.7286,1.7286,1.7286,1.7286,1.7286,1.7286,1.7286,1.7286,1.7286,1.7286,1.7286,1.7286,1.7286,1.7286,1.7286,1.7282,1.7267,1.7216,1.7069,1.6887,1.6704,1.6573,1.6279,1.5979,1.5767,1.5513,1.544,1.5403,1.5323,1.5309,1.5218,1.4958,1.4816,1.467,1.4582,1.4345,1.4072,1.3717,1.3235,1.3008,1.2746,1.2636,1.2482,1.2415,1.2362,1.2482,1.3025,1.3455,1.3937,1.4442,1.4829,1.4815,1.4842,1.4916,1.4825,1.4592,1.4558,1.4701,1.4911,1.5172,1.557,1.6008,1.591,1.591,2.8121,2.7682,2.6853,2.6073,2.5316,2.3913,2.4111,2.5426,2.564,2.6341,2.7799,2.8121,2.8164,2.7875,2.7568,2.6906,2.6206,2.5381,2.4254,2.3302,2.254,2.2033,2.1931,2.2178,2.2852,2.3704,2.4273,2.4669,2.472,2.3799,2.2206,2.0798,2.0336,1.9975,1.9546,1.9228,1.8986,1.8803,1.8533,1.8218,1.7955,1.786,1.7633,1.7388,1.7286,1.7286,1.7286,1.7286,1.7286,1.7286,1.7286,1.7286,1.7286,1.7286,1.7286,1.7286,1.7286,1.7286,1.7286,1.7286,1.7286,1.7286,1.7286,1.7286,1.7286,1.7286,1.7286,1.7286,1.7286,1.7194,1.7091,1.6952,1.6837,1.6602,1.6257,1.6001,1.5796,1.563,1.5621,1.5469,1.5462,1.5352,1.5155,1.5075,1.4984,1.497,1.4853,1.4525,1.4195,1.3699,1.3407,1.3149,1.2822,1.2695,1.2543,1.2476,1.2472,1.2629,1.306,1.3426,1.3765,1.408,1.4337,1.452,1.4677,1.4631,1.4529,1.4632,1.4909,1.4974,1.5207,1.5632,1.5927,1.5863,1.5912,2.7949,2.7707,2.7216,2.7046,2.6903,2.5308,2.5468,2.6679,2.6201,2.6736,2.7984,2.8223,2.8154,2.7959,2.7744,2.7207,2.6404,2.6144,2.5118,2.3534,2.3165,2.2975,2.2691,2.2931,2.3913,2.4666,2.5279,2.5857,2.568,2.4646,2.3035,2.1641,2.1226,2.0577,1.9981,1.9412,1.9052,1.8942,1.8767,1.843,1.8167,1.7969,1.7735,1.7366,1.7293,1.7286,1.7286,1.7286,1.7286,1.7286,1.7286,1.7286,1.7286,1.7286,1.7286,1.7286,1.7286,1.7286,1.7286,1.7286,1.7286,1.7286,1.7286,1.7286,1.7286,1.7286,1.7286,1.7286,1.7286,1.7257,1.7238,1.7157,1.7011,1.6895,1.6602,1.6265,1.6089,1.5928,1.5789,1.5608,1.5513,1.5425,1.533,1.5279,1.5214,1.5119,1.4984,1.4688,1.4426,1.4052,1.3836,1.3691,1.325,1.2937,1.2784,1.2608,1.2564,1.2608,1.2784,1.3128,1.3243,1.357,1.4018,1.4243,1.4437,1.4522,1.4687,1.4976,1.5212,1.5313,1.5478,1.5856,1.6028,1.5826,1.5996,2.7412,2.7148,2.7539,2.7887,2.7927,2.6181,2.6196,2.7383,2.6364,2.6582,2.762,2.8119,2.8174,2.7998,2.7783,2.717,2.6674,2.6467,2.5531,2.3676,2.4218,2.4131,2.4018,2.4888,2.4884,2.5628,2.6157,2.6274,2.5883,2.5072,2.3899,2.2643,2.1641,2.0987,2.0554,1.9439,1.9016,1.914,1.8957,1.8664,1.8357,1.8182,1.7984,1.7403,1.7286,1.7286,1.7286,1.7286,1.7286,1.7286,1.7286,1.7286,1.7286,1.7286,1.7286,1.7286,1.7286,1.7286,1.7286,1.7286,1.7286,1.7286,1.7286,1.7286,1.7286,1.7286,1.7286,1.7286,1.7286,1.7286,1.7282,1.7252,1.715,1.7011,1.6784,1.6617,1.6426,1.6191,1.5913,1.5752,1.552,1.5433,1.5409,1.5301,1.5279,1.5228,1.5133,1.4878,1.4674,1.4397,1.4171,1.4083,1.3666,1.3217,1.2982,1.2804,1.267,1.2714,1.2777,1.2692,1.2744,1.3194,1.3761,1.382,1.39,1.4619,1.4974,1.509,1.5346,1.59,1.6065,1.6211,1.6175,1.5911,1.5993,2.7314,2.7601,2.7969,2.8037,2.7754,2.6969,2.656,2.6699,2.6427,2.6753,2.7598,2.7806,2.7865,2.7816,2.7685,2.7211,2.6843,2.6461,2.5695,2.4807,2.4849,2.4771,2.4202,2.488,2.5228,2.5576,2.5955,2.624,2.5839,2.5293,2.4756,2.3692,2.2643,2.1887,2.1014,1.9699,1.9139,1.9228,1.876,1.854,1.8306,1.8006,1.7673,1.7388,1.7286,1.7286,1.7286,1.7286,1.7286,1.7286,1.7286,1.7286,1.7286,1.7286,1.7286,1.7286,1.7286,1.7286,1.7286,1.7286,1.7286,1.7286,1.7286,1.7286,1.7286,1.7286,1.7286,1.7286,1.7286,1.7286,1.7326,1.7318,1.7336,1.7235,1.711,1.697,1.6831,1.6426,1.6089,1.587,1.5608,1.5484,1.5467,1.5401,1.5338,1.533,1.533,1.5214,1.5104,1.4878,1.4442,1.4281,1.3942,1.3592,1.3301,1.3081,1.2985,1.2739,1.267,1.2529,1.2345,1.2792,1.333,1.3235,1.3377,1.4181,1.4706,1.4789,1.5158,1.5932,1.6389,1.641,1.6264,1.6038,1.608,2.6768,2.6894,2.7471,2.7715,2.764,2.7197,2.6875,2.6631,2.6269,2.6582,2.7295,2.7373,2.7373,2.7373,2.7373,2.7168,2.6777,2.6523,2.5921,2.5389,2.5083,2.505,2.4991,2.5092,2.5403,2.5742,2.5713,2.5732,2.5684,2.5635,2.5177,2.4648,2.3701,2.2626,2.1533,2.028,1.9269,1.9067,1.8438,1.8174,1.8123,1.7889,1.76,1.7381,1.7286,1.7286,1.7286,1.7286,1.7286,1.7286,1.7286,1.7286,1.7286,1.7286,1.7286,1.7286,1.7286,1.7286,1.7286,1.7286,1.7286,1.7286,1.7286,1.7286,1.7286,1.7286,1.7286,1.7286,1.7286,1.7286,1.7559,1.7598,1.8002,1.8095,1.7919,1.7796,1.7333,1.6755,1.655,1.6463,1.6148,1.5848,1.5738,1.5526,1.5526,1.5571,1.5549,1.5389,1.5309,1.5209,1.4806,1.4465,1.413,1.39,1.3679,1.3506,1.336,1.306,1.2719,1.2705,1.2692,1.2705,1.2821,1.306,1.3359,1.3879,1.4279,1.4628,1.5104,1.586,1.6275,1.6558,1.6349,1.6132,1.6044,2.6182,2.5908,2.675,2.7226,2.7532,2.7109,2.6914,2.6828,2.6153,2.6192,2.689,2.6958,2.6926,2.6934,2.6924,2.667,2.6445,2.6269,2.5927,2.5908,2.5674,2.5528,2.5683,2.5946,2.5869,2.5732,2.5693,2.5684,2.5684,2.5684,2.5635,2.5479,2.4609,2.3543,2.2381,2.1128,1.9938,1.9085,1.8445,1.805,1.7911,1.7753,1.752,1.7359,1.7286,1.7286,1.7286,1.7286,1.7286,1.7286,1.7286,1.7286,1.7286,1.7286,1.7286,1.7286,1.7286,1.7286,1.7286,1.7286,1.7286,1.7286,1.7286,1.7286,1.7286,1.7286,1.7286,1.7286,1.7286,1.738,1.7606,1.7924,1.8334,1.8788,1.8634,1.8534,1.7888,1.7194,1.6992,1.6942,1.6603,1.622,1.6001,1.5774,1.5738,1.5783,1.571,1.5528,1.5347,1.5179,1.4925,1.4612,1.4323,1.4145,1.394,1.3777,1.3547,1.33,1.2999,1.3019,1.3065,1.2973,1.3058,1.3264,1.36,1.3837,1.4387,1.49,1.5377,1.5822,1.6332,1.6686,1.6505,1.6281,1.5937,2.6212,2.6309,2.705,2.7255,2.707,2.6699,2.6654,2.6755,2.63,2.6278,2.6554,2.6623,2.6586,2.6504,2.6514,2.6387,2.6329,2.6123,2.636,2.6498,2.5996,2.5946,2.5966,2.6035,2.581,2.5762,2.5732,2.5684,2.5723,2.5732,2.5684,2.5625,2.4707,2.3624,2.2474,2.1227,2.012,1.9201,1.8613,1.8262,1.8218,1.7984,1.741,1.7293,1.7286,1.7286,1.7286,1.7286,1.7286,1.7286,1.7286,1.7286,1.7286,1.7286,1.7286,1.7286,1.7286,1.7286,1.7286,1.7286,1.7286,1.7286,1.7286,1.7286,1.7286,1.7286,1.7286,1.7286,1.7286,1.7286,1.7512,1.7746,1.8149,1.8834,1.9047,1.8964,1.8571,1.7842,1.7281,1.7108,1.6825,1.6573,1.6374,1.6191,1.6052,1.6074,1.5886,1.5711,1.541,1.5197,1.5056,1.4776,1.4524,1.4083,1.3763,1.3763,1.3621,1.3414,1.328,1.3293,1.326,1.318,1.3241,1.3355,1.3442,1.3589,1.4212,1.4739,1.541,1.5839,1.6457,1.6795,1.6648,1.6386,1.6093]}]]